[[{"header":{"parameterUnit":"m.s-1","parameterCategory":1,"la1":30.6,"la2":28.766,"lo1":-90.7593,"lo2":-88.6598,"dy":0.0162,"dx":0.0183,"nx":116,"ny":114,"refTime":"2023-03-11T06:00:00:Z","depth":0,"parameterNumber":2,"parameterNumberName":"U-component_of_WINDS"},"data":[0.0,0.0,0.0,0.0,0.0,0.0,0.0,0.0,0.0,0.0,0.0,0.0,0.0,0.0,0.0,0.0,0.0,0.0,0.0,0.0,0.0,0.0,0.0,0.0,0.0,0.0,0.0,0.0,0.0,0.0,0.0,0.0,0.0,0.0,0.0,0.0,0.0,0.0,0.0,0.0,0.0,0.0,0.0,0.0,0.0,0.0,0.0,0.0,0.0,0.0,0.0,0.0,0.0,0.0,0.0,0.0,0.0,0.0,0.0,0.0,0.0,0.0,0.0,0.0,0.0,0.0,0.0,0.0,0.0,0.0,0.0,0.0,0.0,0.0,0.0,0.0,0.0,0.0,0.0,0.0,0.0,0.0,0.0,0.0,0.0,0.0,0.0,0.0,0.0,0.0,0.0,0.0,0.0,0.0,0.0,0.0,0.0,0.0,0.0,0.0,0.0,0.0,0.0,0.0,0.0,0.0,0.0,0.0,0.0,0.0,0.0,0.0,0.0,0.0,0.0,0.0,0.0,0.0,0.0,0.0,0.0,0.0,0.0,0.0,0.0,0.0,0.0,0.0,0.0,0.0,0.0,0.0,0.0,0.0,0.0,0.0,0.0,0.0,0.0,0.0,0.0,0.0,0.0,0.0,0.0,0.0,0.0,0.0,0.0,0.0,0.0,0.0,0.0,0.0,0.0,0.0,0.0,0.0,0.0,0.0,0.0,0.0,0.0,0.0,0.0,0.0,0.0,0.0,0.0,0.0,0.0,0.0,0.0,0.0,0.0,0.0,0.0,0.0,0.0,0.0,0.0,0.0,0.0,0.0,0.0,0.0,0.0,0.0,0.0,0.0,0.0,0.0,0.0,0.0,0.0,0.0,0.0,0.0,0.0,0.0,0.0,0.0,0.0,0.0,0.0,0.0,0.0,0.0,0.0,0.0,0.0,0.0,0.0,0.0,0.0,0.0,0.0,0.0,0.0,0.0,0.0,0.0,0.0,0.0,0.0,0.0,0.0,0.0,0.0,0.0,0.0,0.0,0.0,0.0,0.0,0.0,0.0,0.0,0.0,0.0,0.0,0.0,0.0,0.0,0.0,0.0,0.0,0.0,0.0,0.0,0.0,0.0,0.0,0.0,0.0,0.0,0.0,0.0,0.0,0.0,0.0,0.0,0.0,0.0,0.0,0.0,0.0,0.0,0.0,0.0,0.0,0.0,0.0,0.0,0.0,0.0,0.0,0.0,0.0,0.0,0.0,0.0,0.0,0.0,0.0,0.0,0.0,0.0,0.0,0.0,0.0,0.0,0.0,0.0,0.0,0.0,0.0,0.0,0.0,0.0,0.0,0.0,0.0,0.0,0.0,0.0,0.0,0.0,0.0,0.0,0.0,0.0,0.0,0.0,0.0,0.0,0.0,0.0,0.0,0.0,0.0,0.0,0.0,0.0,0.0,0.0,0.0,0.0,0.0,0.0,0.0,0.0,0.0,0.0,0.0,0.0,0.0,0.0,0.0,0.0,0.0,0.0,0.0,0.0,0.0,0.0,0.0,0.0,0.0,0.0,0.0,0.0,0.0,0.0,0.0,0.0,0.0,0.0,0.0,0.0,0.0,0.0,0.0,0.0,0.0,0.0,0.0,0.0,0.0,0.0,0.0,0.0,0.0,0.0,0.0,0.0,0.0,0.0,0.0,0.0,0.0,0.0,0.0,0.0,0.0,0.0,0.0,0.0,0.0,0.0,0.0,0.0,0.0,0.0,0.0,0.0,0.0,0.0,0.0,0.0,0.0,0.0,0.0,0.0,0.0,0.0,0.0,0.0,0.0,0.0,0.0,0.0,0.0,0.0,0.0,0.0,0.0,0.0,0.0,0.0,0.0,0.0,0.0,0.0,0.0,0.0,0.0,0.0,0.0,0.0,0.0,0.0,0.0,0.0,0.0,0.0,0.0,0.0,0.0,0.0,0.0,0.0,0.0,0.0,0.0,0.0,0.0,0.0,0.0,0.0,0.0,0.0,0.0,0.0,0.0,0.0,0.0,0.0,0.0,0.0,0.0,0.0,0.0,0.0,0.0,0.0,0.0,0.0,0.0,0.0,0.0,0.0,0.0,0.0,0.0,0.0,0.0,0.0,0.0,0.0,0.0,0.0,0.0,0.0,0.0,0.0,0.0,0.0,0.0,0.0,0.0,0.0,0.0,0.0,0.0,0.0,0.0,0.0,0.0,0.0,0.0,0.0,0.0,0.0,0.0,0.0,0.0,0.0,0.0,0.0,0.0,0.0,0.0,0.0,0.0,0.0,0.0,0.0,0.0,0.0,0.0,0.0,0.0,0.0,0.0,0.0,0.0,0.0,0.0,0.0,0.0,0.0,0.0,0.0,0.0,0.0,0.0,0.0,0.0,0.0,0.0,0.0,0.0,0.0,0.0,0.0,0.0,0.0,0.0,0.0,0.0,0.0,0.0,0.0,0.0,0.0,0.0,0.0,0.0,0.0,0.0,0.0,0.0,0.0,0.0,0.0,0.0,0.0,0.0,0.0,0.0,0.0,0.0,0.0,0.0,0.0,0.0,0.0,0.0,0.0,0.0,0.0,0.0,0.0,0.0,0.0,0.0,0.0,0.0,0.0,0.0,0.0,0.0,0.0,0.0,0.0,0.0,0.0,0.0,0.0,0.0,0.0,0.0,0.0,0.0,0.0,0.0,0.0,0.0,0.0,0.0,0.0,0.0,0.0,0.0,0.0,0.0,0.0,0.0,0.0,0.0,0.0,0.0,0.0,0.0,0.0,0.0,0.0,0.0,0.0,0.0,0.0,0.0,0.0,0.0,0.0,0.0,0.0,0.0,0.0,0.0,0.0,0.0,0.0,0.0,0.0,0.0,0.0,0.0,0.0,0.0,0.0,0.0,0.0,0.0,0.0,0.0,0.0,0.0,0.0,0.0,0.0,0.0,0.0,0.0,0.0,0.0,0.0,0.0,0.0,0.0,0.0,0.0,0.0,0.0,0.0,0.0,0.0,0.0,0.0,0.0,0.0,0.0,0.0,0.0,0.0,0.0,0.0,0.0,0.0,0.0,0.0,0.0,0.0,0.0,0.0,0.0,0.0,0.0,0.0,0.0,0.0,0.0,0.0,0.0,0.0,0.0,0.0,0.0,0.0,0.0,0.0,0.0,0.0,0.0,0.0,0.0,0.0,0.0,0.0,0.0,0.0,0.0,0.0,0.0,0.0,0.0,0.0,0.0,0.0,0.0,0.0,0.0,0.0,0.0,0.0,0.0,0.0,0.0,0.0,0.0,0.0,0.0,0.0,0.0,0.0,0.0,0.0,0.0,0.0,0.0,0.0,0.0,0.0,0.0,0.0,0.0,0.0,0.0,0.0,0.0,0.0,0.0,0.0,0.0,0.0,0.0,0.0,0.0,0.0,0.0,0.0,0.0,0.0,0.0,0.0,0.0,0.0,0.0,0.0,0.0,0.0,0.0,0.0,0.0,0.0,0.0,0.0,0.0,0.0,0.0,0.0,0.0,0.0,0.0,0.0,0.0,0.0,0.0,0.0,0.0,0.0,0.0,0.0,0.0,0.0,0.0,0.0,0.0,0.0,0.0,0.0,0.0,0.0,0.0,0.0,0.0,0.0,0.0,0.0,0.0,0.0,0.0,0.0,0.0,0.0,0.0,0.0,0.0,0.0,0.0,0.0,0.0,0.0,0.0,0.0,0.0,0.0,0.0,0.0,0.0,0.0,0.0,0.0,0.0,0.0,0.0,0.0,0.0,0.0,0.0,0.0,0.0,0.0,0.0,0.0,0.0,0.0,0.0,0.0,0.0,0.0,0.0,0.0,0.0,0.0,0.0,0.0,0.0,0.0,0.0,0.0,0.0,0.0,0.0,0.0,0.0,0.0,0.0,0.0,0.0,0.0,0.0,0.0,0.0,0.0,0.0,0.0,0.0,0.0,0.0,0.0,0.0,0.0,0.0,0.0,0.0,0.0,0.0,0.0,0.0,0.0,0.0,0.0,0.0,0.0,0.0,0.0,0.0,0.0,0.0,0.0,0.0,0.0,0.0,0.0,0.0,0.0,0.0,0.0,0.0,0.0,0.0,0.0,0.0,0.0,0.0,0.0,0.0,0.0,0.0,0.0,0.0,0.0,0.0,0.0,0.0,0.0,0.0,0.0,0.0,0.0,0.0,0.0,0.0,0.0,0.0,0.0,0.0,0.0,0.0,0.0,0.0,0.0,0.0,0.0,0.0,0.0,0.0,0.0,0.0,0.0,0.0,0.0,0.0,0.0,0.0,0.0,0.0,0.0,0.0,0.0,0.0,0.0,0.0,0.0,0.0,0.0,0.0,0.0,0.0,0.0,0.0,0.0,0.0,0.0,0.0,0.0,0.0,0.0,0.0,0.0,0.0,0.0,0.0,0.0,0.0,0.0,0.0,0.0,0.0,0.0,0.0,0.0,0.0,0.0,0.0,0.0,0.0,0.0,0.0,0.0,0.0,0.0,0.0,0.0,0.0,0.0,0.0,0.0,0.0,0.0,0.0,0.0,0.0,0.0,0.0,0.0,0.0,0.0,0.0,0.0,0.0,0.0,0.0,0.0,0.0,0.0,0.0,0.0,0.0,0.0,0.0,0.0,0.0,0.0,0.0,0.0,0.0,0.0,0.0,0.0,0.0,0.0,0.0,0.0,0.0,0.0,0.0,0.0,0.0,0.0,0.0,0.0,0.0,0.0,0.0,0.0,0.0,0.0,0.0,0.0,0.0,0.0,0.0,0.0,0.0,0.0,0.0,0.0,0.0,0.0,0.0,0.0,0.0,0.0,0.0,0.0,0.0,0.0,0.0,0.0,0.0,0.0,0.0,0.0,0.0,0.0,0.0,0.0,0.0,0.0,0.0,0.0,0.0,0.0,0.0,0.0,0.0,0.0,0.0,0.0,0.0,0.0,0.0,0.0,0.0,0.0,0.0,0.0,0.0,0.0,0.0,0.0,0.0,0.0,0.0,0.0,0.0,0.0,0.0,0.0,0.0,0.0,0.0,0.0,0.0,0.0,0.0,0.0,0.0,0.0,0.0,0.0,0.0,0.0,0.0,0.0,0.0,0.0,0.0,0.0,0.0,0.0,0.0,0.0,0.0,0.0,0.0,0.0,0.0,0.0,0.0,0.0,0.0,0.0,0.0,0.0,0.0,0.0,0.0,0.0,0.0,0.0,0.0,0.0,0.0,0.0,0.0,0.0,0.0,0.0,0.0,0.0,0.0,0.0,0.0,0.0,0.0,0.0,0.0,0.0,0.0,0.0,0.0,0.0,0.0,0.0,0.0,0.0,0.0,0.0,0.0,0.0,0.0,0.0,0.0,0.0,0.0,0.0,0.0,0.0,0.0,0.0,0.0,0.0,0.0,0.0,0.0,0.0,0.0,0.0,0.0,0.0,0.0,0.0,0.0,0.0,0.0,0.0,0.0,0.0,0.0,0.0,0.0,0.0,0.0,0.0,0.0,0.0,0.0,0.0,0.0,0.0,0.0,0.0,0.0,0.0,0.0,0.0,0.0,0.0,0.0,0.0,0.0,0.0,0.0,0.0,0.0,0.0,0.0,0.0,0.0,0.0,0.0,0.0,0.0,0.0,0.0,0.0,0.0,0.0,0.0,0.0,0.0,0.0,0.0,0.0,0.0,0.0,0.0,0.0,0.0,0.0,0.0,0.0,0.0,0.0,0.0,0.0,0.0,0.0,0.0,0.0,0.0,0.0,0.0,0.0,0.0,0.0,0.0,0.0,0.0,0.0,0.0,0.0,0.0,0.0,0.0,0.0,0.0,0.0,0.0,0.0,0.0,0.0,0.0,0.0,0.0,0.0,0.0,0.0,0.0,0.0,0.0,0.0,0.0,0.0,0.0,0.0,0.0,0.0,0.0,0.0,0.0,0.0,0.0,0.0,0.0,0.0,0.0,0.0,0.0,0.0,0.0,0.0,0.0,0.0,0.0,0.0,0.0,0.0,0.0,0.0,0.0,0.0,0.0,0.0,0.0,0.0,0.0,0.0,0.0,0.0,0.0,0.0,0.0,0.0,0.0,0.0,0.0,0.0,0.0,0.0,0.0,0.0,0.0,0.0,0.0,0.0,5.9297,0.0,0.0,0.0,0.0,0.0,0.0,0.0,0.0,0.0,0.0,0.0,0.0,0.0,0.0,0.0,0.0,0.0,0.0,0.0,0.0,0.0,0.0,0.0,0.0,0.0,0.0,0.0,0.0,0.0,0.0,0.0,0.0,0.0,0.0,0.0,0.0,0.0,0.0,0.0,0.0,0.0,0.0,0.0,0.0,0.0,0.0,0.0,0.0,0.0,0.0,0.0,0.0,0.0,0.0,0.0,0.0,0.0,0.0,0.0,0.0,0.0,0.0,0.0,0.0,0.0,0.0,0.0,0.0,0.0,0.0,0.0,0.0,0.0,0.0,0.0,0.0,0.0,0.0,0.0,0.0,0.0,0.0,0.0,0.0,0.0,0.0,0.0,0.0,0.0,0.0,0.0,0.0,0.0,0.0,0.0,0.0,0.0,0.0,0.0,0.0,0.0,0.0,0.0,0.0,0.0,0.0,0.0,0.0,0.0,0.0,0.0,0.0,0.0,0.0,0.0,0.0,6.0781,0.0,0.0,0.0,0.0,0.0,0.0,0.0,0.0,0.0,0.0,0.0,0.0,0.0,0.0,0.0,0.0,0.0,0.0,0.0,0.0,0.0,0.0,0.0,0.0,0.0,0.0,0.0,0.0,0.0,0.0,0.0,0.0,0.0,0.0,0.0,0.0,0.0,0.0,0.0,0.0,0.0,0.0,0.0,0.0,0.0,0.0,0.0,0.0,0.0,0.0,0.0,0.0,0.0,0.0,0.0,0.0,0.0,0.0,0.0,0.0,0.0,0.0,0.0,0.0,0.0,0.0,0.0,0.0,0.0,0.0,0.0,0.0,0.0,0.0,0.0,0.0,0.0,0.0,0.0,0.0,0.0,0.0,0.0,0.0,0.0,0.0,0.0,0.0,0.0,0.0,0.0,0.0,0.0,0.0,0.0,0.0,0.0,0.0,0.0,0.0,0.0,0.0,0.0,0.0,0.0,0.0,0.0,0.0,6.8426,6.9872,7.1903,7.1903,7.1981,7.1825,6.6863,6.4058,6.3008,0.0,0.0,0.0,0.0,0.0,0.0,0.0,0.0,0.0,0.0,0.0,0.0,0.0,0.0,0.0,0.0,0.0,0.0,0.0,0.0,0.0,0.0,0.0,0.0,0.0,0.0,0.0,0.0,0.0,0.0,0.0,0.0,0.0,0.0,0.0,0.0,0.0,0.0,0.0,6.909,7.1395,7.2392,7.2007,6.8244,0.0,0.0,0.0,0.0,0.0,0.0,0.0,0.0,0.0,0.0,0.0,0.0,0.0,0.0,0.0,0.0,0.0,0.0,0.0,0.0,0.0,0.0,0.0,0.0,0.0,0.0,0.0,0.0,0.0,0.0,0.0,0.0,0.0,0.0,0.0,0.0,0.0,0.0,0.0,0.0,0.0,0.0,0.0,5.9017,5.8954,0.0,0.0,0.0,0.0,0.0,0.0,0.0,0.0,0.0,0.0,0.0,0.0,0.0,0.0,6.7924,6.9493,7.0473,7.0826,7.0904,7.1139,7.1493,7.1493,7.1884,7.2551,7.1767,0.0,6.8281,6.6797,0.0,0.0,0.0,0.0,0.0,0.0,0.0,0.0,0.0,0.0,0.0,0.0,0.0,0.0,0.0,0.0,0.0,0.0,0.0,0.0,0.0,0.0,0.0,0.0,0.0,0.0,0.0,0.0,0.0,0.0,0.0,0.0,0.0,0.0,0.0,0.0,6.9814,7.1933,7.3283,7.5361,7.6322,7.6207,7.3864,7.1286,6.8629,6.717,0.0,0.0,0.0,0.0,0.0,0.0,0.0,0.0,0.0,0.0,0.0,0.0,0.0,0.0,0.0,0.0,0.0,0.0,0.0,0.0,0.0,0.0,0.0,0.0,0.0,0.0,0.0,0.0,0.0,0.0,0.0,0.0,0.0,0.0,0.0,0.0,0.0,0.0,0.0,5.9725,6.0479,6.0472,6.124,6.156,0.0,0.0,0.0,0.0,0.0,0.0,0.0,0.0,0.0,6.7293,6.8522,6.9518,7.0295,7.2009,7.3841,7.571,7.6214,7.7714,8.0055,7.9543,7.9517,7.9899,7.9899,7.8256,7.5221,7.0658,6.7725,6.5984,0.0,0.0,0.0,0.0,0.0,6.4531,0.0,0.0,0.0,0.0,0.0,0.0,0.0,0.0,0.0,0.0,0.0,0.0,0.0,0.0,0.0,6.1256,0.0,0.0,0.0,0.0,0.0,0.0,0.0,0.0,0.0,0.0,0.0,0.0,7.3661,7.5973,7.763,7.9558,8.0327,8.0096,7.9288,7.6557,7.236,6.9594,6.7939,0.0,0.0,0.0,0.0,0.0,0.0,0.0,0.0,0.0,0.0,0.0,0.0,0.0,0.0,0.0,0.0,0.0,0.0,0.0,0.0,0.0,0.0,0.0,0.0,0.0,0.0,0.0,0.0,0.0,0.0,0.0,0.0,0.0,0.0,0.0,0.0,0.0,0.0,6.1427,6.253,6.1725,6.3072,6.3404,0.0,0.0,0.0,0.0,0.0,0.0,6.6555,6.785,6.9362,7.1224,7.2324,7.3334,7.417,7.5908,7.8157,8.0889,8.1531,8.3514,8.6606,8.5931,8.564,8.5638,8.5638,8.4075,8.1077,7.4757,7.0984,6.9091,6.7469,6.6411,6.5871,6.6808,6.7478,6.8047,0.0,0.0,0.0,0.0,0.0,0.0,0.0,0.0,0.0,0.0,0.0,0.0,0.0,0.0,6.283,6.3319,6.4921,6.5219,0.0,0.0,0.0,0.0,0.0,0.0,0.0,0.0,0.0,7.3315,7.7473,8.0319,8.2058,8.4555,8.532,8.4551,8.3674,8.0943,7.6749,7.3364,7.144,7.036,0.0,0.0,0.0,0.0,0.0,0.0,0.0,0.0,0.0,0.0,0.0,0.0,0.0,0.0,0.0,0.0,0.0,0.0,0.0,0.0,0.0,0.0,0.0,0.0,0.0,0.0,0.0,0.0,0.0,0.0,0.0,0.0,0.0,0.0,0.0,0.0,0.0,0.0,0.0,6.1913,6.497,0.0,0.0,0.0,0.0,6.6009,6.7608,6.9259,7.0812,7.0976,7.2062,7.4392,7.6126,7.855,8.1735,8.35,8.4808,8.5735,8.5778,8.5936,8.6128,8.6089,8.6051,8.6055,8.6055,8.5555,8.4316,7.9408,7.595,7.3514,7.1769,7.1073,7.1066,7.1291,7.1398,7.1484,0.0,0.0,0.0,0.0,0.0,0.0,0.0,0.0,0.0,0.0,0.0,0.0,0.0,6.3054,6.466,6.7217,6.852,6.8351,6.6351,0.0,0.0,0.0,0.0,0.0,0.0,0.0,7.4615,7.9165,8.232,8.5012,8.7205,8.8705,8.8936,8.8085,8.7252,8.5405,8.2593,7.7015,7.3518,7.1479,6.8667,6.6471,0.0,0.0,0.0,0.0,0.0,0.0,0.0,0.0,0.0,0.0,0.0,0.0,0.0,0.0,0.0,0.0,0.0,0.0,0.0,0.0,0.0,0.0,0.0,0.0,0.0,0.0,0.0,0.0,0.0,0.0,0.0,0.0,0.0,0.0,0.0,0.0,0.0,6.7044,6.9195,0.0,6.8787,6.9344,6.9922,7.0217,7.2223,7.3951,7.5062,7.7177,7.8992,8.0366,8.2093,8.3824,8.5555,8.6752,8.8017,8.9398,8.9398,8.994,9.0979,9.0441,9.021,9.0171,8.9628,8.8594,8.7171,8.4915,8.1523,7.7527,7.5352,7.4077,7.3563,7.3903,7.4287,7.4764,0.0,0.0,0.0,0.0,0.0,0.0,0.0,0.0,0.0,0.0,0.0,6.0058,6.3341,6.539,6.7633,7.033,7.1403,7.0822,6.8278,0.0,0.0,0.0,0.0,0.0,0.0,7.4338,7.8118,8.3234,8.6068,8.8576,9.0782,9.1633,9.1462,9.0378,9.0097,8.8734,8.6307,8.1444,7.7592,7.4479,7.1049,6.9202,6.8167,0.0,0.0,0.0,0.0,0.0,0.0,0.0,0.0,0.0,0.0,0.0,0.0,0.0,0.0,0.0,0.0,0.0,0.0,0.0,0.0,0.0,0.0,0.0,0.0,0.0,0.0,0.0,0.0,0.0,0.0,0.0,0.0,0.0,0.0,0.0,7.0314,7.1272,7.3708,7.4936,7.3978,7.4518,7.5018,7.5326,7.76,7.9515,8.0635,8.3097,8.4867,8.5709,8.6782,8.7936,8.9094,8.9675,9.0676,9.2056,9.2056,9.2633,9.3676,9.3138,9.2903,9.2869,9.2287,9.1248,8.9906,8.9056,8.6513,8.2931,8.0181,7.8727,7.8154,7.8204,7.8493,7.8911,0.0,0.0,0.0,0.0,0.0,0.0,0.0,0.0,0.0,0.0,5.8437,6.1447,6.3956,6.8525,7.1747,7.2562,7.3303,7.2386,6.9185,6.7423,0.0,0.0,0.0,0.0,7.3057,7.7116,8.1199,8.5309,8.863,9.1033,9.2622,9.3434,9.2971,9.1532,9.2263,9.0786,8.7666,8.6675,8.385,7.9608,7.4472,7.2822,7.2969,0.0,0.0,0.0,0.0,0.0,0.0,0.0,0.0,0.0,0.0,0.0,0.0,0.0,0.0,0.0,0.0,0.0,0.0,0.0,0.0,0.0,0.0,0.0,0.0,0.0,0.0,0.0,0.0,0.0,0.0,0.0,0.0,0.0,6.65,7.1494,7.49,7.4302,7.8402,8.0054,7.6916,7.8723,8.0473,8.1323,8.3704,8.582,8.744,8.8367,8.921,8.997,9.0009,9.0859,9.2556,9.2599,9.2984,9.3792,9.3792,9.3792,9.3792,9.3792,9.3792,9.3792,9.3753,9.3292,9.2518,9.1633,9.0782,8.9663,8.632,8.4974,8.4863,8.4194,8.3894,8.3783,0.0,0.0,0.0,0.0,0.0,0.0,0.0,0.0,0.0,0.0,5.9428,6.3313,6.6372,7.1027,7.4463,7.5858,7.5131,7.3443,7.0793,0.0,0.0,0.0,0.0,0.0,7.7581,8.168,8.5739,8.9736,9.1892,9.3787,9.5414,9.5648,9.5159,9.4149,9.4313,9.291,9.0386,8.9965,8.8109,8.4934,7.9105,7.5476,7.3276,0.0,0.0,0.0,0.0,0.0,0.0,0.0,0.0,0.0,0.0,0.0,0.0,0.0,0.0,0.0,0.0,0.0,0.0,0.0,0.0,0.0,0.0,0.0,0.0,0.0,0.0,0.0,0.0,0.0,0.0,0.0,0.0,7.149,7.1511,7.4978,7.8619,8.1531,8.4129,8.5547,8.5291,8.6385,8.7201,8.747,8.9282,9.0325,9.0171,9.1518,9.2176,9.1787,9.2364,9.3172,9.4292,9.4292,9.4754,9.5595,9.5595,9.5595,9.5595,9.5595,9.5595,9.5557,9.4907,9.4527,9.4253,9.3369,9.2864,9.2249,8.8286,8.6324,8.5666,8.4905,8.3832,8.272,0.0,0.0,0.0,0.0,0.0,0.0,0.0,0.0,0.0,0.0,6.0713,6.5228,6.748,7.2312,7.5792,7.6702,7.5315,7.3369,7.0947,0.0,0.0,0.0,0.0,7.7267,8.2029,8.5458,8.9123,9.3147,9.4775,9.6231,9.7525,9.7857,9.738,9.6298,9.6216,9.5039,9.3049,9.2177,9.0839,8.886,8.4533,8.0975,7.7973,7.5326,7.3329,7.1636,6.9744,6.8706,6.7898,6.6048,0.0,0.0,0.0,0.0,0.0,0.0,0.0,0.0,0.0,0.0,0.0,0.0,0.0,0.0,0.0,0.0,0.0,0.0,0.0,0.0,0.0,0.0,0.0,0.0,7.328,7.6892,7.9011,8.0708,8.3131,8.7051,8.8709,8.9868,9.0714,9.121,9.1475,9.1475,9.2787,9.333,9.2826,9.4057,9.4711,9.4595,9.5057,9.5523,9.6023,9.6062,9.6134,9.6283,9.6283,9.6283,9.6283,9.6283,9.6283,0.0,9.5749,9.5523,9.5485,9.46,9.4253,0.0,0.0,0.0,0.0,0.0,8.5401,8.3901,0.0,0.0,0.0,0.0,0.0,0.0,0.0,0.0,0.0,0.0,0.0,6.6592,6.7223,7.2393,7.5836,7.5836,7.4448,7.265,0.0,0.0,0.0,7.3193,7.7304,8.1636,8.6122,8.8748,9.1912,9.5673,9.7209,9.8362,9.9215,9.9921,9.9466,9.809,9.7903,9.7023,9.5487,9.3828,9.2668,9.1767,9.0057,8.759,8.4434,7.9881,7.8365,7.8211,7.5049,7.2549,7.0514,6.9353,0.0,0.0,0.0,0.0,0.0,0.0,0.0,0.0,0.0,0.0,0.0,0.0,0.0,0.0,0.0,0.0,0.0,0.0,0.0,0.0,0.0,0.0,0.0,0.0,7.8396,8.2473,8.7286,8.7555,8.832,9.1282,9.2402,9.3249,9.4061,9.4215,9.4292,9.4292,9.4984,9.5412,9.5412,0.0,0.0,0.0,0.0,9.7596,9.7519,9.7596,9.7211,9.6283,9.6476,9.6514,9.6437,9.6552,9.6591,9.6591,9.6591,9.6591,9.6519,9.5638,9.5181,9.4758,9.2287,9.1364,9.1133,8.9445,8.7786,0.0,0.0,0.0,0.0,0.0,0.0,0.0,0.0,0.0,0.0,5.5585,6.141,6.5338,6.4867,7.041,7.4155,7.4155,7.3303,7.2525,0.0,0.0,7.378,7.8193,8.2884,8.6436,8.8674,9.2381,9.5339,9.7412,9.8396,9.9587,10.0985,10.1216,10.0705,9.9797,9.9059,9.8265,9.7331,9.6212,9.5285,9.4462,9.3401,8.9767,8.487,8.382,8.182,7.9285,7.7284,7.6672,7.6365,7.3472,7.3088,7.3168,6.959,0.0,0.0,0.0,0.0,0.0,0.0,0.0,0.0,0.0,0.0,0.0,0.0,0.0,0.0,0.0,0.0,0.0,0.0,0.0,0.0,7.8281,8.3401,8.8021,9.1095,9.3133,9.4326,9.4253,9.5018,9.586,9.6673,9.7408,9.7793,9.7793,9.7985,9.8062,9.8062,9.8216,0.0,9.8524,9.8562,9.8211,9.7519,9.8211,9.7788,9.6322,0.0,0.0,9.7288,9.798,9.8331,9.8331,9.8331,9.8331,9.8254,9.7365,9.6215,9.4835,9.2984,9.2249,9.2056,9.0321,8.9056,8.8098,0.0,0.0,0.0,0.0,0.0,0.0,0.0,0.0,0.0,0.0,6.0529,6.3894,6.3496,6.7804,7.0527,7.0117,7.0477,0.0,0.0,7.4404,7.7892,8.3177,8.6876,9.0143,9.3005,9.5832,9.8291,10.0283,10.1484,10.2695,10.4011,10.4011,10.3513,10.2605,10.1011,9.9995,9.9591,9.7902,9.6726,9.5968,9.5486,9.2951,8.9358,8.8013,8.6138,8.4016,8.2324,8.0862,7.9481,7.7357,7.6357,7.563,7.3514,7.228,7.1164,0.0,0.0,0.0,0.0,0.0,0.0,0.0,0.0,0.0,0.0,0.0,0.0,0.0,0.0,7.0475,7.2976,0.0,8.0554,8.482,8.8709,9.2099,9.4634,9.6865,9.7716,9.6408,9.7019,9.7711,9.8096,9.8524,9.8793,9.8793,9.8793,9.8793,9.8793,9.8793,9.8985,9.9447,9.9447,9.9255,9.8793,9.9216,9.8793,9.7557,9.8404,9.8562,9.8173,9.8601,9.8793,9.8793,9.8793,9.8793,9.8716,9.7865,9.6788,9.5557,9.4711,9.3864,9.2984,9.2133,9.1018,8.9902,0.0,0.0,0.0,0.0,0.0,0.0,0.0,0.0,0.0,0.0,0.0,6.2279,6.2132,6.4751,6.6372,0.0,0.0,0.0,0.0,7.7268,8.1966,8.7463,9.0473,9.3565,9.6869,9.8961,10.1017,10.2915,10.4614,10.5789,10.6607,10.6497,10.6009,10.518,10.2815,10.1798,10.1798,9.9228,9.7943,9.756,9.6899,9.5769,9.4246,9.1999,9.0301,8.8945,8.7017,8.4209,8.1208,8.0319,7.8704,7.6976,7.6784,7.5934,7.4626,7.2937,7.136,0.0,0.0,0.0,0.0,0.0,0.0,0.0,0.0,6.8395,7.0202,7.1433,7.3549,7.6357,8.0089,8.2708,8.5901,9.0864,9.3364,9.5518,9.7904,9.9601,10.0101,9.8673,9.9096,9.9596,9.9755,9.9793,9.9793,9.9793,9.9793,9.9793,9.9793,9.9793,10.0101,10.0798,10.0794,10.0798,10.0601,10.0601,10.0101,9.9288,9.9447,9.9519,9.9519,9.9519,9.9519,9.9524,9.9365,9.9101,9.8755,9.8057,9.7173,9.6283,9.6283,9.5441,9.4177,9.4023,9.3099,9.1902,0.0,0.0,0.0,0.0,0.0,0.0,0.0,0.0,0.0,0.0,0.0,0.0,0.0,0.0,0.0,0.0,0.0,0.0,7.6474,8.0592,8.5078,8.9996,9.463,9.7319,9.776,10.1384,10.3513,10.3817,10.5385,10.668,10.7498,10.6717,10.6302,10.6119,10.3696,10.2999,10.3403,10.0319,9.9732,10.0706,9.7839,9.6533,9.6201,9.5112,9.315,9.059,8.8132,8.5055,8.2054,8.1246,8.0785,8.04,7.9627,7.9781,7.9323,7.4703,7.2668,7.1363,6.8933,6.8199,6.8433,6.9744,7.0244,7.1206,0.0,7.4938,7.5819,7.8165,8.0092,8.1939,8.3974,8.8171,9.1825,9.3215,9.6139,9.8865,10.0591,10.1707,10.2212,10.2097,10.2097,10.2481,10.3294,10.3294,10.3294,10.3294,10.3294,10.3294,10.3294,10.3294,10.341,10.3486,10.3486,10.3102,10.2289,10.2289,10.1904,10.1015,10.1789,10.2212,10.2212,10.2212,10.2212,10.2092,10.1399,10.0212,9.8793,9.8678,9.7711,9.6283,9.6283,9.6168,9.5903,9.5138,9.4758,9.4446,0.0,0.0,0.0,0.0,0.0,0.0,0.0,0.0,0.0,0.0,0.0,0.0,0.0,0.0,0.0,0.0,0.0,7.0961,7.6269,8.1746,8.7178,9.2501,9.6502,9.8814,9.9301,10.3303,10.5395,10.5395,10.7,10.8002,10.8295,10.7488,10.7095,10.7021,10.4504,10.3796,10.442,10.2191,10.131,10.1284,9.9522,9.8171,9.7106,9.5322,9.3246,9.0926,8.8332,8.4901,0.0,0.0,8.0015,7.9788,8.09,8.0481,7.9173,7.7019,7.4784,7.2511,7.0433,7.0584,7.1545,7.2241,7.4242,7.6588,7.8515,7.9712,8.102,8.305,8.5205,8.7397,8.9594,9.2595,9.5634,0.0,10.0481,10.2409,10.4015,10.4592,10.44,10.3482,10.3405,10.3482,10.391,10.4294,10.4602,10.4602,10.5097,10.5097,10.4602,10.5097,10.5405,10.5405,10.5405,10.5213,10.4784,10.4289,10.391,10.3482,10.3405,10.3405,10.3405,10.3405,10.3097,10.2515,10.1217,9.9909,9.8755,9.825,9.7365,9.6283,9.6283,9.6283,9.6245,9.5903,9.5446,9.4951,0.0,0.0,0.0,0.0,0.0,0.0,0.0,0.0,0.0,0.0,0.0,0.0,0.0,0.0,0.0,0.0,6.3796,6.9089,7.4735,8.1203,8.7334,9.3015,9.7236,9.9906,10.0907,10.4991,10.7084,10.7084,10.8516,10.8982,10.8799,10.8002,10.7609,10.7498,10.5201,10.4687,10.5385,10.3686,10.2705,10.2101,10.0806,9.9045,9.6907,9.4429,9.1532,8.8512,8.6695,8.3444,0.0,0.0,7.7977,7.7865,8.0173,7.9827,7.8407,7.7946,7.5592,7.2972,7.2168,7.3206,7.478,7.5703,7.8935,8.2166,8.3281,8.5016,8.6867,8.8551,9.0398,9.236,9.4677,9.6326,9.8596,10.2289,10.3905,10.529,10.7208,10.6785,10.59,10.441,10.3789,10.3482,10.3482,10.4713,10.5718,10.6102,10.6708,10.6905,10.6487,10.7098,10.7285,10.7092,10.7285,10.7285,10.7092,10.6213,10.5795,10.5795,10.4982,10.4597,10.4597,10.4102,10.3405,10.252,10.1101,9.9793,9.8755,9.8134,9.725,9.6283,9.6283,9.6283,9.6283,9.6283,9.5903,9.5369,0.0,0.0,0.0,0.0,0.0,0.0,0.0,0.0,0.0,0.0,0.0,0.0,0.0,0.0,0.0,5.9117,6.2254,6.6592,7.2239,7.8699,8.4829,9.0473,9.6832,10.1017,10.2585,10.6586,10.8688,10.8688,10.958,10.958,10.8799,10.8002,10.7609,10.7488,10.5778,10.5484,10.6313,10.4588,10.3806,10.3586,10.1284,9.8384,9.5275,9.272,8.7809,8.2298,8.2558,0.0,0.0,0.0,7.4857,7.5126,7.6903,7.7942,7.8176,7.6553,7.4249,7.2594,7.4165,7.5861,7.798,8.1208,8.4632,8.7594,8.9239,9.1595,9.3907,9.5629,9.6052,9.6634,9.8331,9.937,10.0794,10.3405,10.5208,10.7208,10.9713,10.7982,10.6097,10.5218,10.3597,10.2592,0.0,10.49,10.7015,10.8713,10.879,10.9213,10.9988,11.0103,10.9719,10.8906,10.9603,10.9719,10.879,10.7982,10.7598,10.7598,10.6708,10.6285,10.6285,10.4597,10.3405,10.2597,10.1707,10.0284,9.8793,9.8755,9.7788,9.6283,9.6283,9.6283,9.6283,9.6283,9.6283,9.6245,0.0,0.0,0.0,0.0,0.0,0.0,0.0,0.0,0.0,0.0,0.0,0.0,0.0,0.0,0.0,0.0,6.1367,6.4971,6.9052,7.5917,8.1599,8.5665,9.3079,9.763,9.8704,10.3686,10.6281,10.6281,10.7183,10.7194,10.6292,10.5495,10.5385,10.5899,10.4798,10.4798,10.5495,10.4404,10.389,10.3596,10.0109,9.8053,9.6393,9.0144,8.5565,8.1918,0.0,0.0,0.0,0.0,7.2164,7.2587,7.4861,7.5399,7.4972,7.3825,7.4864,7.6634,7.7781,8.0977,8.4828,8.8214,9.121,9.3903,9.6139,9.775,9.875,9.8793,9.7019,9.5591,9.6177,9.6528,9.7908,10.1597,10.5482,10.879,11.0791,11.0785,10.9016,10.4794,10.4294,0.0,0.0,0.0,0.0,10.7982,10.9708,11.0791,11.1016,11.2099,11.2291,11.1401,11.1714,11.1214,10.9796,10.9488,10.879,10.7713,10.6785,10.6092,10.5482,10.441,10.3405,10.252,10.0481,9.9327,9.8716,9.7596,9.6826,9.6283,9.6283,9.6283,9.6283,9.6283,9.6283,9.6283,0.0,0.0,0.0,0.0,0.0,0.0,0.0,0.0,0.0,0.0,0.0,0.0,0.0,0.0,0.0,0.0,0.0,6.2909,6.6195,7.1879,7.6827,8.0637,8.7206,9.1391,9.2758,9.6896,9.9465,10.0309,10.1494,10.1898,10.1704,10.1714,10.2008,10.2512,10.2008,10.2191,10.2915,10.2081,10.1284,10.0099,9.6392,9.3822,9.1555,8.4874,8.0415,0.0,0.0,0.0,0.0,0.0,7.001,7.0395,7.2626,7.3395,7.3588,7.3902,7.6788,8.0442,8.3127,8.7171,9.1479,9.5172,9.7788,9.9942,10.1909,10.2289,10.202,10.1217,9.7788,9.5018,9.4989,9.4258,9.5023,9.9245,10.3212,10.6905,11.0093,10.9708,10.8093,10.5597,10.441,10.3097,0.0,0.0,0.0,10.7982,11.0208,11.1785,11.2401,11.3714,11.4099,11.3209,11.3483,11.2791,11.1098,11.1098,11.0098,10.8098,10.7285,10.6213,10.5102,10.4294,10.3405,10.252,10.0519,9.9365,9.8716,9.7634,9.6822,9.6283,9.6283,9.6283,9.6283,9.6283,9.6283,9.6283,0.0,0.0,0.0,0.0,0.0,0.0,0.0,0.0,0.0,0.0,0.0,0.0,0.0,0.0,0.0,0.0,0.0,0.0,6.3692,6.6916,7.0807,7.5469,7.9661,8.3002,8.5388,8.7105,8.9124,9.1473,9.3097,9.4263,9.5061,9.6502,9.7246,9.7356,9.7282,9.7713,9.8437,9.7603,9.5924,9.3538,9.0289,8.6215,8.168,7.7561,0.0,0.0,0.0,0.0,0.0,6.75,6.8507,6.893,7.0591,7.228,7.4203,7.6865,8.0058,8.4055,8.9975,9.4167,9.7822,10.202,10.4212,10.5602,10.6285,10.5213,10.3717,10.2597,9.8331,9.4758,9.4566,9.2672,9.2513,9.6826,9.9178,10.2486,10.829,10.579,10.4405,10.7482,10.4284,10.2515,0.0,0.0,0.0,10.879,0.0,11.2209,11.3984,11.4912,11.4907,11.3984,11.4797,11.4407,11.2593,11.2516,11.1291,10.8906,10.7982,10.6713,10.4987,10.4217,10.3289,10.2404,10.1592,10.0284,9.8716,9.8716,9.7788,9.6283,9.6283,9.6283,9.6283,9.6283,9.6283,9.6283,0.0,0.0,0.0,0.0,0.0,0.0,0.0,0.0,0.0,0.0,0.0,0.0,0.0,0.0,0.0,0.0,0.0,0.0,6.1227,6.4414,6.7313,6.9756,7.4852,7.8516,8.0396,8.3177,8.5518,8.7334,8.7774,8.8068,8.828,8.8059,8.8647,8.9748,8.9169,8.9344,9.0032,8.9243,8.8178,8.6848,0.0,8.2398,8.0791,0.0,0.0,0.0,0.0,0.0,6.5605,6.7684,7.0084,7.2392,7.3395,7.4938,7.7096,8.0866,8.529,9.0094,9.5403,10.0289,10.4515,10.7482,10.8603,10.8603,10.7598,10.6515,10.44,9.975,9.5249,9.1402,8.8825,8.9398,9.1821,9.6711,10.2097,10.7405,11.1983,11.2791,11.2104,10.979,10.9713,10.9016,10.6905,10.7911,0.0,0.0,11.0598,11.1791,11.4797,11.572,11.5489,11.3984,11.4214,11.3214,11.0911,10.9598,10.89,10.8906,10.6795,10.5218,10.4217,10.3289,10.2097,10.0717,10.0486,9.9447,9.7827,9.7827,9.725,9.6283,9.6283,9.6283,9.6283,9.6283,9.6283,9.6283,0.0,0.0,0.0,0.0,0.0,0.0,0.0,0.0,0.0,0.0,0.0,0.0,0.0,0.0,0.0,0.0,0.0,0.0,0.0,6.2138,6.4047,6.6048,6.9162,7.1431,7.2716,7.4874,7.7113,7.9433,7.9433,8.0351,8.2031,8.1269,8.1746,8.3279,8.2847,8.3104,8.3801,8.2994,0.0,0.0,0.0,0.0,0.0,0.0,0.0,0.0,0.0,6.775,6.8454,7.064,7.3069,7.5438,7.7011,7.9208,8.2131,8.7132,9.1672,9.6288,10.1794,10.6097,10.9708,11.1912,11.1604,11.0098,10.7708,10.529,10.2097,9.6442,9.1941,8.8167,8.5478,8.6782,8.9513,9.3514,9.9596,10.5713,11.0983,11.2296,11.2406,11.1906,11.2016,11.1593,11.0016,11.0406,11.1406,0.0,11.2412,11.2912,11.5182,11.6105,11.6105,11.5099,11.5099,11.4104,11.1912,11.0214,10.9213,10.8906,10.7098,10.541,10.391,10.2981,10.1904,10.0596,0.0,9.9635,9.8096,9.8485,9.7711,9.6322,9.6673,9.6591,9.6283,9.6283,9.6283,9.6283,0.0,0.0,0.0,0.0,0.0,0.0,0.0,0.0,0.0,0.0,0.0,0.0,0.0,0.0,0.0,0.0,0.0,0.0,0.0,0.0,0.0,6.3802,6.3913,6.431,6.5111,6.5919,6.7717,7.0499,7.072,7.2555,7.5858,7.5241,7.5836,7.7304,7.7194,0.0,0.0,0.0,0.0,0.0,0.0,0.0,0.0,0.0,0.0,0.0,6.6405,6.856,7.1436,7.4554,7.6688,7.8523,8.1385,8.4555,8.8436,9.4283,9.8365,10.2217,10.7911,11.1214,11.3407,11.5105,11.3483,11.0516,10.69,10.2712,9.8062,9.2595,8.844,8.5209,8.3443,8.4747,8.7205,9.0552,9.5788,10.1909,10.8906,10.929,11.0214,11.3907,11.3214,11.2593,11.3093,11.2709,11.3209,11.5297,11.4797,11.472,11.5412,11.6105,11.6495,11.6297,11.6105,11.5297,11.3791,11.2099,11.0285,10.8713,10.7713,10.5982,10.3717,10.2789,10.2015,10.1092,0.0,0.0,9.8711,9.9678,9.8601,9.636,9.7211,9.7014,9.6283,9.6283,9.6283,9.6283,0.0,0.0,0.0,0.0,0.0,0.0,0.0,0.0,0.0,0.0,5.5732,5.6356,0.0,0.0,0.0,0.0,0.0,0.0,0.0,0.0,0.0,6.2946,6.3019,6.3423,6.428,6.5118,6.5772,6.6352,6.7687,6.8355,6.8378,6.8905,6.9676,7.0543,6.9896,0.0,0.0,0.0,0.0,0.0,0.0,0.0,0.0,0.0,0.0,0.0,6.6263,6.7707,7.0103,7.5772,7.9508,8.2526,8.6978,9.071,9.4484,9.975,10.3207,10.6285,11.0785,11.3407,11.5105,11.6105,11.3907,11.0208,10.5405,10.0481,9.4903,8.7705,8.5055,8.3289,8.0896,8.3551,8.8551,9.6057,10.0486,10.591,11.3989,11.5105,11.522,11.5989,11.6407,11.6484,11.5913,11.6407,0.0,0.0,11.6187,11.6105,11.6297,11.6413,11.6182,11.5489,11.4099,11.3209,11.2901,11.0516,10.8906,10.7905,10.5597,10.3987,10.2789,10.1899,10.1096,10.0293,10.1015,0.0,9.7865,9.9447,9.8601,9.636,9.7211,9.7014,9.6283,9.6283,9.6283,9.6283,0.0,0.0,0.0,0.0,0.0,0.0,0.0,5.4137,5.484,5.6051,5.6235,5.6681,5.7855,5.8002,0.0,0.0,0.0,0.0,0.0,0.0,0.0,0.0,0.0,0.0,6.3423,6.4671,6.5698,6.6549,0.0,6.751,6.8348,6.7474,6.7283,6.7614,6.7253,6.7063,6.6983,0.0,0.0,0.0,0.0,0.0,0.0,0.0,0.0,0.0,0.0,6.8313,7.0572,7.4948,7.9902,8.5219,9.0785,9.5172,9.9211,10.3905,10.7092,10.9901,11.3714,11.5907,11.7297,11.7215,11.3984,10.9098,10.2717,9.6942,9.0936,8.3743,8.19,8.1093,7.9438,8.2939,8.7748,9.2715,9.6749,10.2212,11.0714,11.1906,11.3214,11.6792,11.7479,11.7786,11.7792,11.7792,11.7594,11.7215,11.6797,11.649,11.649,11.649,11.6297,11.5913,11.4291,11.3214,11.2709,11.0598,10.8906,10.7713,10.5482,10.4102,10.3212,10.1899,10.1092,10.0712,10.1092,0.0,9.8947,10.0212,9.9211,9.7014,9.7865,9.7403,9.6283,9.6283,9.6283,9.6283,0.0,0.0,0.0,0.0,0.0,0.0,0.0,5.4546,5.517,5.6596,5.6963,5.7293,5.7923,5.8002,5.8002,0.0,0.0,0.0,0.0,0.0,0.0,0.0,0.0,0.0,0.0,0.0,0.0,6.693,6.6482,0.0,0.0,0.0,0.0,0.0,6.6512,6.6035,6.5288,6.5111,0.0,0.0,0.0,6.4774,0.0,0.0,0.0,0.0,0.0,6.8323,7.0404,7.3848,7.904,8.5153,9.1424,9.7288,10.2592,10.6097,10.9304,11.2498,11.5912,11.781,11.8578,11.7989,11.3599,10.7487,10.0404,9.3633,8.7047,8.0819,7.9512,7.9323,7.8638,8.2212,8.6094,8.856,9.221,9.7706,10.6208,10.8098,11.0791,11.6792,11.7984,11.8517,11.91,11.8484,11.8017,11.7786,11.699,0.0,11.649,11.649,11.649,11.649,11.4912,11.3599,11.2709,11.0906,10.9103,10.7405,10.579,10.4602,10.3602,10.2207,10.1515,10.1284,10.1284,0.0,0.0,10.1019,9.9899,9.7865,9.8519,9.7865,9.6552,9.636,9.6283,9.6283,0.0,0.0,0.0,0.0,0.0,0.0,0.0,5.5029,5.58,5.6669,5.7446,5.7929,5.7997,5.8002,5.8002,0.0,0.0,0.0,0.0,0.0,0.0,0.0,0.0,0.0,0.0,0.0,0.0,6.4433,6.5081,0.0,0.0,0.0,0.0,0.0,0.0,6.6035,6.5251,6.453,0.0,0.0,0.0,0.0,0.0,0.0,0.0,0.0,0.0,6.5971,6.7462,7.357,7.703,7.9871,8.6116,9.5254,10.391,10.4987,10.8714,11.3301,11.6708,11.7815,11.778,11.7795,11.2209,10.54,9.9981,9.1825,8.4089,7.9558,7.8634,7.86,7.8523,8.0789,8.4209,8.9013,9.2056,9.6788,10.5284,10.9208,11.2516,11.6182,11.8682,11.9792,11.9215,11.8985,11.8715,11.7902,11.699,0.0,11.649,11.649,11.649,11.649,11.4912,11.3599,11.2709,11.0291,10.8213,10.6515,10.5602,10.4294,10.2712,10.2597,10.2015,10.1284,10.1284,0.0,0.0,10.1019,10.0284,9.8678,9.8755,9.8211,9.7288,9.6557,9.6283,9.6283,0.0,0.0,0.0,0.0,0.0,0.0,5.355,5.4772,5.5873,5.6701,5.7483,5.8002,5.8002,5.8002,5.8002,0.0,0.0,0.0,0.0,0.0,0.0,0.0,0.0,0.0,0.0,0.0,6.4103,6.4103,6.4891,0.0,0.0,0.0,0.0,0.0,0.0,6.4604,6.3783,6.346,0.0,0.0,0.0,0.0,0.0,0.0,0.0,0.0,0.0,0.0,6.6797,6.9668,7.308,7.6372,7.8007,8.5704,9.522,10.0507,10.5384,11.02,11.5619,11.8518,11.982,11.8806,11.2786,10.5713,10.0101,9.1595,8.382,8.0054,7.8865,7.8673,7.9208,8.0554,8.2401,8.4939,8.617,8.9286,9.6283,9.9288,10.3789,11.1796,11.4484,11.6984,12.0298,12.01,11.9292,11.7902,11.699,0.0,11.649,11.649,11.6297,11.5797,11.4599,11.3286,11.2016,11.0483,10.879,10.7208,10.6285,10.4982,10.3405,10.2789,10.2092,10.1284,10.1284,0.0,0.0,10.1207,10.0284,9.8793,9.8793,9.798,9.6749,9.6437,9.6283,9.6283,0.0,0.0,0.0,0.0,0.0,5.2349,5.3403,5.473,5.5873,5.6701,5.7299,5.774,5.7966,5.7776,5.774,5.7966,0.0,0.0,0.0,0.0,0.0,0.0,0.0,0.0,0.0,0.0,6.3472,6.3729,6.4267,6.5111,0.0,0.0,6.4964,6.4928,0.0,0.0,0.0,0.0,0.0,0.0,0.0,0.0,0.0,0.0,0.0,0.0,0.0,0.0,0.0,0.0,0.0,7.3006,7.2709,7.7518,8.504,9.4013,10.1192,10.7412,11.3081,11.7483,12.0098,11.8714,11.2599,10.5405,9.9712,9.121,8.3628,8.0435,7.9092,7.875,7.9627,8.0512,8.1285,8.1862,8.2593,8.4978,9.0436,9.3287,9.8173,10.7295,10.979,11.3099,11.8798,11.9715,11.9215,11.7484,11.6792,0.0,11.649,11.649,11.6105,11.5297,11.4489,11.3214,11.1516,11.0406,10.9098,10.7713,10.6785,10.5515,10.391,10.3294,10.2404,10.1284,0.0,0.0,0.0,10.1015,10.0212,9.9139,9.8639,9.7673,9.6634,9.6399,9.6283,9.6283,0.0,0.0,0.0,0.0,0.0,0.0,5.4142,5.5065,5.5873,5.6701,5.6816,5.711,5.7923,5.7299,5.7147,5.7923,0.0,0.0,0.0,0.0,0.0,0.0,0.0,0.0,0.0,0.0,6.2034,6.2793,6.2829,6.3673,6.5288,6.45,6.4096,6.4096,0.0,0.0,0.0,0.0,0.0,0.0,0.0,0.0,0.0,0.0,0.0,0.0,0.0,0.0,0.0,0.0,0.0,0.0,0.0,7.2643,7.4788,8.5638,9.6505,10.5778,10.9305,11.3883,11.7514,11.6714,11.0796,10.3794,9.8673,9.0287,8.2905,8.0319,7.9092,7.875,7.9627,8.0512,8.1093,8.1093,8.3243,8.6359,9.059,9.4826,9.9096,10.3405,10.54,10.8516,11.3599,11.71,11.8413,11.6605,11.649,0.0,11.649,11.649,11.6105,11.5297,11.4489,11.3214,11.1516,10.979,10.8482,10.7713,10.6785,10.5515,10.391,10.391,10.2904,0.0,0.0,0.0,0.0,10.0404,10.0106,9.9913,9.8173,9.7519,9.7403,9.6591,9.6283,9.6283,0.0,0.0,0.0,0.0,0.0,0.0,0.0,5.3927,5.4882,5.5133,5.5653,5.6093,5.6314,5.6638,5.689,5.7147,0.0,0.0,0.0,0.0,0.0,0.0,0.0,0.0,0.0,0.0,6.171,6.1998,6.2536,6.3386,6.4463,6.3613,6.3539,6.4059,6.3466,6.3056,0.0,0.0,0.0,0.0,0.0,0.0,0.0,0.0,0.0,0.0,0.0,0.0,0.0,0.0,0.0,0.0,0.0,0.0,0.0,7.7889,8.6561,9.5357,9.972,10.4195,10.7087,10.5091,10.111,9.6654,9.3104,8.7325,8.2328,8.0977,7.9519,7.8942,8.0439,8.09,8.1477,8.2635,8.3978,8.5551,8.7436,9.2364,9.76,10.2404,10.9598,11.5504,11.8912,11.8102,11.7598,11.8187,11.7182,0.0,11.649,11.649,11.5913,11.4489,11.3599,11.2291,11.0598,11.0103,10.9103,10.7713,10.74,10.6097,10.391,10.3289,0.0,0.0,0.0,0.0,0.0,10.0216,9.9409,9.8327,9.837,9.7673,9.6788,9.7673,9.7634,9.7129,0.0,0.0,0.0,0.0,0.0,0.0,0.0,5.3555,5.4399,5.4399,5.4845,5.5396,5.5983,5.6235,5.6602,5.7183,0.0,0.0,0.0,0.0,0.0,0.0,0.0,0.0,0.0,6.075,6.1153,6.1153,6.2242,6.3086,6.3613,6.305,6.3092,6.3576,6.3056,6.2646,0.0,0.0,0.0,0.0,0.0,0.0,6.2358,0.0,0.0,0.0,0.0,0.0,0.0,0.0,0.0,0.0,0.0,0.0,0.0,0.0,7.8602,8.5256,9.1919,9.7309,10.0481,9.8364,9.5461,9.241,8.9703,8.5322,8.1708,8.1208,7.9712,7.9023,8.0785,8.1093,8.1439,8.2481,8.3632,8.4939,8.6363,9.1445,9.6977,10.2413,11.0583,11.6298,11.7617,11.6909,11.6903,11.8006,11.6481,0.0,11.6011,11.5985,11.5402,11.4011,11.3483,11.2214,11.0219,10.9911,10.8906,10.7208,10.6905,10.5597,10.3405,10.2789,0.0,0.0,0.0,0.0,0.0,10.0106,9.9062,9.7557,9.8096,9.748,9.6437,9.748,9.7711,9.7442,0.0,0.0,0.0,0.0,0.0,0.0,0.0,0.0,5.4326,5.4326,5.4326,5.4876,5.637,5.5983,5.6203,5.7709,0.0,0.0,0.0,0.0,0.0,0.0,0.0,0.0,0.0,5.9893,6.0303,6.0303,6.1912,6.2719,6.2719,6.2756,6.2793,6.2793,6.2793,6.2358,0.0,0.0,0.0,0.0,0.0,0.0,0.0,0.0,0.0,0.0,0.0,0.0,0.0,0.0,0.0,0.0,0.0,0.0,0.0,0.0,0.0,0.0,0.0,9.2068,9.6119,9.4654,9.2385,8.9936,8.751,8.3858,0.0,8.0938,7.9654,7.9011,8.0707,8.1073,8.1131,8.1246,8.2635,8.4547,8.7052,9.2052,9.7659,10.3598,10.918,11.2288,11.1506,11.4315,11.6186,11.6393,11.4796,0.0,11.5105,11.4988,11.4601,11.38,11.3707,11.2516,11.0103,10.9213,10.7905,10.6285,10.5405,10.4217,10.2597,10.2515,0.0,0.0,0.0,0.0,0.0,10.0106,9.9062,9.7519,9.7557,9.7053,9.6322,9.6437,9.6903,9.7403,0.0,0.0,0.0,0.0,0.0,0.0,0.0,0.0,0.0,0.0,5.3471,5.3618,5.3985,5.4992,5.5768,0.0,0.0,0.0,0.0,0.0,0.0,0.0,0.0,0.0,0.0,5.9086,5.949,5.949,6.1074,6.1887,6.1894,6.2505,6.2793,6.2793,6.2793,6.2358,0.0,0.0,0.0,0.0,0.0,0.0,0.0,0.0,0.0,0.0,6.2719,6.2939,0.0,0.0,0.0,0.0,0.0,0.0,0.0,0.0,7.0986,0.0,7.5345,0.0,8.2324,8.0912,8.0878,8.0992,0.0,7.9561,7.9161,7.9387,7.8943,7.8884,8.0101,8.075,8.1516,8.2789,8.3901,8.5275,8.7263,9.4719,10.2402,10.9001,11.1896,11.3186,11.2489,11.3611,11.4586,11.54,11.4496,11.401,11.4213,11.3594,11.281,11.2016,11.0793,10.9896,10.9208,10.7708,10.6521,10.541,10.4602,10.3597,10.2597,10.1899,0.0,0.0,0.0,0.0,10.0106,10.0106,9.9062,9.7557,9.8211,9.7596,9.648,9.775,9.7904,9.748,0.0,0.0,0.0,0.0,0.0,0.0,0.0,0.0,0.0,0.0,0.0,0.0,0.0,0.0,0.0,0.0,0.0,0.0,0.0,0.0,0.0,0.0,0.0,5.8002,5.8002,5.8792,5.919,5.919,6.045,6.1233,6.16,6.2034,6.2248,6.2212,6.1471,6.1111,0.0,0.0,0.0,0.0,6.1661,0.0,0.0,0.0,0.0,0.0,6.2248,6.2505,0.0,6.5148,6.5845,6.6139,0.0,0.0,0.0,0.0,6.9335,6.9989,7.0539,7.3802,7.6793,7.5706,7.6518,7.7562,7.7447,7.7278,7.7274,7.783,7.7503,7.7531,7.8906,7.9441,8.0201,8.1867,8.3488,8.6229,9.1066,9.7096,10.3482,11.0086,11.1898,11.3112,0.0,11.3883,11.3907,11.4483,0.0,11.2795,11.3208,11.2502,11.1613,11.0901,10.931,10.819,10.7795,10.6503,10.5186,10.3905,10.3482,10.2789,10.2015,10.1515,10.1284,0.0,0.0,0.0,9.9524,9.9952,9.887,9.7019,9.7865,9.7403,9.6399,9.7326,9.7596,9.7442,0.0,0.0,0.0,0.0,0.0,0.0,0.0,0.0,0.0,0.0,0.0,0.0,0.0,0.0,0.0,0.0,0.0,0.0,0.0,0.0,0.0,0.0,0.0,5.8002,5.8002,5.8688,5.9013,5.9013,6.0083,6.086,6.1416,6.1783,6.1857,6.1526,6.0046,5.9673,0.0,0.0,0.0,0.0,6.0927,0.0,0.0,0.0,0.0,0.0,0.0,0.0,0.0,6.5375,6.6299,6.6733,6.8084,0.0,0.0,0.0,0.0,0.0,6.8944,7.2254,7.5386,7.4566,7.5546,7.6696,7.6547,7.5902,7.5581,7.6452,7.6114,7.6174,7.7737,7.8429,7.9192,8.0553,8.3301,8.8146,9.6531,9.9554,10.3198,10.9202,11.0904,11.2407,11.4721,11.3993,11.3377,11.3396,0.0,11.1498,11.2103,11.1391,11.0489,10.9592,10.8008,10.6585,10.5707,10.5004,10.3785,10.2192,10.2116,10.1699,10.0882,10.0811,10.0896,0.0,0.0,0.0,9.9062,9.9639,9.8562,9.6552,9.7245,9.7014,9.6283,9.6283,9.6745,9.7211,0.0,0.0,0.0,0.0,0.0,0.0,0.0,0.0,0.0,0.0,0.0,0.0,0.0,0.0,0.0,0.0,0.0,0.0,0.0,0.0,0.0,5.8002,5.8002,5.8002,5.8002,5.8107,5.818,5.818,6.0346,6.1123,6.0633,6.2738,6.2958,6.1563,6.0633,5.9893,5.941,0.0,0.0,0.0,0.0,0.0,0.0,0.0,0.0,0.0,0.0,0.0,0.0,6.409,6.5381,6.6549,6.6806,0.0,0.0,0.0,0.0,0.0,6.952,7.1934,7.3683,7.2223,7.3417,7.4801,7.4112,7.4246,7.4753,7.5739,7.6256,7.6882,7.8057,8.0343,8.215,8.237,8.6954,9.3331,10.1498,10.3094,10.4791,10.8587,11.1015,11.1395,10.9087,11.1111,11.229,11.1583,0.0,11.1004,11.038,10.9618,10.8488,10.7005,10.5392,10.3788,10.2298,10.2116,10.1594,10.0616,9.9897,9.9473,9.9322,9.8654,9.9092,0.0,0.0,9.8883,9.9837,9.9255,9.8327,9.7326,9.7442,9.7014,9.6283,9.6283,9.636,9.6476,0.0,0.0,0.0,0.0,0.0,0.0,0.0,0.0,0.0,0.0,0.0,0.0,0.0,0.0,0.0,0.0,0.0,0.0,0.0,0.0,0.0,5.8002,5.8002,5.8002,5.8002,5.8431,5.8872,5.9318,6.0829,6.1857,6.2408,6.2628,6.2114,6.0896,5.9648,5.8908,5.8615,5.9863,0.0,0.0,0.0,0.0,0.0,0.0,0.0,0.0,0.0,0.0,0.0,0.0,6.5521,6.6586,6.6996,0.0,0.0,0.0,0.0,0.0,6.8612,7.055,7.2342,7.2011,7.4033,7.5862,7.5033,7.4731,7.4754,7.5206,7.5888,7.6797,7.8203,8.0673,8.3923,8.8293,9.2374,9.6773,10.18,10.2592,10.4011,0.0,0.0,10.9911,11.0204,11.1478,11.2102,0.0,0.0,0.0,11.001,10.9202,10.7797,10.5789,10.41,10.2302,10.0185,9.977,9.9556,9.9588,9.9203,9.9014,9.8977,9.8161,9.8412,9.9416,0.0,9.8074,9.8678,9.825,9.7596,9.6865,9.6865,9.6634,9.6283,9.6283,9.6283,9.6283,0.0,0.0,0.0,0.0,0.0,0.0,0.0,0.0,0.0,0.0,0.0,0.0,0.0,0.0,0.0,0.0,0.0,0.0,0.0,0.0,5.7813,5.7997,5.8002,5.8002,5.8002,5.8792,5.96,6.0413,6.16,6.2958,6.4353,6.2481,6.1153,6.034,5.8914,5.818,5.8107,5.9532,6.023,0.0,0.0,0.0,0.0,0.0,0.0,0.0,0.0,0.0,0.0,0.0,0.0,0.0,0.0,0.0,0.0,6.8391,6.8134,6.8061,6.8428,7.0029,7.1784,7.2562,7.4617,7.6555,7.69,7.6195,7.5747,7.6702,7.737,7.8185,7.9507,8.215,8.6636,9.4189,9.7613,10.0219,10.2789,10.3413,10.4698,10.8002,10.8406,10.9397,11.1882,11.2102,11.1808,0.0,0.0,0.0,10.9507,10.8699,10.711,10.4593,10.3182,10.131,9.8851,9.82,9.8086,9.8444,9.8444,9.8444,9.8444,9.7417,9.7503,9.8305,9.728,9.6984,9.7235,9.7241,9.6865,9.6283,9.6283,9.6283,9.6283,9.6283,9.6283,9.6283,0.0,0.0,0.0,0.0,0.0,0.0,0.0,0.0,0.0,0.0,0.0,0.0,0.0,0.0,0.0,0.0,0.0,0.0,0.0,0.0,5.722,5.7966,5.8002,5.8002,5.8002,5.8792,5.96,6.0413,6.2775,6.4347,6.5148,6.2732,6.1153,6.0376,5.949,5.8688,5.8076,5.8902,5.971,6.045,0.0,0.0,0.0,0.0,0.0,0.0,0.0,0.0,0.0,0.0,0.0,0.0,0.0,0.0,6.9038,6.9743,6.9412,6.9148,7.0646,7.1718,7.2599,7.3421,7.3788,7.4926,7.8678,7.8288,7.8206,8.2023,8.283,8.2904,8.3014,8.6876,9.1904,9.7814,10.1384,10.4588,10.7807,0.0,10.9801,11.0806,11.0917,11.099,11.1295,11.1284,0.0,0.0,0.0,0.0,10.7902,10.7011,10.5385,10.2999,10.2008,10.0403,9.8016,9.7943,9.7533,9.6867,9.6867,9.6867,9.6794,9.5258,9.5348,9.666,9.5045,9.5161,9.6453,9.6399,9.636,9.6283,9.6283,9.6283,9.6283,9.6283,9.6283,9.6283,0.0,0.0,0.0,0.0,0.0,0.0,0.0,0.0,0.0,0.0,0.0,0.0,0.0,0.0,0.0,0.0,0.0,0.0,0.0,5.6088,5.6926,5.7257,5.774,5.8002,5.8002,5.9275,6.0597,6.1875,6.3863,6.4751,6.4494,6.2518,6.0896,5.9636,5.9337,5.9049,5.8829,6.012,6.086,6.1227,6.2028,0.0,0.0,0.0,0.0,0.0,0.0,0.0,0.0,0.0,6.4524,6.6065,0.0,0.0,6.9596,0.0,6.9148,6.9038,6.9619,7.0756,7.2085,7.3384,7.4074,7.5535,7.9617,8.082,8.1803,8.4389,8.6105,0.0,8.7794,9.1464,9.5768,9.9925,10.3696,10.7194,10.99,11.0597,11.0891,11.1184,11.121,11.121,11.121,11.121,0.0,0.0,0.0,0.0,10.7021,10.6093,10.4504,10.2008,10.0686,9.9328,9.7906,9.7392,9.7016,9.6685,9.6685,9.6685,9.6649,9.5034,9.4867,9.5744,9.4147,9.4031,9.4951,9.4937,9.5194,9.5673,9.6122,9.6283,9.6283,9.6283,9.6283,9.6283,0.0,0.0,0.0,0.0,0.0,0.0,0.0,0.0,0.0,0.0,0.0,0.0,0.0,0.0,0.0,0.0,0.0,0.0,5.4363,5.5422,5.6156,5.6418,5.7189,5.774,5.7997,5.9312,6.0817,6.2432,6.4083,6.4494,6.3656,6.2261,6.1006,5.993,5.9673,5.971,6.0003,6.086,6.138,6.1637,6.2212,6.2572,0.0,0.0,0.0,0.0,0.0,0.0,0.0,0.0,6.4347,0.0,0.0,0.0,0.0,0.0,0.0,6.9222,6.8965,6.9699,7.094,7.2532,7.4103,7.6562,8.1415,8.3573,8.5445,8.8582,9.0152,9.1354,9.2638,9.4997,0.0,0.0,10.5285,10.8688,11.0891,11.121,11.121,11.121,11.121,11.121,11.121,11.1001,0.0,0.0,0.0,0.0,0.0,10.4687,10.3109,10.121,9.9548,9.819,9.7135,9.6612,9.6318,9.6318,9.6061,9.6098,9.6272,9.4923,9.4438,9.461,9.3499,9.328,9.3786,9.4258,9.4878,9.5571,9.5852,9.6107,9.6283,9.6283,9.6283,9.6283,0.0,0.0,0.0,0.0,0.0,0.0,0.0,0.0,0.0,0.0,0.0,0.0,0.0,0.0,0.0,0.0,0.0,0.0,5.4326,5.4399,5.4772,5.5548,5.6381,5.7183,5.7966,5.8792,6.0009,6.16,6.3252,6.3613,6.2756,6.1961,6.16,6.1526,6.0786,6.086,6.1563,6.0786,6.0896,6.16,6.1637,6.2108,0.0,0.0,0.0,0.0,0.0,0.0,0.0,0.0,6.4133,0.0,0.0,0.0,0.0,7.083,7.0727,6.9926,6.9112,6.8892,6.9295,7.094,7.3736,7.7855,8.436,8.6444,8.8858,9.5401,9.5474,9.508,9.7466,9.7273,0.0,10.2118,10.6108,10.9386,11.099,11.121,11.121,11.121,11.121,11.121,11.121,11.0498,0.0,0.0,0.0,0.0,0.0,10.2789,10.11,10.0283,9.8714,9.7099,9.553,9.5474,9.5492,9.5465,9.4666,9.4703,9.5465,9.4666,9.3859,9.3097,9.3004,9.2979,9.3114,9.456,9.5598,9.6222,9.5495,9.5663,9.6283,9.6283,9.6283,9.6283,0.0,0.0,0.0,0.0,0.0,0.0,0.0,0.0,0.0,0.0,0.0,0.0,0.0,0.0,0.0,0.0,0.0,0.0,5.355,5.41,5.4509,5.473,5.6082,5.6921,5.7147,5.8499,6.0009,6.16,6.2114,6.1924,6.1111,6.1447,6.1006,6.0003,6.2071,6.2481,6.1673,6.2591,6.2805,6.2505,6.3105,6.3135,6.2866,0.0,0.0,0.0,0.0,0.0,0.0,0.0,0.0,0.0,0.0,0.0,0.0,7.0477,7.0293,6.9926,6.9112,6.9295,7.0403,7.3142,7.6276,8.0396,8.6876,8.8519,9.0693,9.7787,9.8851,9.8741,9.9438,10.0806,0.0,10.3413,10.6486,10.9386,11.099,11.121,11.121,11.121,11.121,11.1001,11.0414,11.0083,0.0,0.0,0.0,0.0,0.0,10.1394,9.9989,9.8677,9.7052,9.5978,9.5511,9.4923,9.4666,9.4666,9.441,9.4703,9.5465,9.407,9.3345,9.3061,9.2441,9.2159,9.2218,9.3249,9.4095,9.4786,9.509,9.5663,9.6283,9.6283,9.6283,9.6283,0.0,0.0,0.0,0.0,0.0,0.0,0.0,0.0,0.0,0.0,4.9816,5.0624,0.0,0.0,0.0,0.0,0.0,0.0,0.0,5.366,5.4064,5.4399,5.5647,5.6638,5.7257,5.8535,5.9532,6.0168,6.0829,6.0896,6.0413,6.1894,6.2254,6.1765,6.4714,6.5087,6.3619,6.461,6.4567,6.3857,6.4714,6.4751,6.434,0.0,0.0,0.0,0.0,0.0,0.0,0.0,0.0,0.0,6.759,6.8935,7.0323,7.0146,6.9853,6.9596,6.9412,6.9743,7.1027,7.4903,7.8544,8.3177,9.062,9.3776,9.6676,10.2091,10.2715,10.2291,10.2715,10.3413,0.0,10.5212,10.7598,10.9716,11.099,11.121,11.121,11.121,11.0891,11.0487,11.001,10.9103,0.0,0.0,0.0,0.0,0.0,10.0099,9.8751,9.7456,9.6162,9.5208,9.4547,9.4079,9.3822,9.3822,9.3455,9.3749,9.451,9.3556,9.2905,9.2537,9.2024,9.1992,9.2279,9.2468,9.3148,9.415,9.4573,9.52,9.5887,9.6174,9.6283,9.6283,0.0,0.0,0.0,0.0,0.0,0.0,0.0,0.0,0.0,0.0,4.8972,4.9784,0.0,0.0,0.0,0.0,0.0,0.0,0.0,0.0,5.3544,5.4363,5.5249,5.6429,5.7966,5.8719,5.8719,5.8002,5.9532,6.0303,6.034,6.2885,6.453,6.5398,6.7827,6.8017,6.6512,6.6402,6.5919,6.5258,6.6145,6.6476,6.6402,6.6476,0.0,0.0,0.0,0.0,0.0,0.0,0.0,0.0,6.7547,6.8318,6.9038,6.9779,6.9486,6.9075,6.9889,7.0264,7.1615,7.6518,8.1216,8.6803,9.5217,10.0686,10.4614,10.69,10.6302,10.5705,10.6607,10.5495,10.5285,10.7498,10.9103,11.0304,11.099,11.1184,11.11,11.099,11.0414,10.9911,10.969,10.7708,0.0,0.0,0.0,0.0,0.0,9.9044,9.7429,9.6612,9.5721,9.4584,9.3116,9.3015,9.2978,0.0,9.217,9.2207,9.2978,9.2978,9.2537,9.1803,9.1803,9.2229,9.281,9.2098,9.267,9.4005,9.4005,9.445,9.5183,9.5946,9.6218,9.6222,0.0,0.0,0.0,0.0,0.0,0.0,0.0,0.0,0.0,0.0,0.0,0.0,0.0,0.0,0.0,0.0,0.0,0.0,0.0,0.0,5.3544,5.4363,5.5794,5.7005,5.7966,5.818,5.818,5.8002,5.8982,5.9447,5.9526,6.2622,6.453,6.5398,6.7827,6.8017,6.6476,6.5845,6.5081,6.4463,6.5925,6.6109,6.5625,6.6256,6.5888,0.0,0.0,0.0,0.0,0.0,0.0,0.0,6.8385,6.8745,6.8928,6.9112,6.9038,6.9075,6.9889,7.1475,7.4265,7.9764,8.7545,9.4997,9.9448,10.2705,10.5007,10.5484,10.689,10.8295,10.9103,10.9386,10.9606,10.9507,11.0304,11.0817,11.0304,11.0817,11.0696,10.9496,10.9679,10.9297,10.7414,10.6717,0.0,0.0,0.0,0.0,9.9695,9.7933,9.6575,9.5795,9.4363,9.3446,9.3088,9.2427,9.206,0.0,9.1886,9.1913,9.206,9.206,9.1987,9.1803,9.1803,9.1893,9.2027,9.1857,9.2374,9.3225,9.3225,9.3684,9.4424,9.516,9.5418,9.5522,0.0,0.0,0.0,0.0,0.0,0.0,0.0,0.0,0.0,0.0,0.0,0.0,0.0,0.0,0.0,0.0,0.0,0.0,0.0,0.0,5.3733,5.4919,5.6156,5.7183,5.7966,5.8002,5.8002,5.8002,5.8431,5.9013,5.982,6.2732,6.4941,6.6549,6.8965,6.8928,6.7033,6.6629,6.6225,6.5938,6.7173,6.7614,6.7644,6.8054,6.7247,6.5809,0.0,0.0,0.0,0.0,0.0,0.0,0.0,0.0,6.8385,6.8781,6.8892,6.9222,7.0807,7.3303,7.7333,8.5416,9.2391,9.8237,10.1798,10.3586,10.4908,10.6093,10.7587,10.8909,10.9312,11.0083,11.0597,11.0597,11.0597,11.0498,11.0105,11.001,10.9705,10.8909,10.8516,10.7781,10.6497,10.5311,0.0,0.0,0.0,9.9228,9.8007,9.6428,9.518,9.4363,9.3529,9.2905,9.2464,9.2024,9.1803,9.1803,9.1803,9.1803,9.1803,9.1803,9.1803,9.1803,9.1803,9.1803,9.1803,9.1803,9.2064,9.2476,9.2834,9.3225,9.3655,9.4398,9.4655,9.4743,0.0,0.0,0.0,0.0,0.0,0.0,0.0,0.0,0.0,0.0,0.0,0.0,0.0,0.0,0.0,0.0,0.0,0.0,0.0,0.0,0.0,5.5328,5.6308,5.711,5.7776,5.7923,5.8002,5.8002,5.8002,5.8951,6.0854,6.3068,6.5534,6.8214,7.0066,6.9772,6.7877,6.7474,6.7223,6.715,6.7944,6.8745,6.9486,6.9486,6.8311,6.6703,0.0,0.0,0.0,0.0,0.0,0.0,0.0,0.0,6.8024,6.8531,6.8678,6.9192,7.1468,7.5241,8.0885,9.0656,9.5621,9.9044,10.2715,10.3696,10.4504,10.6717,10.7881,10.8615,10.8799,10.9312,11.001,11.0707,11.0193,10.969,10.958,10.8993,10.8505,10.8211,10.69,10.5909,10.5616,10.3586,0.0,0.0,0.0,9.7392,9.6722,9.5034,9.3786,9.3116,9.2941,9.2537,9.1812,9.1803,9.173,9.1583,9.1583,9.1583,9.1583,9.1583,9.1657,9.1803,9.1803,9.1803,9.1803,9.1803,9.1803,9.1848,9.2515,9.2806,9.2875,9.3626,9.3914,9.3935,0.0,0.0,0.0,0.0,0.0,0.0,0.0,0.0,0.0,0.0,4.8301,0.0,0.0,0.0,0.0,0.0,0.0,0.0,0.0,0.0,0.0,5.4546,5.6009,5.6847,5.6963,5.7629,5.8002,5.8002,5.8002,5.9532,6.2499,6.3576,6.6115,6.9743,6.9405,6.9038,6.8598,6.6506,6.5228,6.4653,6.5441,6.6249,6.699,6.699,6.7217,0.0,0.0,0.0,0.0,0.0,6.8745,0.0,0.0,0.0,6.8605,6.8024,6.7841,6.8244,6.9963,7.69,8.5151,9.151,9.6052,9.9438,10.1394,10.2899,10.421,10.5191,10.6717,10.8002,10.8688,10.8909,10.8982,10.9092,10.9019,10.8688,10.8002,10.7781,10.7194,10.5778,10.4798,10.3707,10.2312,10.12,10.0319,0.0,9.7823,9.6795,9.6722,9.452,9.3198,9.3088,9.2354,9.1913,9.1803,9.1803,9.1436,9.0767,9.0767,9.0767,9.0767,9.0767,9.1143,9.1803,9.1803,9.1803,9.1803,9.1803,9.1803,9.1822,9.1912,9.1965,9.2044,9.2842,9.3161,9.3225,0.0,0.0,0.0,0.0,0.0,0.0,0.0,0.0,0.0,0.0,0.0,4.8301,0.0,0.0,0.0,0.0,0.0,0.0,0.0,0.0,0.0,5.4363,5.5097,5.5862,5.678,5.7147,5.7556,5.8002,5.8002,6.0126,6.4224,6.4597,6.691,7.0727,6.9926,6.9339,6.8745,6.6316,6.5111,6.4787,6.5148,6.6035,6.718,6.718,6.74,0.0,0.0,0.0,0.0,0.0,0.0,6.8244,6.8244,0.0,0.0,0.0,6.8024,6.9412,7.4228,7.9625,8.5498,9.2134,9.6135,9.8961,10.099,10.2385,10.3513,10.4284,10.4981,10.5909,10.7183,10.7488,10.7488,10.7488,10.6989,10.6586,10.6192,10.5799,10.5102,10.3906,10.2999,10.2091,10.0907,10.0099,9.9292,0.0,9.6933,9.5841,9.5364,9.3455,9.2354,9.2354,9.1987,9.1803,9.1803,9.1363,9.073,8.9913,8.9913,8.9913,8.9913,8.9913,9.0363,9.1143,9.1143,9.1363,9.1803,9.1803,9.1803,9.1803,9.1803,9.1803,9.1821,9.2212,9.2322,9.2382,0.0,0.0,0.0,0.0,0.0,0.0,0.0,0.0,0.0,0.0,0.0,0.0,0.0,0.0,0.0,0.0,0.0,0.0,0.0,0.0,0.0,5.4064,5.4473,5.528,5.6455,5.689,5.7409,5.8002,5.8217,6.0823,6.5625,6.6022,6.8488,7.2488,7.1248,7.0257,6.9369,6.6946,6.6029,6.6139,6.5331,6.5962,6.74,6.7627,0.0,6.7737,0.0,0.0,0.0,0.0,0.0,0.0,0.0,6.7987,0.0,0.0,0.0,6.9963,7.6247,8.0183,8.4075,9.0785,9.4896,9.7906,10.0293,10.1688,10.2595,10.3403,10.3586,10.388,10.4991,10.5311,10.5505,10.5505,10.4714,10.421,10.421,10.3513,10.2789,10.2191,10.12,10.0293,9.9475,9.8658,9.785,9.7062,9.5685,9.462,9.4042,9.2611,9.1803,9.1803,9.1583,9.151,9.151,9.0473,8.9776,8.94,8.9179,8.9115,8.9115,8.9115,8.9409,8.9996,9.04,9.1069,9.1803,9.1803,9.1803,9.1803,9.1803,9.1803,9.1803,9.1803,9.1803,9.1803,0.0,0.0,0.0,0.0,0.0,0.0,0.0,0.0,0.0,0.0,0.0,0.0,0.0,0.0,5.1096,5.1872,0.0,0.0,0.0,0.0,0.0,5.3251,5.473,0.0,5.5658,5.7158,5.796,5.8002,5.8756,6.1655,6.6476,6.8017,7.1277,7.5763,7.3413,7.1938,7.1013,6.8605,6.8024,6.8451,6.5375,0.0,0.0,0.0,0.0,0.0,0.0,0.0,0.0,0.0,0.0,0.0,0.0,0.0,0.0,0.0,0.0,0.0,7.1945,7.6357,8.1166,8.6142,9.1555,9.6264,9.8658,10.0393,10.1798,10.2595,10.2815,10.2595,10.1908,10.2385,10.2879,10.2879,10.2191,10.1688,10.1688,10.099,10.0513,10.0393,9.9044,9.776,9.6979,9.6162,9.5354,9.4566,9.3712,9.3198,9.3161,9.2281,9.1803,9.1803,9.1069,9.0656,9.0656,8.9124,8.8674,8.94,8.8638,8.828,8.828,8.828,8.828,8.8426,8.9922,9.1069,9.1803,9.1803,9.1803,9.1803,9.1803,9.1803,9.1803,9.1803,9.1803,9.1803,0.0,0.0,0.0,0.0,0.0,0.0,0.0,0.0,0.0,0.0,0.0,0.0,0.0,5.0288,5.1132,5.1945,5.2742,0.0,0.0,0.0,0.0,5.3953,5.5029,5.5836,5.6345,5.6926,5.7477,5.8002,5.829,6.0927,6.5772,6.7393,7.0146,7.3744,7.2899,7.2342,7.1828,6.8385,6.7106,0.0,0.0,0.0,0.0,0.0,0.0,0.0,0.0,0.0,0.0,0.0,0.0,0.0,0.0,0.0,0.0,6.7767,6.8435,6.9713,7.1908,7.5689,7.9955,8.3756,8.8564,9.2868,9.4813,9.7273,9.9265,9.9558,9.9979,10.0309,9.9989,10.0613,10.1017,10.0503,10.0089,9.9952,9.9952,9.9695,9.9145,9.8117,9.7493,9.6612,9.529,9.4887,9.4593,9.4309,9.3565,9.2868,9.2281,9.195,9.1326,9.0289,9.0473,9.0106,8.9087,8.85,8.8096,8.7858,8.7573,8.7427,8.7427,8.7427,8.772,8.8243,8.8793,8.9519,9.0289,9.0803,9.1033,9.1069,9.1583,9.1803,9.1803,9.1803,9.1803,9.1803,0.0,0.0,0.0,0.0,0.0,0.0,0.0,0.0,0.0,0.0,0.0,0.0,0.0,0.0,5.1536,5.2344,5.3146,5.3586,5.3586,5.4363,5.4808,5.4808,5.5579,5.6235,5.6774,5.6811,5.7183,5.8002,5.8002,6.0236,6.4481,6.6409,6.8869,7.1688,7.1688,7.2459,7.3487,0.0,0.0,6.9559,0.0,0.0,6.9309,0.0,0.0,0.0,0.0,0.0,0.0,0.0,0.0,0.0,0.0,0.0,0.0,0.0,6.8648,6.9926,7.0991,7.4074,7.7855,8.1664,8.5224,8.8647,9.195,9.4336,9.6071,9.6915,9.753,9.807,9.8594,9.8484,9.83,9.8291,9.785,9.7483,9.7483,9.7483,9.7089,9.6025,9.5878,9.5364,9.4042,9.3896,9.3786,9.3492,0.0,0.0,9.184,9.1546,9.0665,8.9042,8.9519,8.916,8.7802,8.7802,8.7537,8.6986,8.6986,8.6986,8.6986,8.6986,8.728,8.7802,8.7802,8.8418,8.9473,9.0289,9.0583,9.0693,9.1473,9.1803,9.1803,9.1803,9.1803,9.1803,0.0,0.0,0.0,0.0,0.0,0.0,0.0,0.0,0.0,0.0,0.0,0.0,0.0,0.0,0.0,5.3214,5.399,5.4436,5.4436,5.5181,5.5622,5.5622,0.0,0.0,0.0,5.6853,5.722,5.8002,5.8002,5.9606,6.2793,6.5258,6.7694,7.0007,7.0073,7.2283,7.5836,0.0,7.4522,7.5763,0.0,7.1101,7.2782,0.0,0.0,0.0,7.428,7.3883,0.0,0.0,0.0,0.0,0.0,0.0,0.0,0.0,0.0,6.8965,0.0,0.0,0.0,7.958,8.1379,8.3699,9.0087,9.1519,9.2253,9.4795,9.5327,9.5832,9.7503,9.5851,9.4786,9.6355,9.529,9.4309,9.4309,9.4309,9.4309,9.4272,9.4272,9.3942,9.3125,9.3042,9.2721,9.1849,9.1776,9.1739,9.173,9.0959,8.9776,8.8243,8.8169,8.7802,8.7023,8.6986,8.6986,8.6986,8.6986,8.6986,8.6986,8.6986,8.6986,8.6986,8.6986,8.7904,8.94,9.0216,9.051,9.062,9.14,9.173,9.1767,9.1767,9.1776,9.1803,0.0,0.0,0.0,0.0,0.0,0.0,0.0,0.0,0.0,0.0,0.0,0.0,0.0,5.2894,5.4069,5.4882,5.5139,5.5254,5.5254,5.6014,5.6455,5.6455,5.7226,5.7666,5.7666,5.7666,5.7776,5.8002,5.8002,5.9061,6.1111,6.3613,6.5748,6.7614,6.9919,7.1241,7.1651,7.005,0.0,7.5689,7.1101,7.1571,0.0,0.0,0.0,0.0,0.0,7.4103,7.4177,0.0,7.3553,7.3112,0.0,0.0,0.0,0.0,0.0,0.0,6.9222,0.0,0.0,0.0,0.0,0.0,8.2341,8.403,8.604,9.0216,9.1088,9.1932,9.4786,9.4263,9.3565,9.4006,9.4189,9.4309,9.4309,9.4309,9.4079,9.3492,9.3418,9.3088,9.2244,9.217,9.206,0.0,9.1253,9.0693,9.0106,8.8748,8.8051,8.8206,8.7655,8.7243,8.6986,8.6986,8.6986,8.6986,8.6986,8.6986,8.6986,8.6986,8.6986,8.6986,8.6986,8.7243,8.772,8.8528,8.8867,8.894,8.9739,9.0436,9.0913,9.0913,9.1289,9.1803,0.0,0.0,0.0,0.0,0.0,0.0,0.0,0.0,0.0,0.0,0.0,0.0,5.2826,5.4148,5.5102,5.5548,5.591,5.6093,5.6093,5.6859,5.7179,5.6872,5.7601,5.7684,5.7061,5.7325,5.7337,0.0,0.0,0.0,0.0,0.0,0.0,0.0,6.7131,6.8555,6.9015,0.0,0.0,0.0,7.2635,0.0,0.0,7.6159,7.6423,0.0,0.0,0.0,7.8243,7.6893,7.5755,0.0,0.0,0.0,0.0,0.0,0.0,0.0,0.0,0.0,0.0,7.4404,0.0,0.0,7.9001,7.9984,8.1334,8.5518,8.6913,8.8271,9.1216,9.1363,9.1289,9.195,9.2464,9.2868,9.3207,9.3244,9.3088,9.2611,9.2574,9.2244,9.1363,9.1583,9.151,9.0849,9.0996,9.0583,8.9473,8.8197,8.7573,8.7692,8.7243,8.6986,8.6986,8.6986,8.6986,8.6986,8.6986,8.6986,8.6986,8.6986,8.6986,8.6986,8.6986,8.6986,8.7023,8.75,8.7912,8.828,8.9069,8.9877,9.0583,9.0583,9.1106,9.1803,0.0,0.0,0.0,0.0,0.0,0.0,0.0,0.0,0.0,0.0,5.1982,5.3157,5.4766,5.5506,5.5915,5.5989,5.6503,5.6852,5.6921,5.753,5.7607,5.6932,5.7516,5.7173,5.5745,5.6342,5.6367,0.0,0.0,0.0,0.0,0.0,0.0,0.0,0.0,6.5093,6.7143,0.0,0.0,7.2312,7.4845,7.7047,0.0,0.0,8.2268,0.0,8.3353,8.3609,8.3051,7.991,7.7223,0.0,0.0,0.0,0.0,0.0,7.1879,0.0,0.0,0.0,0.0,0.0,0.0,0.0,7.7973,7.7994,7.806,8.1158,8.292,8.4719,8.7325,8.7876,8.8353,8.9592,9.0106,9.0656,9.1546,9.1657,9.162,9.1546,9.1546,9.1253,9.0546,9.1106,9.0959,8.951,9.062,9.0702,8.9069,8.8418,8.7647,8.6766,8.6803,8.6803,8.6729,8.6803,8.6876,8.6876,8.6949,8.6986,8.6986,8.6986,8.6986,8.6986,8.6986,8.6986,8.6986,8.6986,8.7427,8.8133,8.8849,8.9693,9.0473,9.0473,9.0987,9.1693,5.2774,0.0,0.0,0.0,0.0,0.0,0.0,0.0,0.0,0.0,5.495,5.6486,5.8095,5.7813,5.7776,5.8425,5.7522,5.7109,5.7748,5.7371,5.704,5.6906,5.7034,5.6682,5.5731,5.5855,5.5819,0.0,0.0,0.0,0.0,0.0,0.0,0.0,0.0,0.0,6.3967,0.0,0.0,6.9883,7.2936,0.0,8.0637,8.1782,8.259,8.3353,8.4792,8.4903,8.3976,0.0,7.8867,7.6518,0.0,0.0,0.0,0.0,0.0,0.0,0.0,0.0,0.0,0.0,0.0,0.0,7.3472,7.4691,7.69,7.8883,7.9543,8.0901,8.4609,8.582,8.593,8.4967,8.6986,8.9197,9.0629,9.084,9.0583,8.9959,8.9877,8.9803,8.9657,8.9767,8.973,8.9436,8.9078,8.8206,8.66,8.6949,8.6582,8.5123,8.571,8.571,8.5078,8.571,8.604,8.6049,8.6693,8.6986,8.6986,8.6986,8.6986,8.6986,8.6986,8.6986,8.6986,8.6986,8.7096,8.7243,8.7427,8.8381,8.962,8.962,9.0143,9.0913,5.2674,0.0,0.0,0.0,0.0,0.0,0.0,0.0,5.4221,5.5422,5.7,5.8462,5.9673,5.9092,5.8756,5.9153,5.8142,5.7449,5.7449,5.7097,5.6556,5.5794,5.6108,5.595,5.5177,5.5524,5.5511,5.5145,0.0,0.0,0.0,0.0,0.0,0.0,0.0,0.0,6.292,0.0,6.6997,6.9295,7.3736,0.0,8.1224,8.3222,8.4756,8.5958,8.717,8.6803,8.5371,8.2553,8.104,0.0,0.0,7.5204,7.5395,0.0,7.4581,7.4911,0.0,0.0,0.0,7.5652,0.0,0.0,0.0,7.3377,7.3817,7.6232,7.613,7.6533,7.9764,8.0681,8.1085,8.1525,8.3287,8.5159,8.6766,8.8381,8.9409,8.94,8.9042,8.8638,8.8225,8.8923,8.94,8.94,8.7912,8.682,8.6407,8.6407,8.5857,8.4646,8.4976,8.5013,8.4609,8.538,8.5792,8.5792,8.6628,8.6986,8.6986,8.6986,8.6986,8.6986,8.6986,8.6986,8.6986,8.6986,8.6986,8.6986,8.6986,8.7968,8.94,8.94,9.0179,9.1253,5.2344,0.0,0.0,0.0,0.0,0.0,0.0,0.0,5.624,5.7367,5.8607,5.981,6.0768,0.0,0.0,5.9581,5.8226,5.7335,5.7316,5.6781,5.5907,5.4634,5.5166,5.5134,5.4406,5.4981,5.4977,5.4406,0.0,0.0,0.0,0.0,0.0,0.0,0.0,6.0798,6.3264,6.3174,0.0,6.9958,0.0,7.8069,8.0498,8.4324,8.6479,8.7557,8.8645,8.8469,8.717,8.3801,0.0,8.2986,7.7884,7.7892,0.0,0.0,0.0,0.0,0.0,0.0,0.0,0.0,0.0,7.5733,0.0,0.0,0.0,7.403,7.3406,7.3156,7.5249,7.5652,7.624,7.8083,7.958,8.093,8.206,8.4857,8.7178,8.8115,8.7537,8.6848,8.6362,8.7344,8.8078,8.8225,8.6444,8.5637,8.628,8.5857,8.5131,8.4168,8.4278,8.4278,8.4132,8.5086,8.5572,8.5572,8.6371,8.6839,8.6986,8.6693,8.6729,8.6986,8.6656,8.6729,8.6986,8.6839,8.6876,8.6986,8.6986,8.7904,8.9179,8.9326,9.0216,9.1363,5.3067,5.2491,0.0,0.0,0.0,0.0,0.0,0.0,5.7477,5.9716,6.0135,6.0833,0.0,0.0,0.0,0.0,0.0,0.0,5.8675,0.0,5.4772,5.463,5.4672,5.4378,5.3636,5.371,5.3719,5.3611,0.0,0.0,0.0,0.0,0.0,0.0,5.9838,6.1958,6.4931,6.4785,6.7486,0.0,7.3878,7.5431,0.0,8.3479,8.5243,8.4787,8.6993,8.884,8.9592,0.0,8.4866,8.5058,0.0,8.0653,7.9882,0.0,0.0,0.0,0.0,0.0,0.0,0.0,8.0416,0.0,0.0,0.0,7.5784,7.3296,0.0,7.2789,7.3788,0.0,0.0,7.3413,7.646,7.8662,7.8096,8.0188,8.2398,8.3895,8.3361,8.3141,8.3756,8.3324,8.3324,8.4042,8.383,8.3711,8.3785,8.438,8.4058,8.2525,8.3169,8.3206,8.248,8.3985,8.4756,8.4756,8.5563,8.6297,8.6949,8.5518,8.5628,8.6913,8.5481,8.5665,8.6949,8.6224,8.6371,8.6986,8.6986,8.7537,8.8426,8.9143,8.951,8.9877,5.3049,5.292,0.0,0.0,0.0,0.0,0.0,0.0,6.0029,6.1521,6.2069,6.2928,0.0,0.0,0.0,0.0,0.0,5.7997,0.0,0.0,5.5882,5.5893,5.5458,5.5281,5.5421,5.4997,5.4794,5.4794,5.5513,0.0,0.0,0.0,0.0,0.0,5.9387,6.1553,6.4935,0.0,6.6659,0.0,0.0,0.0,0.0,8.2558,8.5692,8.6556,8.7586,8.8639,8.908,0.0,8.5935,0.0,0.0,0.0,0.0,0.0,0.0,0.0,0.0,0.0,0.0,0.0,0.0,0.0,7.6195,0.0,7.425,0.0,0.0,0.0,0.0,0.0,0.0,0.0,7.3927,7.5102,7.5212,7.6093,7.8222,8.2223,0.0,0.0,8.1921,8.1277,8.113,8.1958,8.1995,8.1811,8.1342,8.2517,8.2663,8.1525,8.2296,8.2553,8.2194,8.3324,8.3903,8.3903,8.4719,8.527,8.5591,8.4894,8.4967,8.5591,8.538,8.5673,8.6297,8.6444,8.6693,8.6986,8.6986,8.75,8.8243,8.8564,8.9298,9.0179,5.2726,0.0,0.0,0.0,0.0,0.0,0.0,0.0,0.0,0.0,0.0,0.0,6.5785,6.3877,0.0,0.0,6.2221,6.0312,0.0,0.0,5.7329,0.0,0.0,0.0,0.0,5.6181,5.5902,5.5699,5.6452,5.69,0.0,0.0,0.0,0.0,0.0,6.2093,6.5742,0.0,6.7511,7.1463,7.2361,7.4195,7.6911,8.1936,8.5545,8.7849,8.7498,8.7794,8.8013,8.6034,8.6682,0.0,8.5112,0.0,0.0,0.0,0.0,0.0,8.1232,0.0,0.0,0.0,0.0,0.0,0.0,0.0,0.0,0.0,0.0,0.0,0.0,0.0,0.0,0.0,0.0,7.3046,7.3604,7.3494,7.4999,7.9368,0.0,0.0,0.0,7.947,7.936,7.9939,7.9976,7.9837,7.9478,8.0579,8.1158,8.1004,8.1562,8.1966,8.2194,8.2986,8.3381,8.3418,8.3976,8.438,8.4572,8.4132,8.4168,8.4609,8.4976,8.5388,8.5865,8.6444,8.6803,8.6986,8.6986,8.7353,8.7912,8.8133,8.9078,9.0289,5.2212,5.2225,0.0,0.0,0.0,0.0,0.0,0.0,0.0,0.0,0.0,0.0,0.0,0.0,0.0,0.0,0.0,6.23,6.227,0.0,5.8712,0.0,0.0,5.7171,0.0,5.6418,5.6418,5.5699,5.6452,5.7171,0.0,0.0,0.0,0.0,6.1612,6.4498,6.8218,6.8698,7.1609,7.5855,7.5661,7.8219,8.2106,0.0,8.396,8.6968,8.5749,0.0,0.0,8.6077,8.7135,0.0,0.0,0.0,0.0,0.0,0.0,0.0,0.0,0.0,0.0,8.1203,0.0,0.0,0.0,0.0,7.8185,0.0,0.0,0.0,0.0,0.0,0.0,0.0,0.0,0.0,0.0,7.3046,7.2899,7.3861,0.0,0.0,0.0,7.7399,7.7391,7.7428,7.7428,7.7766,7.8589,7.8699,7.9433,8.093,8.104,8.1415,8.2194,8.2986,8.3381,8.3381,8.3418,8.3866,8.4535,8.2994,8.3141,8.4572,8.3793,8.4344,8.5792,8.5829,8.6297,8.6986,8.6986,8.7023,8.7133,8.7912,8.8711,8.9546,5.2157,0.0,0.0,0.0,0.0,0.0,0.0,5.9649,0.0,0.0,0.0,0.0,0.0,6.9488,6.9631,0.0,0.0,6.7127,6.6102,6.4657,0.0,0.0,0.0,6.1637,0.0,0.0,5.9641,5.7897,5.8143,5.838,5.8616,5.8127,0.0,0.0,0.0,6.4235,6.7441,0.0,0.0,0.0,0.0,8.075,8.3855,0.0,0.0,8.5383,8.4955,8.5574,0.0,8.6287,8.683,8.7518,8.6973,8.6202,8.5479,8.5382,8.5062,0.0,0.0,0.0,8.6582,8.3059,0.0,0.0,0.0,0.0,0.0,0.0,0.0,0.0,0.0,0.0,0.0,0.0,0.0,7.334,0.0,7.0513,7.0007,7.1901,7.3993,7.5204,0.0,0.0,7.527,7.4213,7.414,7.425,7.4551,7.6093,7.7443,7.8537,7.9617,8.0571,8.1415,8.1664,8.2068,8.2627,8.2627,8.2737,8.2994,8.2451,8.2488,8.3067,8.3838,8.449,8.5086,8.6151,8.6766,8.6986,8.6986,8.6986,8.7023,8.7316,8.8271,8.9583,5.2731,0.0,0.0,0.0,0.0,0.0,0.0,0.0,0.0,0.0,6.8685,0.0,7.3713,0.0,7.3883,0.0,7.315,7.1187,6.8876,6.8312,0.0,6.4715,6.5358,0.0,0.0,6.3169,6.2212,5.9394,0.0,6.0206,6.0182,5.9167,5.9911,6.2134,6.3135,6.4918,6.7444,7.1233,7.3747,0.0,0.0,8.2509,0.0,0.0,8.4614,8.4614,0.0,8.4935,8.5395,8.5657,8.6214,8.6754,8.6461,8.5983,8.5564,8.5868,8.5653,8.5515,8.6367,8.7206,0.0,8.4857,8.3875,0.0,8.0078,0.0,0.0,0.0,0.0,0.0,0.0,0.0,0.0,7.6673,7.4955,7.2833,0.0,6.8935,0.0,7.0243,7.2334,7.3626,7.3678,7.3927,7.3516,7.2158,7.1791,7.1762,0.0,0.0,7.5763,7.6848,7.8516,7.9918,8.1004,8.1004,8.1415,8.2194,8.2194,8.2194,8.2194,8.2194,8.2194,8.2304,8.3911,8.4454,8.4307,8.6215,8.6839,8.6591,8.6876,8.6986,8.6986,8.6986,8.8005,8.962,5.3881,0.0,0.0,0.0,5.5446,0.0,0.0,0.0,6.6552,0.0,7.1864,7.4605,7.686,7.6454,7.6352,7.7096,7.6454,0.0,7.0917,7.1932,0.0,0.0,6.7117,6.6508,6.2864,6.486,0.0,0.0,0.0,6.2492,6.2424,6.0936,6.1366,6.3521,6.5063,6.6518,6.8199,7.3443,7.6635,7.8496,8.2103,8.3592,8.3693,8.4356,0.0,8.4647,8.4614,8.4153,8.3659,8.4323,8.5335,8.6165,8.5377,8.5904,8.663,8.5518,8.6253,8.7194,8.6143,8.7543,8.8707,8.6379,0.0,0.0,0.0,0.0,8.5444,0.0,0.0,0.0,0.0,0.0,0.0,7.7648,7.5131,7.2172,6.8288,0.0,6.8855,0.0,7.0279,7.1791,7.3384,7.2826,7.2048,7.1233,7.044,7.033,7.1123,0.0,7.4375,7.5946,7.7671,7.936,8.093,8.0967,8.1415,8.2194,8.2194,8.2194,8.2194,8.2231,8.2268,8.2341,8.3948,8.4233,8.3711,8.6032,8.6554,8.5939,8.6693,8.7023,8.706,8.7096,8.8078,8.962,5.5192,5.6021,5.6934,0.0,5.7162,5.7814,0.0,0.0,0.0,0.0,7.4627,7.7684,7.9917,8.0479,8.0771,8.0974,8.031,0.0,0.0,0.0,0.0,7.218,7.2586,7.1413,6.8278,6.8751,0.0,6.5077,0.0,0.0,6.3183,6.2245,6.212,6.2787,6.5358,6.6734,6.7411,7.2653,7.7029,8.0695,8.3274,8.4674,0.0,0.0,8.4965,8.5418,8.483,8.4492,8.4255,8.3883,8.4357,8.4917,8.4168,8.414,8.4499,8.5042,8.5099,8.5231,8.6393,8.7138,8.7316,8.6095,8.4886,8.3748,0.0,0.0,0.0,0.0,0.0,0.0,0.0,0.0,0.0,0.0,7.3377,0.0,0.0,0.0,0.0,6.9633,6.9626,6.9919,7.0924,7.0851,7.0367,6.9589,6.8752,6.8685,6.9479,0.0,0.0,7.4265,7.7092,7.9111,8.0102,8.0718,8.1415,8.2194,8.2194,8.2194,8.2231,8.2802,8.3096,8.3169,8.4792,8.538,8.527,8.6509,8.6876,8.6693,8.6913,8.7353,8.794,8.8556,8.9033,8.962,5.7221,0.0,0.0,6.1255,0.0,0.0,6.4005,0.0,0.0,7.2856,7.6352,0.0,8.0661,8.2035,8.2881,8.2881,8.2205,0.0,8.0276,0.0,0.0,7.5709,7.5912,7.439,7.077,7.1007,0.0,6.6802,0.0,0.0,6.4908,6.3193,6.2729,6.3463,6.5753,6.6802,6.7208,7.3093,7.801,8.19,8.3477,8.4559,0.0,8.4749,8.4898,8.5215,8.4762,8.4377,8.4086,8.4018,8.4052,8.4086,8.4018,8.3984,8.4227,8.5382,8.543,8.5454,8.7074,8.7506,8.7435,8.6953,8.5883,8.486,8.4415,8.38,8.3518,0.0,0.0,0.0,0.0,0.0,0.0,0.0,0.0,0.0,0.0,0.0,0.0,0.0,6.9265,6.9339,6.9089,7.0337,7.0367,6.8531,6.9265,0.0,0.0,0.0,0.0,7.3156,7.7055,7.9331,7.9816,8.1305,8.2105,8.2194,8.2194,8.2194,8.2231,8.2663,8.3059,8.3454,8.4719,8.527,8.538,8.6509,8.6803,8.6554,8.7243,8.8014,8.8821,8.9629,8.9913,9.0106,5.9834,0.0,0.0,0.0,0.0,0.0,0.0,6.9722,0.0,7.4953,0.0,8.023,8.0851,8.2644,8.3795,8.3795,0.0,8.2124,8.0851,8.1304,8.039,7.7739,7.8056,7.6352,7.2281,7.2518,0.0,0.0,0.0,0.0,6.6464,6.3903,6.327,6.4377,6.6159,6.7174,6.7952,7.4221,7.8855,8.2056,8.3084,8.395,8.4614,8.4614,8.4614,8.4614,8.4614,8.4187,8.3727,8.4289,8.4086,8.3727,8.4289,8.4512,8.4798,8.5861,8.6143,8.639,8.7422,8.7723,8.7723,8.7723,8.7207,8.668,8.668,8.5589,8.4577,8.4626,8.287,0.0,0.0,0.0,0.0,0.0,0.0,0.0,0.0,0.0,0.0,0.0,0.0,0.0,6.7994,7.0477,7.0954,6.7921,7.03,0.0,0.0,0.0,0.0,7.2488,7.7018,7.9661,8.011,0.0,8.2986,8.2517,8.2415,8.237,8.237,8.2598,8.3067,8.3756,8.4564,8.4894,8.5004,8.6436,8.6582,8.6122,8.7619,8.8674,8.951,9.0289,9.0656,9.084,6.3521,0.0,0.0,0.0,0.0,7.2022,7.3849,7.5033,7.6555,7.8923,8.2374,8.4687,8.4823,8.5161,8.5398,8.5398,8.4661,0.0,0.0,0.0,0.0,8.1481,8.0378,7.8889,7.6872,7.51,7.3296,0.0,0.0,0.0,6.4986,6.4478,6.37,6.2932,6.6237,6.9079,7.165,7.5337,0.0,7.9892,8.2475,8.395,8.4614,8.4614,8.4614,8.4614,8.4614,8.4512,8.4323,8.3849,8.4018,8.4323,8.3862,8.412,8.4633,8.4851,8.4917,8.4969,8.5183,8.5214,8.5214,8.5214,8.5133,8.5031,8.5031,8.4327,8.3777,8.4129,8.2871,8.1379,8.0324,0.0,0.0,0.0,0.0,0.0,0.0,0.0,0.0,0.0,0.0,7.0463,0.0,6.9816,6.975,6.7847,0.0,0.0,0.0,0.0,0.0,0.0,7.5902,0.0,0.0,0.0,8.2994,8.4168,8.3499,8.3206,8.3242,8.4572,8.5241,8.5416,8.6215,8.6582,8.6619,8.6876,8.6913,8.6876,8.7839,8.8674,8.951,9.0289,9.1033,9.162,6.6711,0.0,0.0,0.0,0.0,0.0,0.0,8.0255,0.0,7.9803,8.1879,8.3469,8.3469,8.5182,8.6366,8.6366,8.6014,8.5642,8.5249,8.4877,8.4167,8.3016,8.2306,0.0,7.9172,7.6521,7.4627,7.3544,0.0,0.0,0.0,6.4569,6.3463,6.2492,6.5053,6.8707,7.3082,0.0,0.0,7.987,8.2069,8.3612,8.4614,8.4614,8.4614,8.4614,8.4614,8.4614,8.4546,8.4187,8.4052,8.4018,8.4052,8.4323,8.4614,8.4614,8.4614,8.4614,8.4614,8.4614,8.4614,8.4614,8.4614,8.4512,8.412,8.3761,8.3334,8.276,8.1743,8.0493,7.8925,7.4886,0.0,0.0,0.0,0.0,0.0,0.0,0.0,0.0,0.0,0.0,0.0,0.0,0.0,0.0,0.0,0.0,0.0,0.0,0.0,0.0,0.0,0.0,0.0,0.0,0.0,8.3361,8.2957,8.2986,8.3418,8.4197,8.5013,8.5829,8.6224,8.6619,8.6986,8.6986,8.75,8.8262,8.8674,8.9555,9.0693,9.1069,9.1473,9.1803,0.0,7.0737,0.0,0.0,7.7041,0.0,8.1473,8.4214,8.4742,8.1211,8.19,8.2725,8.2725,8.5351,8.713,8.713,8.6995,8.667,8.6075,8.5905,8.5263,8.4031,8.3659,8.2678,8.0953,7.7976,7.5912,0.0,0.0,0.0,0.0,0.0,6.3666,0.0,0.0,0.0,0.0,0.0,7.6466,8.0107,8.1921,8.3409,8.4614,8.4614,8.4614,8.4614,8.4614,8.4614,8.4614,8.4614,8.4221,8.3828,8.4424,8.4614,8.4614,8.4614,8.4614,8.4614,8.4614,8.4614,8.4614,8.4614,8.4614,8.4458,8.3862,8.3625,8.3131,8.1811,8.0682,7.9519,7.8039,7.4749,0.0,0.0,0.0,0.0,0.0,0.0,0.0,0.0,0.0,0.0,6.7994,0.0,0.0,0.0,0.0,0.0,0.0,0.0,0.0,0.0,0.0,7.8633,8.0285,0.0,8.3544,0.0,8.2782,8.3141,8.3903,8.4087,8.4857,8.604,8.604,8.6407,8.7023,8.717,8.8014,8.9179,8.951,9.0436,9.1583,9.173,9.1803,9.1803,0.0,0.0,0.0,0.0,0.0,0.0,8.3152,8.5283,8.6656,8.6217,8.6873,8.738,8.738,8.7685,8.7888,8.7888,8.7279,8.6859,8.6792,8.6163,8.5736,8.5601,8.4248,8.3389,8.3199,8.031,7.7727,0.0,0.0,0.0,0.0,0.0,0.0,0.0,0.0,0.0,0.0,7.4864,7.7604,7.9452,8.2272,8.3883,8.4614,8.4614,8.4614,8.4614,8.4614,8.4614,8.4614,8.4614,8.4546,8.4512,8.458,8.4614,8.4614,8.4614,8.4614,8.4614,8.4614,8.4614,8.4614,8.4614,8.4614,8.458,8.4512,8.3984,8.3253,8.2462,8.0636,7.9213,7.9281,7.6576,7.4219,0.0,0.0,0.0,0.0,0.0,0.0,7.0064,0.0,0.0,0.0,6.9162,0.0,0.0,7.2569,0.0,0.0,0.0,0.0,7.2525,0.0,7.7407,8.1937,8.1562,8.2737,8.5462,8.4719,8.4792,8.5608,8.6325,8.6766,8.6876,8.6876,8.6913,8.706,8.7802,8.8169,8.8463,8.9922,9.0583,9.0803,9.1546,9.1803,9.1803,0.0,0.0,0.0,0.0,0.0,0.0,0.0,8.8023,8.9024,8.9478,8.8632,8.7989,8.7989,8.8409,8.8646,8.8646,8.8409,8.8023,8.7583,8.6873,8.6264,8.5804,8.4742,8.4153,8.4153,8.1697,7.9532,0.0,0.0,0.0,0.0,0.0,0.0,0.0,0.0,7.0331,7.3037,7.5743,7.8247,8.0581,8.2678,8.395,8.4614,8.4614,8.4614,8.4614,8.4614,8.4614,8.4614,8.4614,8.4614,8.4614,8.4614,8.4614,8.4614,8.4614,8.4614,8.4614,8.4614,8.4614,8.4614,8.4614,8.4614,8.4478,8.4052,8.4052,8.3714,8.2069,8.0344,7.9127,7.923,7.6697,7.4666,0.0,0.0,0.0,0.0,0.0,0.0,0.0,0.0,7.0244,0.0,0.0,0.0,0.0,0.0,0.0,0.0,0.0,0.0,7.2452,0.0,7.7268,8.0726,8.1893,8.3096,8.4344,8.4535,8.5013,8.5792,8.6114,8.6554,8.6986,8.6986,8.728,8.7766,8.8059,8.8757,8.9711,9.0363,9.0913,9.1363,9.1693,9.1803,9.1803,7.9172,0.0,8.1177,0.0,8.4898,8.6453,8.9038,8.9884,9.0459,9.1203,8.9951,8.897,8.897,8.9241,8.9424,8.9424,8.9221,8.8883,8.8361,8.7448,8.667,8.6142,8.5134,0.0,8.4614,8.2847,8.1224,7.9769,7.6657,0.0,0.0,0.0,0.0,0.0,6.9823,7.2191,7.5055,7.7266,7.9498,8.1744,8.3219,8.412,8.4614,8.4614,8.4614,8.4614,8.4614,8.4614,8.4614,8.4614,8.4614,8.4614,8.4614,8.4614,8.4614,8.4614,8.4614,8.4614,8.4614,8.4614,8.4614,8.4614,8.4614,8.4444,8.395,8.4052,8.3714,8.171,8.031,7.9418,7.9418,7.749,7.5934,7.6048,0.0,0.0,0.0,0.0,0.0,0.0,7.0237,6.9773,6.8866,6.8538,0.0,0.0,0.0,0.0,0.0,0.0,0.0,0.0,0.0,0.0,0.0,8.1966,8.3279,8.3756,8.4572,8.538,8.6151,8.6151,8.6591,8.7353,8.7353,8.7794,8.8573,8.8793,8.9592,9.062,9.084,9.1289,9.1803,9.1803,9.1803,9.1803,8.1921,8.2949,8.4403,8.7414,8.7955,8.8463,8.9971,9.0174,9.0459,9.1203,9.1271,9.1271,9.1271,9.0628,9.0174,9.0174,8.9512,8.9086,8.9086,8.7719,8.6893,0.0,0.0,8.4614,8.4614,8.3862,8.2759,8.127,0.0,0.0,7.1267,0.0,7.0534,7.1402,7.5122,7.6386,7.5912,7.9646,8.1697,8.253,8.3971,8.458,8.4614,8.4614,8.4614,8.4614,8.4614,8.4614,8.4614,8.4614,8.4614,8.4614,8.4614,8.4614,8.4614,8.4614,8.4614,8.4614,8.4614,8.4614,8.4614,8.4614,8.4614,8.4614,8.458,8.4018,8.3084,8.1608,8.0729,8.0175,8.0175,7.9553,7.8572,7.713,0.0,0.0,0.0,0.0,0.0,0.0,7.281,7.2866,7.1419,7.055,0.0,0.0,0.0,0.0,0.0,0.0,0.0,7.3714,7.5256,0.0,7.9779,8.1423,8.2994,8.4609,8.538,8.6224,8.6986,8.6986,8.7427,8.8206,8.8206,8.8638,8.9436,9.0253,9.0583,9.0693,9.1473,9.1803,9.1803,9.1803,9.1803,9.1803,8.5337,8.6061,8.6873,8.782,8.8835,8.9681,9.014,9.1053,9.1798,9.2034,9.2522,9.2672,9.2102,9.0952,9.0208,0.0,8.9526,8.9086,0.0,8.8206,8.7448,8.6927,8.596,8.5182,8.4614,8.439,8.3511,8.2069,0.0,0.0,0.0,7.4627,7.4593,7.4424,7.7152,7.8822,7.9646,8.1879,8.3219,8.3937,8.4411,8.4614,8.4614,8.4614,8.4614,8.4614,8.4614,8.4614,8.4614,8.4614,8.4614,8.4614,8.4614,8.4614,8.4614,8.4614,8.4614,8.4614,8.4614,8.4614,8.4614,8.4614,8.4614,8.4614,8.4614,8.4018,8.3219,8.2238,8.146,8.0796,8.0276,7.9194,7.801,7.7063,0.0,0.0,0.0,0.0,0.0,0.0,6.9199,6.9193,0.0,6.9806,0.0,0.0,0.0,0.0,0.0,0.0,0.0,0.0,7.6357,0.0,8.0608,8.2774,8.4352,8.5425,8.6224,8.6766,8.7023,8.7573,8.7949,8.8243,8.8785,8.9473,9.0253,9.0473,9.0913,9.1436,9.1693,9.1803,9.1803,9.1803,9.1803,9.1803,8.7299,8.7922,8.8497,8.8767,8.9613,9.0377,9.0952,9.1798,9.2508,9.2812,9.3281,9.3417,9.2928,9.1764,0.0,9.0242,8.9526,8.9086,8.9086,8.8409,8.7786,8.7333,8.6602,8.5993,8.5473,0.0,0.0,8.3693,8.2082,8.0086,7.7819,7.8044,7.801,7.7887,7.987,8.1257,8.2218,8.3389,8.4187,8.4614,8.4614,8.4614,8.4614,8.4614,8.4614,8.4614,8.4614,8.4614,8.4614,8.4614,8.4614,8.4614,8.4614,8.4614,8.4614,8.4614,8.4614,8.4614,8.4614,8.4614,8.4614,8.4614,8.4614,8.4614,8.4614,8.4018,8.3355,8.2915,8.2014,8.1169,8.0695,7.9409,7.8077,7.7063,0.0,7.3308,7.1537,0.0,0.0,0.0,0.0,0.0,0.0,7.0561,0.0,0.0,0.0,0.0,0.0,0.0,0.0,7.4551,7.7495,0.0,8.1415,8.3838,8.5315,8.5829,8.6921,8.761,8.794,8.8418,8.883,8.9124,8.9629,9.0326,9.1069,9.1069,9.1363,9.1803,9.1803,9.1803,9.1803,9.1803,9.1803,9.1803,8.8125,8.8714,0.0,0.0,9.0309,0.0,9.2136,9.2406,9.2745,9.3417,9.3552,9.3586,9.3518,9.2861,9.1831,9.0411,0.0,0.0,0.0,8.8511,8.8057,8.7989,8.7347,8.6927,8.6825,8.6142,8.577,8.5736,8.2894,8.1541,8.1507,8.0818,8.0851,8.1575,8.2949,8.3592,8.3625,8.4323,8.4614,8.4614,8.4614,8.4614,8.4614,8.4614,8.4614,8.4614,8.4614,8.4614,8.4614,8.4614,8.4614,8.4614,8.4614,8.4614,8.4614,8.4614,8.4614,8.4614,8.4614,8.4614,8.4614,8.4614,8.4614,8.4614,8.4614,8.4052,8.3558,8.3524,8.2421,8.1405,8.1304,8.0073,7.8606,7.7063,7.5461,7.3668,7.147,0.0,0.0,0.0,0.0,0.0,0.0,7.2454,7.2881,0.0,0.0,0.0,0.0,0.0,7.4779,7.624,7.867,8.0726,8.2341,8.4654,8.5865,8.5976,8.7545,8.8674,8.94,8.9473,8.9877,9.0583,9.0656,9.1106,9.1803,9.1803,9.1803,9.1803,9.1803,9.1803,9.1803,9.1803,9.1803,9.1803,0.0,0.0,9.0188,9.0899,9.1493,9.1798,9.1609,9.2556,9.3165,9.2745,9.3199,9.3383,9.2745,9.2508,9.2034,9.1135,9.0357,8.9951,8.9951,8.9255,8.8578,8.8023,8.782,8.7211,8.6075,8.5905,8.5486,8.4898,8.4187,8.3815,8.3815,8.3646,8.3646,8.3849,8.4187,8.4356,8.4356,8.4512,8.4614,8.4614,8.4614,8.4614,8.4614,8.4614,8.4614,8.4614,8.4614,8.4614,8.4614,8.4614,8.4614,8.4614,8.4614,8.4614,8.4614,8.4614,8.4614,8.4614,8.4614,8.4614,8.4614,8.4614,8.4614,8.4614,8.4614,8.4444,8.4187,8.3625,8.3219,8.2657,8.1507,8.0073,7.8403,7.6318,7.4255,7.2157,6.9914,6.9316,0.0,0.0,6.9578,7.0378,7.0595,7.2712,7.4011,0.0,0.0,0.0,0.0,7.7312,7.823,7.8002,8.0359,8.2406,8.4022,8.5205,8.6416,8.7619,8.8638,8.9216,8.9436,9.0032,9.0436,9.062,9.1253,9.162,9.1803,9.1803,9.1803,9.1803,9.1803,9.1803,9.1803,9.1803,9.1803,9.1803,9.0628,9.0696,9.0932,9.1677,9.2455,9.2928,9.2861,9.3571,9.3943,9.3523,9.3537,9.3451,9.2996,9.3252,9.3151,9.2435,9.1034,9.0208,9.0208,8.9526,8.8917,8.8511,8.8511,8.8139,8.7326,8.665,8.5743,8.4614,8.4614,8.4614,8.4614,8.4614,8.4614,8.4614,8.4614,8.4614,8.4614,8.4614,8.4614,8.4614,8.4614,8.4614,8.4614,8.4614,8.4614,8.4614,8.4614,8.4614,8.4614,8.4614,8.4614,8.4614,8.4614,8.4614,8.4614,8.4614,8.4614,8.4614,8.4614,8.4614,8.4614,8.4614,8.4614,8.4614,8.4614,8.4614,8.4478,8.4086,8.3727,8.3152,8.2002,8.0331,7.8234,7.5608,7.3612,7.1515,6.891,6.8876,0.0,6.8504,6.9789,7.0878,7.1339,7.3792,7.5075,7.4458,0.0,0.0,7.7304,7.9588,8.0359,7.9184,8.1856,8.4058,8.5665,8.6839,8.8051,8.9307,8.9739,9.0143,9.051,9.095,9.1143,9.1179,9.162,9.1803,9.1803,9.1803,9.1803,9.1803,9.1803,9.1803,9.1803,9.1803,9.1803,9.1803,9.144,9.1474,9.1711,9.244,9.3233,9.3992,9.4605,9.4774,9.489,9.489,9.4315,9.389,9.3789,9.4315,9.4417,9.3654,9.1711,9.0478,9.0377,8.9695,8.9221,8.9086,8.9086,8.9052,8.8951,8.7617,8.625,8.4952,8.485,8.4796,8.4796,8.4647,8.4614,8.4614,8.4614,8.4614,8.4614,8.4614,8.4614,8.4614,8.4614,8.4614,8.4614,8.4614,8.4614,8.4614,8.4614,8.4614,8.4614,8.4614,8.4614,8.4614,8.4614,8.4614,8.4614,8.4614,8.4614,8.4614,8.4614,8.4614,8.4614,8.4614,8.4614,8.4614,8.4614,8.4614,8.4614,8.4614,8.4086,8.3422,8.2564,8.067,7.8302,7.5427,7.3409,7.1312,6.8605,0.0,6.918,6.9417,7.0827,7.2078,7.2834,7.532,7.6362,7.5119,7.7908,7.9592,0.0,8.135,8.201,8.0909,8.3544,8.5738,8.7353,8.8849,8.9913,9.0583,9.073,9.1143,9.1803,9.1803,9.1803,9.1803,9.1803,9.1803,9.1803,9.1803,9.1803,9.1803,9.1803,9.1803,9.1803,9.1803,9.1803,9.1803,9.2102,9.2237,9.2474,9.3281,9.4045,9.4571,9.4673,9.5229,9.5635,9.5635,9.5533,9.5229,9.462,9.4639,9.4417,9.3654,9.2658,9.1798,9.1169,9.0425,8.9748,8.912,8.9086,8.8815,8.8158,8.7347,8.6792,8.6555,8.5926,8.5601,8.5601,8.4931,8.4614,8.4614,8.4614,8.4614,8.4614,8.4614,8.4614,8.4614,8.4614,8.4614,8.4614,8.4614,8.4614,8.4614,8.4614,8.4614,8.4614,8.4614,8.4614,8.4614,8.4614,8.4614,8.4614,8.4614,8.4614,8.4614,8.4614,8.4614,8.4614,8.4614,8.4614,8.4614,8.4614,8.4614,8.4614,8.4614,8.4512,8.4005,8.2665,8.1109,7.9261,7.6927,7.3668,7.1097,7.0003,0.0,6.9553,7.0827,7.2822,7.4378,7.5134,7.6987,7.831,7.8726,7.8885,8.0194,8.3007,8.3579,8.4428,8.5823,8.6362,8.739,8.8996,8.9959,9.0473,9.062,9.1289,9.1693,9.1803,9.1803,9.1803,9.1803,9.1803,9.1803,9.1803,9.1803,9.1803,9.1803,9.1803,9.1803,9.1803,9.1803,9.1803,9.1803,9.2045,9.2132,9.2317,9.3148,9.3009,9.3167,9.4207,9.4665,9.5261,9.6273,9.6056,9.5669,9.533,9.5635,9.5582,9.4872,9.4451,9.3556,9.2,9.0817,8.9884,8.912,8.9086,8.8748,8.8023,8.7265,8.669,8.6298,8.552,8.5134,8.5148,8.4749,8.4614,8.4614,8.4614,8.4614,8.4614,8.4614,8.4614,8.4614,8.4614,8.4614,8.4614,8.4614,8.4614,8.4614,8.4614,8.4614,8.4614,8.4614,8.4614,8.4614,8.4614,8.4614,8.4614,8.4614,8.4614,8.4614,8.4614,8.4614,8.4614,8.4614,8.4614,8.4614,8.4614,8.4614,8.4614,8.4614,8.4614,8.4275,8.3186,8.146,7.96,7.7773,7.4018,0.0,0.0,7.0161,7.0398,7.2259,7.4458,7.6454,7.7976,7.939,8.0375,8.072,8.1066,8.2252,8.4521,8.5102,8.6249,8.8236,8.8711,8.9298,9.0032,9.084,9.1253,9.1253,9.162,9.1803,9.1803,9.1803,9.1803,9.1803,9.1803,9.1803,9.1803,9.1803,9.1803,9.1803,9.1803,9.1803,9.1803,9.1803,9.1803,9.1803,9.1009,9.1043,9.119,9.1959,9.1477,9.1686,9.3762,9.3893,9.4551,9.6828,9.6295,9.5749,9.6044,9.6563,9.6529,9.5601,9.5533,9.4586,9.2305,9.1087,9.0053,8.912,8.9086,8.8849,8.826,8.7719,8.7144,8.6582,8.579,8.5405,8.5371,8.5033,8.4898,8.4864,8.4681,8.4614,8.4614,8.4614,8.4614,8.4614,8.4614,8.4614,8.4614,8.4614,8.4614,8.4614,8.4614,8.4614,8.4614,8.4614,8.4614,8.4614,8.4614,8.4614,8.4614,8.4614,8.4715,8.483,8.4647,8.4614,8.4614,8.4614,8.4614,8.4614,8.4614,8.4614,8.4614,8.4614,8.4614,8.4377,8.3625,8.1968,8.0175,7.8517,0.0,0.0,0.0,7.1413,7.1864,7.4266,7.6251,7.828,8.0513,8.1454,8.1976,8.211,8.2766,8.3849,8.5396,8.6179,8.7604,8.9878,9.04,9.0693,9.0886,9.1473,9.1803,9.1803,9.1803,9.1803,9.1803,9.1803,9.1803,9.1803,9.1803,9.1803,9.1803,9.1803,9.1803,9.1803,9.1803,9.1803,9.1803,9.1803,9.1803,9.184,8.8486,8.8469,8.8677,8.9266,8.9934,9.1222,9.3713,9.3178,9.3837,9.7449,9.6349,9.563,9.67,9.6868,9.6326,9.4924,9.4774,9.3793,9.1541,9.1271,9.056,8.9154,8.9086,8.9052,8.9018,8.8984,8.8917,8.8849,8.8091,8.7753,8.7719,8.6345,8.5702,8.5669,8.4931,8.4614,8.4614,8.4614,8.4614,8.4614,8.4614,8.4614,8.4614,8.4614,8.4614,8.4614,8.4614,8.4614,8.4614,8.4614,8.4614,8.4614,8.4614,8.4614,8.4614,8.4614,8.5148,8.5567,8.4796,8.4614,8.4614,8.4614,8.4614,8.4614,8.4614,8.4614,8.4614,8.4614,8.4614,8.4377,8.3625,8.2813,8.1515,7.9384,0.0,0.0,7.4446,7.3713,7.4334,7.7312,7.8416,7.979,8.2022,8.2316,8.2639,8.3316,8.2831,8.3583,8.6181,8.676,8.8449,9.1528,9.0959,9.0959,9.1693,9.1767,9.1803,9.1803,9.1803,9.1803,9.1803,9.1803,9.1803,9.1803,9.1803,9.1803,9.1803,9.1803,9.1803,9.1803,9.1803,9.1803,9.1803,9.1803,9.1803,9.1923,8.7123,8.7133,8.73,8.8039,8.7763,8.8174,9.029,9.0613,9.156,9.4174,9.3902,9.3651,9.4068,9.473,9.4926,9.4377,9.4556,9.3928,9.2102,9.1541,9.0642,8.9154,8.9086,8.9086,8.9086,8.8646,8.8409,8.8409,8.7685,8.7313,8.7313,8.6278,8.6027,8.6433,8.5168,8.4898,8.5317,8.483,8.4614,8.4614,8.4614,8.4614,8.4614,8.4614,8.4614,8.4614,8.4614,8.4614,8.4614,8.4614,8.4614,8.4614,8.4614,8.4614,8.4614,8.4614,8.5182,8.5635,8.483,8.4965,8.5351,8.5351,8.4965,8.4614,8.4614,8.4614,8.4614,8.4614,8.4614,8.4512,8.4221,8.3206,8.2259,8.19,0.0,7.7345,7.7976,7.7029,7.7075,7.9139,8.0412,8.165,8.2949,8.3511,8.3883,8.4153,8.3917,8.4531,8.6306,8.7996,8.9808,9.173,9.151,9.1473,9.1803,9.1803,9.1803,9.1803,9.1803,9.1803,9.1803,9.1803,9.1803,9.1803,9.1803,9.1803,9.1803,9.1803,9.1803,9.1803,9.1803,9.1803,9.1803,9.1803,9.1803,9.184,8.5305,8.5342,8.5563,8.6519,8.5978,8.6162,8.8458,8.8708,8.9531,9.2092,9.1864,9.1657,9.2055,9.2782,9.3085,9.2628,9.2864,9.2497,9.129,9.0828,9.0169,8.9154,8.9086,8.9086,8.9086,8.8612,8.8342,8.8342,8.7854,8.7583,8.7583,8.6602,8.6433,8.6825,8.529,8.4898,8.5384,8.483,8.4614,8.4614,8.4614,8.4614,8.4614,8.4614,8.4614,8.4614,8.4614,8.4614,8.4614,8.4614,8.4614,8.4614,8.4614,8.4614,8.4614,8.4614,8.5182,8.5669,8.5148,8.5384,8.5736,8.5499,8.4999,8.4614,8.4614,8.4614,8.4614,8.4614,8.4614,8.4614,8.4614,8.3781,8.3105,8.3152,8.1021,7.9646,8.0445,7.968,7.9578,8.1054,8.2137,8.305,8.3748,8.4289,8.4614,8.4614,8.4614,8.5131,8.634,8.8357,8.9996,9.1192,9.1611,9.1803,9.1803,9.1803,9.1803,9.1803,9.1803,9.1803,9.1803,9.1803,9.1803,9.1803,9.1803,9.1803,9.1803,9.1803,9.1803,9.1803,9.1803,9.1803,9.1803,9.1803,9.1803,9.1877,8.2806,8.2806,8.3206,8.4455,8.4694,8.5769,8.8977,8.789,8.8044,9.1878,9.0703,8.9963,9.1229,9.1375,9.0798,8.9405,8.9294,8.9099,8.8618,8.8878,8.9072,8.9072,8.9086,8.9086,8.9086,8.9086,8.9086,8.9086,8.9086,8.9086,8.9052,8.7583,8.6893,8.6859,8.529,8.4614,8.4614,8.4614,8.4614,8.4614,8.4614,8.4614,8.4614,8.4614,8.4614,8.4614,8.4614,8.4614,8.4614,8.4614,8.4614,8.4614,8.4614,8.4614,8.4614,8.4614,8.5182,8.5804,8.5804,8.5804,8.5601,8.4796,8.4614,8.4614,8.4614,8.4614,8.4614,8.4614,8.4614,8.4614,8.4614,8.4614,8.414,8.2665,8.2428,8.2171,8.1439,8.1338,8.1879,8.3321,8.3524,8.3795,8.4512,8.4614,8.4614,8.4614,8.4614,8.5131,8.634,8.7608,8.8822,8.9965,9.1173,9.1803,9.1803,9.1803,9.1803,9.1803,9.1803,9.1803,9.1803,9.1803,9.1803,9.1803,9.1803,9.1803,9.1803,9.1803,9.1803,9.1803,9.1803,9.1803,9.1803,9.1803,9.1803,9.2024,8.3367,8.3087,8.3057,8.3856,8.4006,8.4637,8.6538,8.6352,8.6591,8.8195,8.7901,8.7674,8.8047,8.8806,8.8928,8.8039,8.8705,8.85,8.6953,8.7106,8.7261,8.7261,8.8453,8.9086,8.9086,8.9086,8.9086,8.9086,8.9086,8.9086,8.9052,8.7583,8.7448,8.8342,8.5743,8.5189,8.6149,8.5053,8.4614,8.4614,8.4614,8.4614,8.4614,8.4614,8.4614,8.4614,8.4614,8.4614,8.4614,8.4614,8.4614,8.4614,8.4614,8.4614,8.4614,8.4614,8.5182,8.5669,8.51,8.5384,8.5736,8.5486,8.5033,8.4762,8.5317,8.5452,8.5587,8.6115,8.6217,8.6048,8.5554,8.5452,8.5114,8.412,8.3937,8.3883,8.3646,8.3612,8.3781,8.4221,8.4289,8.4356,8.458,8.4614,8.4614,8.4614,8.4614,8.5131,8.634,8.755,8.8754,8.9965,9.1173,9.1803,9.1803,9.1803,9.1803,9.1803,9.1803,9.1803,9.1803,9.1803,9.1803,9.1803,9.1803,9.1803,9.1803,9.1803,9.1803,9.1803,9.1803,9.1803,9.1803,9.1803,9.1803,9.1877,8.3647,8.3636,8.3745,8.4365,8.4485,8.4844,8.593,8.611,8.6229,8.6648,8.6708,8.6589,8.6349,8.6941,8.6947,8.6019,8.6722,8.6696,8.5482,8.5937,8.6453,8.6881,8.7917,8.8684,8.9072,8.9086,8.9086,8.9086,8.9086,8.9086,8.9052,8.7888,8.7651,8.8139,8.6027,8.5587,8.6399,8.5134,8.4796,8.5033,8.4728,8.4614,8.4614,8.4614,8.4614,8.4614,8.4614,8.4614,8.4614,8.4614,8.4614,8.4614,8.4614,8.4614,8.4614,8.4614,8.4931,8.5283,8.51,8.5418,8.5872,8.6163,8.5655,8.5283,8.6061,8.623,8.6366,8.6792,8.6893,8.6758,8.6332,8.623,8.5993,8.5202,8.5067,8.4965,8.4647,8.4614,8.4614,8.4614,8.4614,8.4614,8.4614,8.4614,8.4614,8.4614,8.4614,8.493,8.5668,8.6829,8.8043,8.9263,9.0443,9.1332,9.1803,9.1803,9.1803,9.1803,9.1803,9.1803,9.1803,9.1803,9.1803,9.1803,9.1803,9.1803,9.1803,9.1803,9.1803,9.1803,9.1803,9.1803,9.1803,9.1803,9.1803,9.184,8.3777,8.4275,8.4904,8.5581,8.5641,8.5851,8.6589,8.6589,8.6529,8.6589,8.6619,8.6379,8.5761,8.5731,8.5252,8.3897,8.399,8.4081,8.4081,8.5006,8.6033,8.7,8.715,8.7642,8.8614,8.8945,8.9086,8.9086,8.9086,8.9086,8.9086,8.8342,8.7651,8.6961,8.6163,8.5804,8.5736,8.4931,8.5033,8.5635,8.4898,8.4614,8.4614,8.4614,8.4614,8.4614,8.4614,8.4614,8.4614,8.4614,8.4614,8.4614,8.4614,8.4614,8.4614,8.4614,8.4614,8.4796,8.5601,8.5804,8.6007,8.6792,8.6501,8.6176,8.6859,8.6995,8.7028,8.7062,8.7096,8.7062,8.6995,8.6995,8.6738,8.5939,8.5804,8.5533,8.483,8.4647,8.4614,8.4681,8.4647,8.4614,8.4614,8.4614,8.4614,8.4614,8.4614,8.4614,8.4614,8.5735,8.6901,8.7998,8.9327,9.0549,9.1629,9.1767,9.1803,9.1803,9.1803,9.1803,9.1803,9.1803,9.1803,9.1803,9.1803,9.1803,9.1803,9.1803,9.1803,9.1803,9.1803,9.1803,9.1803,9.1803,9.1803,9.1913,8.4365,8.4604,8.4904,8.5581,8.5282,8.5312,8.6529,8.5791,8.5312,8.5851,8.593,8.5851,8.5701,8.617,8.596,8.4604,8.3176,8.2353,8.2353,8.2842,8.3247,8.3496,8.4313,8.4887,8.5102,8.7723,8.9086,8.9086,8.9086,8.9086,8.9086,8.8342,8.7922,8.7719,8.6379,8.5804,8.5736,8.4931,8.4681,8.483,8.4681,8.4614,8.4614,8.4614,8.4614,8.4614,8.4614,8.4614,8.4614,8.4614,8.4614,8.4614,8.4614,8.4614,8.4614,8.4614,8.4614,8.4796,8.5601,8.5804,8.6108,8.7414,8.7651,8.755,8.7719,8.7753,8.7922,8.8511,8.8612,8.8443,8.7854,8.7753,8.7313,8.6007,8.5804,8.5736,8.5567,8.4999,8.483,8.5452,8.4965,8.4614,8.4614,8.4614,8.4614,8.4614,8.4614,8.4614,8.4614,8.5735,8.6536,8.6781,8.8884,9.0117,9.0384,9.1342,9.1803,9.1803,9.1803,9.1803,9.1803,9.1803,9.1803,9.1803,9.1803,9.1803,9.1803,9.1803,9.1803,9.1803,9.1803,9.1803,9.1803,9.1803,9.1803,9.1913,8.4634,8.5222,8.5761,8.611,8.59,8.59,8.6589,8.5821,8.5312,8.5641,8.5432,8.5222,8.5222,8.5551,8.5342,8.4305,8.3027,8.2297,8.2297,8.2473,8.2701,8.2874,8.3696,8.4116,8.3979,8.6032,8.734,8.7853,8.87,8.9086,8.9086,8.8714,8.8158,8.7448,8.7042,8.6447,8.5804,8.5723,8.5506,8.5168,8.5168,8.4931,8.4614,8.4614,8.4614,8.4614,8.4614,8.4614,8.4614,8.4614,8.4614,8.4614,8.4614,8.4614,8.4614,8.4614,8.4614,8.485,8.6027,8.6332,8.667,8.8172,8.8511,8.8511,8.8511,8.8511,8.8646,8.9018,8.9086,8.8984,8.8612,8.8226,8.7753,8.6988,8.6535,8.6332,8.6332,8.5655,8.5317,8.5736,8.508,8.4614,8.4614,8.4614,8.4614,8.4614,8.4614,8.4614,8.4614,8.5188,8.5811,8.639,8.7631,8.8568,8.9157,9.0344,9.0945,9.0945,9.1509,9.1803,9.1803,9.1803,9.1803,9.1803,9.1803,9.1803,9.1803,9.1803,9.1803,9.1803,9.1803,9.1803,9.1803,9.1803,9.1803,9.1877,8.4664,8.5671,8.6559,8.6678,8.6708,8.6648,8.6559,8.594,8.5492,8.5372,8.4874,8.4515,8.4515,8.4515,8.4305,8.3748,8.3147,8.2806,8.2806,8.2687,8.2796,8.3106,8.3497,8.3631,8.3482,8.4237,8.5117,8.6072,8.7514,8.8381,8.8671,8.8671,8.809,8.7096,8.7719,8.7245,8.6041,8.6636,8.6467,8.5804,8.5804,8.5317,8.4614,8.4614,8.4614,8.4614,8.4614,8.4614,8.4614,8.4614,8.4614,8.4614,8.4614,8.4614,8.4614,8.4614,8.4614,8.4918,8.6318,8.669,8.7042,8.8409,8.8815,8.8917,8.8917,8.9018,8.9086,8.9086,8.9086,8.9086,8.9086,8.8612,8.8158,8.8023,8.7482,8.7028,8.6927,8.6264,8.5838,8.5973,8.5283,8.4749,8.4614,8.4614,8.4614,8.4614,8.4614,8.4614,8.4614,8.4614,8.5053,8.6065,8.6291,8.6877,8.7884,8.9078,8.9811,9.0006,9.1003,9.1611,9.1803,9.1803,9.1803,9.1803,9.1803,9.1803,9.1803,9.1803,9.1803,9.1803,9.1803,9.1803,9.1803,9.1803,9.1803,9.1803,8.4574,8.5312,8.602,8.6589,8.6708,8.6499,8.591,8.5282,8.4634,8.4066,8.3886,8.3837,8.3837,8.3837,8.3807,8.3718,8.3147,8.2806,8.2806,8.2249,8.1942,8.1992,8.1541,8.1279,8.1232,8.2781,8.3832,8.4346,8.4584,8.5428,8.6842,8.6842,8.7197,8.7854,8.7955,8.7516,8.6758,8.6859,8.6467,8.5804,8.5804,8.5317,8.4614,8.4614,8.4614,8.4614,8.4614,8.4614,8.4614,8.4614,8.4614,8.4614,8.4614,8.4614,8.4614,8.4614,8.4614,8.4796,8.5689,8.5939,8.6142,8.7008,8.7685,8.8158,8.8158,8.8646,8.9086,8.9086,8.9086,8.9086,8.9086,8.9018,8.8748,8.8091,8.7922,8.7617,8.6995,8.6264,8.6041,8.667,8.6095,8.5351,8.4661,8.4614,8.4614,8.4614,8.4614,8.4614,8.4614,8.4614,8.4673,8.4838,8.5908,8.6534,8.6623,8.7838,8.8949,8.9996,9.0184,9.0774,9.1803,9.1803,9.1803,9.1803,9.1803,9.1803,9.1803,9.1803,9.1803,9.1803,9.1803,9.1803,9.1803,9.1803,9.1803,9.1803,8.5192,8.5791,8.6349,8.6648,8.6708,8.6589,8.6289,8.5372,8.4604,8.4305,8.3636,8.3187,8.3187,8.3187,8.3337,8.3658,8.3147,8.2937,8.3277,8.2728,8.2189,8.183,8.189,8.156,8.0823,8.194,8.2224,8.1656,8.3574,8.4892,8.559,8.5264,8.5099,8.5158,8.6523,8.6516,8.5559,8.6919,8.711,8.6366,8.5973,8.5601,8.5215,8.4749,8.4614,8.4614,8.4614,8.4614,8.4614,8.4614,8.4614,8.4614,8.4614,8.4614,8.4614,8.4614,8.4614,8.4796,8.5601,8.5804,8.6075,8.7245,8.7753,8.8091,8.8511,8.8883,8.9086,8.9086,8.9086,8.9086,8.9086,8.8748,8.8511,8.8612,8.826,8.8023,8.8139,8.7482,8.6853,8.6332,8.6007,8.5669,8.5317,8.5642,8.5709,8.5317,8.5283,8.5067,8.4614,8.4614,8.4614,8.4614,8.5165,8.5421,8.5374,8.661,8.7457,8.8009,8.8678,8.962,9.0839,9.1482,9.1426,9.0849,9.1491,9.1803,9.1803,9.1803,9.1803,9.1803,9.1803,9.1803,9.1803,9.1803,9.1803,9.1803]},{"header":{"parameterUnit":"m.s-1","parameterCategory":1,"la1":30.6,"la2":28.766,"lo1":-90.7593,"lo2":-88.6598,"dy":0.0162,"dx":0.0183,"nx":116,"ny":114,"refTime":"2023-03-11T06:00:00:Z","depth":0,"parameterNumber":3,"parameterNumberName":"V-component_of_WINDS"},"data":[0.0,0.0,0.0,0.0,0.0,0.0,0.0,0.0,0.0,0.0,0.0,0.0,0.0,0.0,0.0,0.0,0.0,0.0,0.0,0.0,0.0,0.0,0.0,0.0,0.0,0.0,0.0,0.0,0.0,0.0,0.0,0.0,0.0,0.0,0.0,0.0,0.0,0.0,0.0,0.0,0.0,0.0,0.0,0.0,0.0,0.0,0.0,0.0,0.0,0.0,0.0,0.0,0.0,0.0,0.0,0.0,0.0,0.0,0.0,0.0,0.0,0.0,0.0,0.0,0.0,0.0,0.0,0.0,0.0,0.0,0.0,0.0,0.0,0.0,0.0,0.0,0.0,0.0,0.0,0.0,0.0,0.0,0.0,0.0,0.0,0.0,0.0,0.0,0.0,0.0,0.0,0.0,0.0,0.0,0.0,0.0,0.0,0.0,0.0,0.0,0.0,0.0,0.0,0.0,0.0,0.0,0.0,0.0,0.0,0.0,0.0,0.0,0.0,0.0,0.0,0.0,0.0,0.0,0.0,0.0,0.0,0.0,0.0,0.0,0.0,0.0,0.0,0.0,0.0,0.0,0.0,0.0,0.0,0.0,0.0,0.0,0.0,0.0,0.0,0.0,0.0,0.0,0.0,0.0,0.0,0.0,0.0,0.0,0.0,0.0,0.0,0.0,0.0,0.0,0.0,0.0,0.0,0.0,0.0,0.0,0.0,0.0,0.0,0.0,0.0,0.0,0.0,0.0,0.0,0.0,0.0,0.0,0.0,0.0,0.0,0.0,0.0,0.0,0.0,0.0,0.0,0.0,0.0,0.0,0.0,0.0,0.0,0.0,0.0,0.0,0.0,0.0,0.0,0.0,0.0,0.0,0.0,0.0,0.0,0.0,0.0,0.0,0.0,0.0,0.0,0.0,0.0,0.0,0.0,0.0,0.0,0.0,0.0,0.0,0.0,0.0,0.0,0.0,0.0,0.0,0.0,0.0,0.0,0.0,0.0,0.0,0.0,0.0,0.0,0.0,0.0,0.0,0.0,0.0,0.0,0.0,0.0,0.0,0.0,0.0,0.0,0.0,0.0,0.0,0.0,0.0,0.0,0.0,0.0,0.0,0.0,0.0,0.0,0.0,0.0,0.0,0.0,0.0,0.0,0.0,0.0,0.0,0.0,0.0,0.0,0.0,0.0,0.0,0.0,0.0,0.0,0.0,0.0,0.0,0.0,0.0,0.0,0.0,0.0,0.0,0.0,0.0,0.0,0.0,0.0,0.0,0.0,0.0,0.0,0.0,0.0,0.0,0.0,0.0,0.0,0.0,0.0,0.0,0.0,0.0,0.0,0.0,0.0,0.0,0.0,0.0,0.0,0.0,0.0,0.0,0.0,0.0,0.0,0.0,0.0,0.0,0.0,0.0,0.0,0.0,0.0,0.0,0.0,0.0,0.0,0.0,0.0,0.0,0.0,0.0,0.0,0.0,0.0,0.0,0.0,0.0,0.0,0.0,0.0,0.0,0.0,0.0,0.0,0.0,0.0,0.0,0.0,0.0,0.0,0.0,0.0,0.0,0.0,0.0,0.0,0.0,0.0,0.0,0.0,0.0,0.0,0.0,0.0,0.0,0.0,0.0,0.0,0.0,0.0,0.0,0.0,0.0,0.0,0.0,0.0,0.0,0.0,0.0,0.0,0.0,0.0,0.0,0.0,0.0,0.0,0.0,0.0,0.0,0.0,0.0,0.0,0.0,0.0,0.0,0.0,0.0,0.0,0.0,0.0,0.0,0.0,0.0,0.0,0.0,0.0,0.0,0.0,0.0,0.0,0.0,0.0,0.0,0.0,0.0,0.0,0.0,0.0,0.0,0.0,0.0,0.0,0.0,0.0,0.0,0.0,0.0,0.0,0.0,0.0,0.0,0.0,0.0,0.0,0.0,0.0,0.0,0.0,0.0,0.0,0.0,0.0,0.0,0.0,0.0,0.0,0.0,0.0,0.0,0.0,0.0,0.0,0.0,0.0,0.0,0.0,0.0,0.0,0.0,0.0,0.0,0.0,0.0,0.0,0.0,0.0,0.0,0.0,0.0,0.0,0.0,0.0,0.0,0.0,0.0,0.0,0.0,0.0,0.0,0.0,0.0,0.0,0.0,0.0,0.0,0.0,0.0,0.0,0.0,0.0,0.0,0.0,0.0,0.0,0.0,0.0,0.0,0.0,0.0,0.0,0.0,0.0,0.0,0.0,0.0,0.0,0.0,0.0,0.0,0.0,0.0,0.0,0.0,0.0,0.0,0.0,0.0,0.0,0.0,0.0,0.0,0.0,0.0,0.0,0.0,0.0,0.0,0.0,0.0,0.0,0.0,0.0,0.0,0.0,0.0,0.0,0.0,0.0,0.0,0.0,0.0,0.0,0.0,0.0,0.0,0.0,0.0,0.0,0.0,0.0,0.0,0.0,0.0,0.0,0.0,0.0,0.0,0.0,0.0,0.0,0.0,0.0,0.0,0.0,0.0,0.0,0.0,0.0,0.0,0.0,0.0,0.0,0.0,0.0,0.0,0.0,0.0,0.0,0.0,0.0,0.0,0.0,0.0,0.0,0.0,0.0,0.0,0.0,0.0,0.0,0.0,0.0,0.0,0.0,0.0,0.0,0.0,0.0,0.0,0.0,0.0,0.0,0.0,0.0,0.0,0.0,0.0,0.0,0.0,0.0,0.0,0.0,0.0,0.0,0.0,0.0,0.0,0.0,0.0,0.0,0.0,0.0,0.0,0.0,0.0,0.0,0.0,0.0,0.0,0.0,0.0,0.0,0.0,0.0,0.0,0.0,0.0,0.0,0.0,0.0,0.0,0.0,0.0,0.0,0.0,0.0,0.0,0.0,0.0,0.0,0.0,0.0,0.0,0.0,0.0,0.0,0.0,0.0,0.0,0.0,0.0,0.0,0.0,0.0,0.0,0.0,0.0,0.0,0.0,0.0,0.0,0.0,0.0,0.0,0.0,0.0,0.0,0.0,0.0,0.0,0.0,0.0,0.0,0.0,0.0,0.0,0.0,0.0,0.0,0.0,0.0,0.0,0.0,0.0,0.0,0.0,0.0,0.0,0.0,0.0,0.0,0.0,0.0,0.0,0.0,0.0,0.0,0.0,0.0,0.0,0.0,0.0,0.0,0.0,0.0,0.0,0.0,0.0,0.0,0.0,0.0,0.0,0.0,0.0,0.0,0.0,0.0,0.0,0.0,0.0,0.0,0.0,0.0,0.0,0.0,0.0,0.0,0.0,0.0,0.0,0.0,0.0,0.0,0.0,0.0,0.0,0.0,0.0,0.0,0.0,0.0,0.0,0.0,0.0,0.0,0.0,0.0,0.0,0.0,0.0,0.0,0.0,0.0,0.0,0.0,0.0,0.0,0.0,0.0,0.0,0.0,0.0,0.0,0.0,0.0,0.0,0.0,0.0,0.0,0.0,0.0,0.0,0.0,0.0,0.0,0.0,0.0,0.0,0.0,0.0,0.0,0.0,0.0,0.0,0.0,0.0,0.0,0.0,0.0,0.0,0.0,0.0,0.0,0.0,0.0,0.0,0.0,0.0,0.0,0.0,0.0,0.0,0.0,0.0,0.0,0.0,0.0,0.0,0.0,0.0,0.0,0.0,0.0,0.0,0.0,0.0,0.0,0.0,0.0,0.0,0.0,0.0,0.0,0.0,0.0,0.0,0.0,0.0,0.0,0.0,0.0,0.0,0.0,0.0,0.0,0.0,0.0,0.0,0.0,0.0,0.0,0.0,0.0,0.0,0.0,0.0,0.0,0.0,0.0,0.0,0.0,0.0,0.0,0.0,0.0,0.0,0.0,0.0,0.0,0.0,0.0,0.0,0.0,0.0,0.0,0.0,0.0,0.0,0.0,0.0,0.0,0.0,0.0,0.0,0.0,0.0,0.0,0.0,0.0,0.0,0.0,0.0,0.0,0.0,0.0,0.0,0.0,0.0,0.0,0.0,0.0,0.0,0.0,0.0,0.0,0.0,0.0,0.0,0.0,0.0,0.0,0.0,0.0,0.0,0.0,0.0,0.0,0.0,0.0,0.0,0.0,0.0,0.0,0.0,0.0,0.0,0.0,0.0,0.0,0.0,0.0,0.0,0.0,0.0,0.0,0.0,0.0,0.0,0.0,0.0,0.0,0.0,0.0,0.0,0.0,0.0,0.0,0.0,0.0,0.0,0.0,0.0,0.0,0.0,0.0,0.0,0.0,0.0,0.0,0.0,0.0,0.0,0.0,0.0,0.0,0.0,0.0,0.0,0.0,0.0,0.0,0.0,0.0,0.0,0.0,0.0,0.0,0.0,0.0,0.0,0.0,0.0,0.0,0.0,0.0,0.0,0.0,0.0,0.0,0.0,0.0,0.0,0.0,0.0,0.0,0.0,0.0,0.0,0.0,0.0,0.0,0.0,0.0,0.0,0.0,0.0,0.0,0.0,0.0,0.0,0.0,0.0,0.0,0.0,0.0,0.0,0.0,0.0,0.0,0.0,0.0,0.0,0.0,0.0,0.0,0.0,0.0,0.0,0.0,0.0,0.0,0.0,0.0,0.0,0.0,0.0,0.0,0.0,0.0,0.0,0.0,0.0,0.0,0.0,0.0,0.0,0.0,0.0,0.0,0.0,0.0,0.0,0.0,0.0,0.0,0.0,0.0,0.0,0.0,0.0,0.0,0.0,0.0,0.0,0.0,0.0,0.0,0.0,0.0,0.0,0.0,0.0,0.0,0.0,0.0,0.0,0.0,0.0,0.0,0.0,0.0,0.0,0.0,0.0,0.0,0.0,0.0,0.0,0.0,0.0,0.0,0.0,0.0,0.0,0.0,0.0,0.0,0.0,0.0,0.0,0.0,0.0,0.0,0.0,0.0,0.0,0.0,0.0,0.0,0.0,0.0,0.0,0.0,0.0,0.0,0.0,0.0,0.0,0.0,0.0,0.0,0.0,0.0,0.0,0.0,0.0,0.0,0.0,0.0,0.0,0.0,0.0,0.0,0.0,0.0,0.0,0.0,0.0,0.0,0.0,0.0,0.0,0.0,0.0,0.0,0.0,0.0,0.0,0.0,0.0,0.0,0.0,0.0,0.0,0.0,0.0,0.0,0.0,0.0,0.0,0.0,0.0,0.0,0.0,0.0,0.0,0.0,0.0,0.0,0.0,0.0,0.0,0.0,0.0,0.0,0.0,0.0,0.0,0.0,0.0,0.0,0.0,0.0,0.0,0.0,0.0,0.0,0.0,0.0,0.0,0.0,0.0,0.0,0.0,0.0,0.0,0.0,0.0,0.0,0.0,0.0,0.0,0.0,0.0,0.0,0.0,0.0,0.0,0.0,0.0,0.0,0.0,0.0,0.0,0.0,0.0,0.0,0.0,0.0,0.0,0.0,0.0,0.0,0.0,0.0,0.0,0.0,0.0,0.0,0.0,0.0,0.0,0.0,0.0,0.0,0.0,0.0,0.0,0.0,0.0,0.0,0.0,0.0,0.0,0.0,0.0,0.0,0.0,0.0,0.0,0.0,0.0,0.0,0.0,0.0,0.0,0.0,0.0,0.0,0.0,0.0,0.0,0.0,0.0,0.0,0.0,0.0,0.0,0.0,0.0,0.0,0.0,0.0,0.0,0.0,0.0,0.0,0.0,0.0,0.0,0.0,0.0,0.0,0.0,0.0,0.0,0.0,0.0,0.0,0.0,0.0,0.0,0.0,0.0,0.0,0.0,0.0,0.0,0.0,0.0,0.0,0.0,0.0,0.0,0.0,0.0,0.0,0.0,0.0,0.0,0.0,0.0,0.0,0.0,0.0,0.0,0.0,0.0,0.0,0.0,0.0,0.0,0.0,0.0,0.0,0.0,0.0,0.0,0.0,0.0,0.0,0.0,0.0,0.0,0.0,0.0,0.0,0.0,0.0,0.0,0.0,0.0,0.0,0.0,0.0,0.0,0.0,0.0,0.0,0.0,0.0,0.0,0.0,0.0,0.0,0.0,0.0,0.0,0.0,0.0,0.0,0.0,0.0,0.0,0.0,0.0,0.0,0.0,0.0,0.0,0.0,0.0,0.0,0.0,0.0,0.0,0.0,0.0,0.0,0.0,0.0,0.0,0.0,0.0,0.0,0.0,0.0,0.0,0.0,0.0,0.0,0.0,0.0,0.0,0.0,0.0,0.0,0.0,0.0,0.0,0.0,0.0,0.0,0.0,0.0,0.0,0.0,0.0,0.0,0.0,0.0,0.0,0.0,0.0,0.0,0.0,0.0,0.0,0.0,0.0,0.0,0.0,0.0,0.0,0.0,0.0,0.0,0.0,0.0,0.0,0.0,0.0,0.0,0.0,0.0,0.0,0.0,0.0,0.0,0.0,0.0,0.0,0.0,0.0,0.0,0.0,0.0,0.0,0.0,0.0,0.0,0.0,0.0,0.0,0.0,0.0,0.0,0.0,0.0,0.0,0.0,0.0,0.0,0.0,0.0,0.0,0.0,0.0,0.0,0.0,0.0,0.0,0.0,0.0,0.0,0.0,0.0,0.0,0.0,0.0,0.0,0.0,0.0,0.0,0.0,0.0,0.0,0.0,0.0,0.0,0.0,0.0,0.0,0.0,0.0,0.0,0.0,0.0,0.0,0.0,0.0,0.0,0.0,0.0,0.0,0.0,0.0,0.0,0.0,0.0,0.0,0.0,0.0,0.0,0.0,0.0,0.0,0.0,0.0,0.0,0.0,0.0,0.0,0.0,0.0,0.0,0.0,0.0,0.0,0.0,0.0,0.0,0.0,0.0,0.0,0.0,0.0,0.0,0.0,0.0,0.0,0.0,0.0,0.0,0.0,0.0,0.0,0.0,0.0,0.0,0.0,0.0,0.0,0.0,0.0,0.0,0.0,0.0,0.0,0.0,0.0,0.0,0.0,0.0,0.0,0.0,0.0,0.0,0.0,0.0,0.0,0.0,0.0,0.0,0.0,0.0,0.0,0.0,0.0,0.0,0.0,0.0,0.0,0.0,0.0,0.0,0.0,0.0,0.0,0.0,0.0,0.0,0.0,0.0,0.0,0.0,0.0,0.0,0.0,0.0,0.0,0.0,0.0,0.0,0.0,0.0,0.0,0.1232,0.1239,0.1235,0.1235,0.1237,0.1234,0.124,0.0769,0.0,0.0,0.0,0.0,0.0,0.0,0.0,0.0,0.0,0.0,0.0,0.0,0.0,0.0,0.0,0.0,0.0,0.0,0.0,0.0,0.0,0.0,0.0,0.0,0.0,0.0,0.0,0.0,0.0,0.0,0.0,0.0,0.0,0.0,0.0,0.0,0.0,0.0,0.0,0.0,1.2182,1.2609,1.2805,1.2737,1.2033,0.0,0.0,0.0,0.0,0.0,0.0,0.0,0.0,0.0,0.0,0.0,0.0,0.0,0.0,0.0,0.0,0.0,0.0,0.0,0.0,0.0,0.0,0.0,0.0,0.0,0.0,0.0,0.0,0.0,0.0,0.0,0.0,0.0,0.0,0.0,0.0,0.0,0.0,0.0,0.0,0.0,0.0,0.0,0.2319,0.8548,0.0,0.0,0.0,0.0,0.0,0.0,0.0,0.0,0.0,0.0,0.0,0.0,0.0,0.0,0.6167,0.6156,0.6166,0.6158,0.6164,0.6165,0.6157,0.6157,0.6171,0.6168,0.6161,0.0,0.0,0.0,0.0,0.0,0.0,0.0,0.0,0.0,0.0,0.0,0.0,0.0,0.0,0.0,0.0,0.0,0.0,0.0,0.0,0.0,0.0,0.0,0.0,0.0,0.0,0.0,0.0,0.0,0.0,0.0,0.0,0.0,0.0,0.0,0.0,0.0,0.0,0.0,1.2349,1.2704,1.2922,1.3288,1.3458,1.3437,1.3003,1.255,1.2101,1.1825,0.0,0.0,0.0,0.0,0.0,0.0,0.0,0.0,0.0,0.0,0.0,0.0,0.0,0.0,0.0,0.0,0.0,0.0,0.0,0.0,0.0,0.0,0.0,0.0,0.0,0.0,0.0,0.0,0.0,0.0,0.0,0.0,0.0,0.0,0.0,0.0,0.0,0.0,0.0,0.3767,0.6057,0.4826,0.5476,0.4423,0.0,0.0,0.0,0.0,0.0,0.0,0.0,0.0,0.0,0.9832,1.0336,1.0797,1.1134,1.1304,1.1468,1.1653,1.1454,1.1463,1.1652,1.1644,1.1552,1.1362,1.1362,1.0107,0.7802,0.4786,0.3438,0.3043,0.0,0.0,0.0,0.0,0.0,0.0,0.0,0.0,0.0,0.0,0.0,0.0,0.0,0.0,0.0,0.0,0.0,0.0,0.0,0.0,0.0,1.7655,0.0,0.0,0.0,0.0,0.0,0.0,0.0,0.0,0.0,0.0,0.0,0.0,1.303,1.3417,1.3688,1.4006,1.4141,1.4101,1.3958,1.3478,1.2759,1.2252,1.196,0.0,0.0,0.0,0.0,0.0,0.0,0.0,0.0,0.0,0.0,0.0,0.0,0.0,0.0,0.0,0.0,0.0,0.0,0.0,0.0,0.0,0.0,0.0,0.0,0.0,0.0,0.0,0.0,0.0,0.0,0.0,0.0,0.0,0.0,0.0,0.0,0.0,0.0,0.7101,0.9974,0.3708,0.6803,0.768,0.0,0.0,0.0,0.0,0.0,0.0,0.8301,1.1088,1.266,1.2679,1.318,1.3736,1.4354,1.4626,1.4927,1.5197,1.495,1.4961,1.5198,1.52,1.5053,1.4836,1.4836,1.4706,1.4159,1.0049,0.8107,0.7452,0.4478,0.448,0.5872,0.3757,0.1712,0.0,0.0,0.0,0.0,0.0,0.0,0.0,0.0,0.0,0.0,0.0,0.0,0.0,0.0,0.0,2.2095,2.0269,2.0645,2.074,0.0,0.0,0.0,0.0,0.0,0.0,0.0,0.0,0.0,1.2969,1.3682,1.4185,1.4446,1.4909,1.5068,1.4932,1.473,1.425,1.3511,1.2915,1.2577,1.2406,0.0,0.0,0.0,0.0,0.0,0.0,0.0,0.0,0.0,0.0,0.0,0.0,0.0,0.0,0.0,0.0,0.0,0.0,0.0,0.0,0.0,0.0,0.0,0.0,0.0,0.0,0.0,0.0,0.0,0.0,0.0,0.0,0.0,0.0,0.0,0.0,0.0,0.0,0.0,1.1265,0.8067,0.0,0.0,0.0,0.0,1.2104,1.2264,1.2349,1.2765,1.2954,1.3092,1.3159,1.3445,1.3873,1.4481,1.4817,1.5049,1.519,1.5173,1.5177,1.5211,1.5204,1.5197,1.5174,1.5174,1.5086,1.4915,1.418,1.3542,1.2963,1.2514,1.0167,0.7352,1.0019,0.6345,0.0,0.0,0.0,0.0,0.0,0.0,0.0,0.0,0.0,0.0,0.0,0.0,0.0,0.0,2.1807,2.2778,2.18,2.1831,2.2229,2.3029,0.0,0.0,0.0,0.0,0.0,0.0,0.0,1.4525,1.3981,1.4538,1.5014,1.5401,1.5666,1.5707,1.5581,1.536,1.5035,1.4563,1.358,1.2942,1.2584,1.2108,1.1739,0.0,0.0,0.0,0.0,0.0,0.0,0.0,0.0,0.0,0.0,0.0,0.0,0.0,0.0,0.0,0.0,0.0,0.0,0.0,0.0,0.0,0.0,0.0,0.0,0.0,0.0,0.0,0.0,0.0,0.0,0.0,0.0,0.0,0.0,0.0,0.0,0.0,1.3545,1.0052,0.0,1.1878,1.139,1.1485,1.2974,1.308,1.3185,1.3404,1.3782,1.4062,1.4148,1.4475,1.478,1.5086,1.5272,1.552,1.5788,1.5788,1.5859,1.6042,1.5947,1.5906,1.59,1.5829,1.5622,1.5371,1.5116,1.4558,1.3823,1.3562,1.2458,1.122,1.2782,1.0028,0.5433,0.0,0.0,0.0,0.0,0.0,0.0,0.0,0.0,0.0,0.0,0.0,2.1378,2.1328,2.3056,2.4095,2.3831,2.3826,2.4084,2.4725,0.0,0.0,0.0,0.0,0.0,0.0,1.7825,1.743,1.6038,1.6608,1.6592,1.6033,1.6157,1.6668,1.7363,1.6317,1.6171,1.6606,1.4773,1.3682,1.3112,1.2548,1.2222,1.202,0.0,0.0,0.0,0.0,0.0,0.0,0.0,0.0,0.0,0.0,0.0,0.0,0.0,0.0,0.0,0.0,0.0,0.0,0.0,0.0,0.0,0.0,0.0,0.0,0.0,0.0,0.0,0.0,0.0,0.0,0.0,0.0,0.0,0.0,0.0,1.331,1.4703,1.2293,1.1283,1.3253,1.3559,1.365,1.3706,1.3858,1.4021,1.4195,1.4629,1.494,1.5113,1.5326,1.553,1.571,1.5787,1.5963,1.6232,1.6232,1.6334,1.6491,1.6397,1.6381,1.6349,1.6273,1.609,1.5828,1.5703,1.5279,1.467,1.4296,1.3992,1.3869,1.4252,1.2805,1.052,0.0,0.0,0.0,0.0,0.0,0.0,0.0,0.0,0.0,0.0,2.1269,2.2365,2.3238,2.4962,2.6158,2.6433,2.668,2.6346,2.5203,2.4561,0.0,0.0,0.0,0.0,2.0282,2.1432,2.1141,1.9279,2.0004,1.9064,1.6618,1.6738,1.8151,2.0449,1.7699,1.7724,1.9661,1.6554,1.4856,1.4171,1.3152,1.284,1.2907,0.0,0.0,0.0,0.0,0.0,0.0,0.0,0.0,0.0,0.0,0.0,0.0,0.0,0.0,0.0,0.0,0.0,0.0,0.0,0.0,0.0,0.0,0.0,0.0,0.0,0.0,0.0,0.0,0.0,0.0,0.0,0.0,0.0,1.2456,1.3372,1.4284,1.5096,1.4686,1.4341,1.4342,1.4235,1.4212,1.434,1.4783,1.5157,1.5418,1.5557,1.573,1.5915,1.5922,1.6046,1.632,1.6302,1.6369,1.6512,1.6512,1.6512,1.6512,1.6512,1.6512,1.6512,1.6505,1.6424,1.6313,1.6157,1.6033,1.586,1.5245,1.5007,1.4964,1.4704,1.4604,1.4561,0.0,0.0,0.0,0.0,0.0,0.0,0.0,0.0,0.0,0.0,2.163,2.3063,2.4137,2.5852,2.7148,2.7657,2.7369,2.6754,2.581,0.0,0.0,0.0,0.0,0.0,2.3742,2.4899,2.4813,2.339,2.3792,2.3792,2.3403,2.3433,2.3781,2.4267,2.126,2.1263,2.3218,1.8048,1.6753,1.7884,1.4751,1.3308,1.2962,0.0,0.0,0.0,0.0,0.0,0.0,0.0,0.0,0.0,0.0,0.0,0.0,0.0,0.0,0.0,0.0,0.0,0.0,0.0,0.0,0.0,0.0,0.0,0.0,0.0,0.0,0.0,0.0,0.0,0.0,0.0,0.0,1.2746,1.2851,1.3432,1.415,1.495,1.5071,1.5132,1.5231,1.5329,1.5425,1.5473,1.5768,1.5927,1.59,1.6137,1.6227,1.6185,1.6286,1.6429,1.66,1.66,1.6681,1.6856,1.6856,1.6856,1.6856,1.6856,1.6856,1.6849,1.6708,1.6615,1.6593,1.6437,1.6374,1.6266,1.5567,1.5221,1.5129,1.4947,1.4735,1.4516,0.0,0.0,0.0,0.0,0.0,0.0,0.0,0.0,0.0,0.0,2.2098,2.3741,2.4519,2.6319,2.7609,2.7965,2.7436,2.6727,2.5844,0.0,0.0,0.0,0.0,2.7433,2.7646,2.8723,2.8582,2.7177,2.7596,2.7338,2.6474,2.6593,2.7149,2.7954,2.4855,2.4883,2.6956,2.1997,2.0685,2.159,1.7896,1.5374,1.3771,1.3261,1.2889,1.2591,1.2298,1.2115,1.1972,1.1665,0.0,0.0,0.0,0.0,0.0,0.0,0.0,0.0,0.0,0.0,0.0,0.0,0.0,0.0,0.0,0.0,0.0,0.0,0.0,0.0,0.0,0.0,0.0,0.0,1.2942,1.3601,1.3954,1.4231,1.4658,1.5374,1.5642,1.5821,1.597,1.6083,1.6155,1.6155,1.6361,1.643,1.6368,1.6585,1.67,1.668,1.6761,1.6816,1.6904,1.6911,1.6951,1.7004,1.7004,1.7004,1.7004,1.7004,1.7004,0.0,1.6883,1.6816,1.681,1.6654,1.6593,0.0,0.0,0.0,0.0,0.0,1.5059,1.4794,0.0,0.0,0.0,0.0,0.0,0.0,0.0,0.0,0.0,0.0,0.0,2.4217,2.4426,2.6326,2.7602,2.7602,2.7074,2.642,0.0,0.0,0.0,2.664,2.8136,2.9713,3.1319,3.2329,3.2181,3.0798,3.138,3.0454,2.8128,2.8357,2.964,3.1576,2.8449,2.8538,3.0738,2.6932,2.5427,2.5315,2.1959,1.8543,1.5363,1.4197,1.3796,1.3769,1.3254,1.2813,1.2433,1.2268,0.0,0.0,0.0,0.0,0.0,0.0,0.0,0.0,0.0,0.0,0.0,0.0,0.0,0.0,0.0,0.0,0.0,0.0,0.0,0.0,0.0,0.0,0.0,0.0,1.3845,1.4565,1.5391,1.5438,1.5598,1.6121,1.6293,1.6442,1.6559,1.6586,1.66,1.66,1.6722,1.677,1.677,0.0,0.0,0.0,0.0,1.7209,1.7195,1.7209,1.7141,1.7004,1.7038,1.7045,1.7032,1.7052,1.7059,1.7059,1.7059,1.7059,1.7019,1.6837,1.673,1.6655,1.6273,1.611,1.6069,1.5746,1.5479,0.0,0.0,0.0,0.0,0.0,0.0,0.0,0.0,0.0,0.0,2.0197,2.2352,2.3781,2.359,2.5606,2.6967,2.6967,2.668,2.6419,0.0,0.0,2.6854,2.8436,3.0167,3.1487,3.2302,3.3653,3.4436,3.4555,3.4935,3.5082,3.4988,3.5037,3.5199,3.5309,3.2007,3.2047,3.4198,2.8385,2.7238,2.9049,2.571,2.1992,1.8185,1.5677,1.445,1.398,1.3627,1.3498,1.3444,1.2976,1.2908,1.2901,1.2271,0.0,0.0,0.0,0.0,0.0,0.0,0.0,0.0,0.0,0.0,0.0,0.0,0.0,0.0,0.0,0.0,0.0,0.0,0.0,0.0,1.3825,1.4706,1.5496,1.6062,1.6422,1.6632,1.6593,1.6754,1.693,1.7046,1.7148,1.7216,1.7216,1.725,1.7263,1.7263,1.7291,0.0,1.7345,1.7351,1.7317,1.7195,1.7317,1.7243,1.7011,0.0,0.0,1.7154,1.7277,1.7311,1.7311,1.7311,1.7311,1.7297,1.7168,1.6938,1.6669,1.6369,1.6266,1.6232,1.5951,1.5703,1.5509,0.0,0.0,0.0,0.0,0.0,0.0,0.0,0.0,0.0,0.0,2.2031,2.3295,2.313,2.4658,2.5626,2.5499,2.5651,0.0,0.0,2.7081,2.835,3.0274,3.1647,3.2837,3.388,3.4909,3.5805,3.65,3.6968,3.741,3.7793,3.7793,3.7676,3.7314,3.5151,3.4981,3.6002,3.2402,3.1603,3.2518,2.9307,2.5723,2.2021,1.8808,1.6451,1.4814,1.4516,1.4258,1.3992,1.3662,1.3485,1.3336,1.2963,1.2765,1.2568,0.0,0.0,0.0,0.0,0.0,0.0,0.0,0.0,0.0,0.0,0.0,0.0,0.0,0.0,1.2427,1.2868,0.0,1.4204,1.498,1.5642,1.6214,1.6686,1.708,1.7202,1.6972,1.7107,1.7229,1.7297,1.7345,1.7392,1.7392,1.7392,1.7392,1.7392,1.7392,1.7426,1.7507,1.7507,1.7473,1.7392,1.7467,1.7392,1.7202,1.7351,1.7351,1.7311,1.7358,1.7392,1.7392,1.7392,1.7392,1.7379,1.7256,1.7066,1.6849,1.67,1.6551,1.6369,1.6246,1.6049,1.5852,0.0,0.0,0.0,0.0,0.0,0.0,0.0,0.0,0.0,0.0,0.0,2.2706,2.2653,2.3567,2.4137,0.0,0.0,0.0,0.0,2.8123,2.9833,3.1861,3.2957,3.4055,3.5257,3.6019,3.6767,3.749,3.8076,3.8504,3.8769,3.8729,3.8584,3.8348,3.7422,3.702,3.702,3.6085,3.5618,3.5298,3.2569,2.9451,2.6026,2.2565,1.8937,1.5658,1.5343,1.4848,1.4319,1.4185,1.39,1.3573,1.3539,1.3411,1.318,1.2861,1.2583,0.0,0.0,0.0,0.0,0.0,0.0,0.0,0.0,1.2079,1.2398,1.2616,1.2989,1.3485,1.4144,1.4584,1.5147,1.6022,1.6463,1.6842,1.7263,1.7534,1.7622,1.7399,1.7473,1.7561,1.7561,1.7568,1.7568,1.7568,1.7568,1.7568,1.7568,1.7568,1.7622,1.7717,1.7744,1.7717,1.771,1.771,1.7622,1.7507,1.7507,1.7548,1.7548,1.7548,1.7548,1.7521,1.7521,1.7446,1.7385,1.729,1.7134,1.7004,1.7004,1.6829,1.6579,1.6552,1.639,1.6205,0.0,0.0,0.0,0.0,0.0,0.0,0.0,0.0,0.0,0.0,0.0,0.0,0.0,0.0,0.0,0.0,0.0,0.0,2.7905,2.9383,3.0992,3.2784,3.4442,3.5391,3.5551,3.6901,3.7676,3.7754,3.8357,3.8795,3.906,3.8809,3.8691,3.8624,3.7742,3.7489,3.7635,3.6513,3.6299,3.6592,3.5218,3.2798,2.9641,2.6265,2.1265,1.5999,1.554,1.4997,1.4468,1.4326,1.4245,1.4177,1.4063,1.409,1.3987,1.3193,1.2813,1.2563,1.2174,1.2064,1.2086,1.2298,1.2386,1.2556,0.0,1.3214,1.339,1.3805,1.4122,1.4448,1.483,1.5547,1.6191,1.641,1.6925,1.7433,1.7765,1.7962,1.8023,1.8002,1.8002,1.807,1.8184,1.8184,1.8184,1.8184,1.8184,1.8184,1.8184,1.8184,1.8205,1.8218,1.8218,1.8151,1.8036,1.8036,1.7968,1.784,1.7948,1.8023,1.8023,1.8023,1.8023,1.803,1.7908,1.767,1.7392,1.7372,1.7229,1.7004,1.7004,1.6984,1.691,1.6749,1.6655,1.6627,0.0,0.0,0.0,0.0,0.0,0.0,0.0,0.0,0.0,0.0,0.0,0.0,0.0,0.0,0.0,0.0,0.0,2.5806,2.7783,2.9753,3.173,3.3668,3.5124,3.5965,3.6112,3.7567,3.8328,3.8328,3.8945,3.9276,3.9383,3.9089,3.8913,3.8886,3.8036,3.7811,3.8038,3.7195,3.6874,3.6833,3.6192,3.3923,3.0676,2.8774,2.4169,1.8422,1.6197,1.497,0.0,0.0,1.4109,1.4046,1.4265,1.4168,1.3938,1.3559,1.3186,1.2806,1.2439,1.2486,1.2656,1.2758,1.3112,1.3526,1.3844,1.4033,1.4263,1.4667,1.5048,1.5435,1.5798,1.6327,1.6863,0.0,1.7717,1.8029,1.837,1.8472,1.8438,1.8247,1.8233,1.8247,1.8293,1.8361,1.8415,1.8415,1.8531,1.8531,1.8415,1.8531,1.8586,1.8586,1.8586,1.8552,1.8506,1.8389,1.8293,1.8247,1.8233,1.8233,1.8233,1.8233,1.8179,1.8105,1.7819,1.7589,1.7385,1.7324,1.7168,1.7004,1.7004,1.7004,1.6998,1.691,1.6803,1.6689,0.0,0.0,0.0,0.0,0.0,0.0,0.0,0.0,0.0,0.0,0.0,0.0,0.0,0.0,0.0,0.0,2.322,2.5125,2.7201,2.953,3.176,3.3855,3.5391,3.6394,3.6727,3.8181,3.8942,3.8942,3.9463,3.9666,3.9599,3.9276,3.91,3.906,3.829,3.8103,3.8357,3.7771,3.7382,3.7099,3.6659,3.474,3.1926,3.0199,2.6436,2.1531,1.7663,1.5348,0.0,0.0,1.3749,1.3708,1.4114,1.4053,1.3781,1.37,1.3329,1.2887,1.2725,1.2908,1.3207,1.337,1.394,1.4511,1.4708,1.4991,1.5293,1.5639,1.5965,1.6311,1.6667,1.6985,1.7385,1.8036,1.8321,1.8565,1.8934,1.8859,1.8703,1.8381,1.8301,1.8247,1.8247,1.8464,1.8611,1.8679,1.8845,1.885,1.8747,1.8884,1.8947,1.8913,1.8947,1.8947,1.8913,1.8728,1.8625,1.8625,1.8511,1.8443,1.8443,1.8327,1.8233,1.8077,1.7798,1.7568,1.7385,1.7304,1.7148,1.7004,1.7004,1.7004,1.7004,1.7004,1.691,1.6789,0.0,0.0,0.0,0.0,0.0,0.0,0.0,0.0,0.0,0.0,0.0,0.0,0.0,0.0,0.0,2.1572,2.2659,2.4217,2.6293,2.8644,3.0875,3.2957,3.5244,3.6767,3.737,3.8827,3.9559,3.9559,3.985,3.985,3.9599,3.9276,3.91,3.9089,3.8533,3.8426,3.8662,3.8034,3.7782,3.7702,3.6833,3.5778,3.4266,3.0406,2.7555,2.5014,2.0226,0.0,0.0,0.0,1.322,1.3268,1.3538,1.3721,1.3741,1.3498,1.3071,1.278,1.3098,1.3376,1.3728,1.4319,1.4923,1.5445,1.5786,1.6151,1.6532,1.6889,1.6964,1.7039,1.7311,1.7494,1.7744,1.8233,1.8581,1.8934,1.9345,1.904,1.8708,1.8523,1.8267,1.8119,0.0,1.8526,1.89,1.9169,1.9183,1.9257,1.9363,1.9383,1.9316,1.9203,1.9295,1.9316,1.9183,1.904,1.8972,1.8972,1.8845,1.8771,1.8771,1.8443,1.8233,1.8091,1.7962,1.7711,1.7392,1.7385,1.7243,1.7004,1.7004,1.7004,1.7004,1.7004,1.7004,1.6998,0.0,0.0,0.0,0.0,0.0,0.0,0.0,0.0,0.0,0.0,0.0,0.0,0.0,0.0,0.0,0.0,2.2355,2.3647,2.5112,2.7608,2.97,3.1206,3.3907,3.5565,3.5925,3.7771,3.8749,3.8749,3.9012,3.8982,3.872,3.8397,3.8357,3.8544,3.8143,3.8143,3.8397,3.7968,3.7781,3.7674,3.6406,3.5658,3.4965,3.1673,2.7776,2.3683,0.0,0.0,0.0,0.0,1.2745,1.282,1.32,1.3295,1.3241,1.2997,1.318,1.3491,1.3737,1.4278,1.4934,1.553,1.6083,1.6558,1.6925,1.7236,1.7412,1.7392,1.7107,1.6882,1.6932,1.6966,1.7236,1.7914,1.8599,1.9183,1.9535,1.9566,1.9253,1.8449,1.8361,0.0,0.0,0.0,0.0,1.904,1.9375,1.9535,1.9606,1.9766,1.98,1.9674,1.9698,1.961,1.9329,1.9275,1.9183,1.8993,1.8859,1.8737,1.8599,1.8381,1.8233,1.8077,1.7717,1.7514,1.7379,1.7209,1.7073,1.7004,1.7004,1.7004,1.7004,1.7004,1.7004,1.7004,0.0,0.0,0.0,0.0,0.0,0.0,0.0,0.0,0.0,0.0,0.0,0.0,0.0,0.0,0.0,0.0,0.0,2.2916,2.4052,2.614,2.7963,2.9374,3.1767,3.3292,3.3761,3.5297,3.6233,3.6541,3.6941,3.7088,3.7049,3.7021,3.7128,3.7343,3.7128,3.7195,3.749,3.7155,3.6833,3.6433,3.5084,3.4148,3.3295,3.0865,2.7419,0.0,0.0,0.0,0.0,0.0,1.2364,1.2432,1.2826,1.2962,1.2996,1.301,1.3518,1.4162,1.4681,1.5371,1.613,1.6781,1.7243,1.7623,1.7941,1.8036,1.7989,1.7819,1.7243,1.6754,1.6696,1.6567,1.6728,1.7528,1.8199,1.885,1.9443,1.9375,1.909,1.862,1.8381,1.8179,0.0,0.0,0.0,1.904,1.9464,1.9742,1.9851,2.0051,2.0119,1.9994,2.001,1.9888,1.959,1.959,1.9413,1.9061,1.8947,1.8728,1.8503,1.8361,1.8233,1.8077,1.7724,1.7521,1.7379,1.7216,1.71,1.7004,1.7004,1.7004,1.7004,1.7004,1.7004,1.7004,0.0,0.0,0.0,0.0,0.0,0.0,0.0,0.0,0.0,0.0,0.0,0.0,0.0,0.0,0.0,0.0,0.0,0.0,2.3162,2.4356,2.5772,2.7468,2.897,3.0185,3.1052,3.1704,3.2438,3.3293,3.3856,3.4309,3.4629,3.5124,3.5364,3.5405,3.5378,3.5565,3.5859,3.5525,3.4884,3.4016,3.2891,3.1406,2.9704,2.823,0.0,0.0,0.0,0.0,0.0,1.3254,1.2118,1.2193,1.2447,1.2765,1.3105,1.3532,1.4094,1.4821,1.589,1.6631,1.7276,1.7989,1.8375,1.8591,1.8771,1.8552,1.8259,1.8091,1.7311,1.6655,1.6621,1.6341,1.6339,1.7073,1.746,1.8042,1.9094,1.8654,1.8409,1.8952,1.8417,1.8105,0.0,0.0,0.0,1.9183,0.0,1.9817,2.0098,2.023,2.0261,2.0098,2.021,2.0173,1.9885,1.9871,1.9624,1.9203,1.904,1.8816,1.8482,1.8347,1.8213,1.8057,1.7942,1.7711,1.7379,1.7379,1.7243,1.7004,1.7004,1.7004,1.7004,1.7004,1.7004,1.7004,0.0,0.0,0.0,0.0,0.0,0.0,0.0,0.0,0.0,0.0,0.0,0.0,0.0,0.0,0.0,0.0,0.0,0.0,2.2285,2.3465,2.4521,2.5346,2.7221,2.8577,2.9237,3.0274,3.1152,3.176,3.192,3.2027,3.2131,3.2051,3.2265,3.2666,3.2427,3.2519,3.2797,3.2454,3.2067,3.161,0.0,3.0016,2.9406,0.0,0.0,0.0,0.0,0.0,1.7005,1.3329,1.2397,1.2805,1.2962,1.3214,1.3572,1.4236,1.5015,1.5886,1.6822,1.7684,1.8458,1.8952,1.9119,1.9119,1.8972,1.8811,1.8438,1.7589,1.6795,1.6117,1.5662,1.5788,1.6216,1.7053,1.8002,1.8938,1.9746,1.9888,1.9735,1.9359,1.9345,1.9253,1.885,1.8997,0.0,0.0,1.9501,1.9712,2.021,2.0372,2.0331,2.0098,2.0139,1.9963,1.9525,1.9325,1.9233,1.9203,1.8801,1.8523,1.8347,1.8213,1.8002,1.7731,1.769,1.7507,1.7249,1.7249,1.7148,1.7004,1.7004,1.7004,1.7004,1.7004,1.7004,1.7004,0.0,0.0,0.0,0.0,0.0,0.0,0.0,0.0,0.0,0.0,0.0,0.0,0.0,0.0,0.0,0.0,0.0,0.0,0.0,2.2636,2.3331,2.3999,2.5152,2.5999,2.6466,2.7275,2.8091,2.8911,2.8911,2.9245,2.9882,2.9579,2.9753,3.0337,3.0154,3.0247,3.0501,3.0207,0.0,0.0,0.0,0.0,0.0,0.0,0.0,0.0,0.0,1.7758,1.6731,1.4673,1.3666,1.3302,1.3601,1.3966,1.4482,1.5364,1.6164,1.6978,1.792,1.8708,1.9375,1.9702,1.9647,1.9413,1.9022,1.8565,1.8002,1.7005,1.6212,1.5571,1.5072,1.5326,1.5809,1.6515,1.7561,1.864,1.9569,1.9769,1.982,1.9732,1.9783,1.9708,1.943,1.9468,1.9644,0.0,1.979,1.9878,2.0277,2.044,2.044,2.0295,2.0295,2.0088,1.9702,1.9434,1.9257,1.9203,1.8884,1.8557,1.8293,1.8158,1.7968,1.7738,0.0,1.7568,1.7297,1.7338,1.7229,1.7011,1.7046,1.7059,1.7004,1.7004,1.7004,1.7004,0.0,0.0,0.0,0.0,0.0,0.0,0.0,0.0,0.0,0.0,0.0,0.0,0.0,0.0,0.0,0.0,0.0,0.0,0.0,0.0,0.0,2.3203,2.3243,2.3407,2.3719,2.4013,2.4668,2.5703,2.5784,2.6453,2.7657,2.7409,2.7602,2.8136,2.8096,0.0,0.0,0.0,0.0,0.0,0.0,0.0,0.0,0.0,0.0,0.0,1.9946,1.7591,1.6164,1.672,1.5711,1.4244,1.4442,1.4909,1.5619,1.6651,1.7344,1.7995,1.8997,1.961,1.9997,2.0264,2.001,1.9518,1.8879,1.8111,1.7263,1.6327,1.5594,1.5025,1.469,1.4943,1.5401,1.5992,1.689,1.7941,1.9203,1.9271,1.9434,2.0085,1.9963,1.9885,1.9973,1.9905,1.9994,2.0298,2.021,2.0196,2.0318,2.044,2.0476,2.0474,2.044,2.0298,2.0064,1.9766,1.9477,1.9169,1.8993,1.8687,1.8259,1.8124,1.8017,1.7854,0.0,0.0,1.7405,1.7548,1.7358,1.7018,1.7141,1.7133,1.7004,1.7004,1.7004,1.7004,0.0,0.0,0.0,0.0,0.0,0.0,0.0,0.0,0.0,0.0,2.025,2.0477,0.0,0.0,0.0,0.0,0.0,0.0,0.0,0.0,0.0,2.293,2.2957,2.3104,2.3376,2.3701,2.3959,2.4191,2.4636,2.4858,2.4909,2.5058,2.5339,2.5697,2.5419,0.0,0.0,0.0,0.0,0.0,0.0,0.0,0.0,0.0,0.0,0.0,2.3282,1.9815,1.5863,1.8541,1.8539,1.7189,1.5998,1.5995,1.6634,1.7589,1.8227,1.8771,1.9566,1.9997,2.0264,2.044,2.0085,1.9464,1.8586,1.7717,1.6734,1.5489,1.4997,1.4663,1.4287,1.4756,1.5639,1.6937,1.769,1.8645,2.0067,2.0264,2.0284,2.0419,2.0526,2.0539,2.0406,2.0526,0.0,0.0,2.0422,2.044,2.0474,2.0494,2.0453,2.0331,2.0119,1.9994,1.9939,1.9518,1.9203,1.9027,1.862,1.8306,1.8124,1.7996,1.7826,1.7656,1.784,0.0,1.7256,1.7507,1.7358,1.7018,1.7141,1.7133,1.7004,1.7004,1.7004,1.7004,0.0,0.0,0.0,0.0,0.0,0.0,0.0,1.9721,1.996,2.0401,2.0468,2.0613,2.104,2.1093,0.0,0.0,0.0,0.0,0.0,0.0,0.0,0.0,0.0,0.0,2.3104,2.3558,2.3933,2.4222,0.0,2.4551,2.4877,2.4538,2.4489,2.4609,2.4457,2.4409,2.4401,0.0,0.0,0.0,0.0,0.0,0.0,0.0,0.0,0.0,0.0,2.2093,1.9302,2.0917,2.085,1.9674,1.7108,1.6781,1.7494,1.8321,1.8913,1.9409,2.0051,2.0438,2.065,2.0668,2.0098,1.9237,1.8083,1.7093,1.606,1.479,1.4441,1.4299,1.4007,1.4624,1.5472,1.6322,1.706,1.8023,1.9522,1.9732,1.9963,2.0594,2.0748,2.0802,2.077,2.077,2.0768,2.0668,2.0562,2.0508,2.0508,2.0508,2.0474,2.0406,2.0153,1.9963,1.9905,1.9501,1.9203,1.8993,1.8599,1.8327,1.8199,1.7996,1.7854,1.7758,1.7854,0.0,1.7419,1.767,1.7494,1.7133,1.7256,1.7175,1.7004,1.7004,1.7004,1.7004,0.0,0.0,0.0,0.0,0.0,0.0,0.0,1.9853,2.008,2.0617,2.075,2.0871,2.1082,2.1093,2.1093,0.0,0.0,0.0,0.0,0.0,0.0,0.0,0.0,0.0,0.0,0.0,0.0,2.4319,2.4177,0.0,0.0,0.0,0.0,0.0,2.4209,2.4035,2.3803,2.3719,0.0,0.0,0.0,2.3616,0.0,0.0,0.0,0.0,0.0,2.3421,2.2093,2.205,2.1804,2.096,1.7512,1.7154,1.8119,1.8708,1.9858,2.085,2.0634,2.1337,2.191,2.1004,2.0031,1.8923,1.7704,1.651,1.5398,1.4273,1.4042,1.3987,1.3822,1.4473,1.5181,1.5591,1.6259,1.7256,1.8757,1.9061,1.9535,2.0594,2.0804,2.0931,2.1001,2.0892,2.0843,2.0802,2.0596,0.0,2.0508,2.0508,2.0508,2.0508,2.023,2.0031,1.9905,1.9556,1.9207,1.8938,1.8654,1.8415,1.8239,1.8051,1.7928,1.7888,1.7888,0.0,0.0,1.7812,1.7643,1.7256,1.7372,1.7256,1.7052,1.7018,1.7004,1.7004,0.0,0.0,0.0,0.0,0.0,0.0,0.0,2.0012,2.0292,2.0643,2.0909,2.1066,2.1109,2.1093,2.1093,0.0,0.0,0.0,0.0,0.0,0.0,0.0,0.0,0.0,0.0,0.0,0.0,2.3412,2.3688,0.0,0.0,0.0,0.0,0.0,0.0,2.4035,2.379,2.3487,0.0,0.0,0.0,0.0,0.0,0.0,0.0,0.0,0.0,2.2575,2.0766,2.0036,2.0101,1.9868,1.6569,1.6769,1.8293,1.8482,2.1501,2.4212,2.1499,2.3201,2.4934,2.1633,1.9817,1.8614,1.7629,1.6191,1.4851,1.4006,1.3843,1.3815,1.3802,1.4223,1.4848,1.572,1.6232,1.7066,1.8594,1.9287,1.9871,2.0453,2.0894,2.1123,2.1021,2.098,2.0933,2.0822,2.0596,0.0,2.0508,2.0508,2.0508,2.0508,2.023,2.0031,1.9905,1.9447,1.9081,1.8811,1.8591,1.8361,1.8111,1.8091,1.8017,1.7888,1.7888,0.0,0.0,1.7812,1.7711,1.7372,1.7385,1.7317,1.7154,1.7026,1.7004,1.7004,0.0,0.0,0.0,0.0,0.0,0.0,1.9507,1.9918,2.0319,2.0672,2.0922,2.1093,2.1093,2.1093,2.1093,0.0,0.0,0.0,0.0,0.0,0.0,0.0,0.0,0.0,0.0,0.0,2.3292,2.3292,2.3638,0.0,0.0,0.0,0.0,0.0,0.0,2.3514,2.3255,2.3117,0.0,0.0,0.0,0.0,0.0,0.0,0.0,0.0,0.0,0.0,2.2573,2.103,2.1063,2.1045,1.7026,1.7048,1.886,2.0506,2.219,2.3581,2.3622,2.3474,2.2918,2.1316,1.9919,1.864,1.7622,1.6151,1.4803,1.4116,1.3884,1.385,1.3966,1.4204,1.4529,1.4977,1.5194,1.5744,1.7004,1.7507,1.8301,1.9681,2.0187,2.0627,2.1178,2.1177,2.1034,2.0822,2.0596,0.0,2.0508,2.0508,2.0474,2.0386,2.0207,2.0007,1.9783,1.9481,1.9183,1.8934,1.8771,1.8511,1.8233,1.8124,1.803,1.7888,1.7888,0.0,0.0,1.7874,1.7711,1.7392,1.7392,1.7277,1.706,1.7032,1.7004,1.7004,0.0,0.0,0.0,0.0,0.0,1.9037,1.9454,1.992,2.0319,2.0672,2.0855,2.1015,2.108,2.1029,2.1015,2.108,0.0,0.0,0.0,0.0,0.0,0.0,0.0,0.0,0.0,0.0,2.3082,2.3176,2.3411,2.3719,0.0,0.0,2.3665,2.3652,0.0,0.0,0.0,0.0,0.0,0.0,0.0,0.0,0.0,0.0,0.0,0.0,0.0,0.0,0.0,0.0,0.0,2.2538,1.7582,1.8298,2.0932,2.0627,2.1624,2.2984,2.3553,2.3269,2.2496,2.1166,1.9854,1.8586,1.7582,1.6083,1.4769,1.4205,1.3946,1.3864,1.4063,1.4219,1.4333,1.4434,1.4563,1.4984,1.5972,1.6449,1.7311,1.8889,1.9359,1.9942,2.0914,2.1109,2.1021,2.0716,2.0594,0.0,2.0508,2.0508,2.044,2.0298,2.0155,1.9963,1.9695,1.9468,1.9237,1.8993,1.8859,1.8635,1.8293,1.8184,1.8057,1.7888,0.0,0.0,0.0,1.784,1.767,1.7453,1.7365,1.7222,1.7039,1.7025,1.7004,1.7004,0.0,0.0,0.0,0.0,0.0,0.0,1.9706,2.0025,2.0319,2.0672,2.0697,2.0804,2.1082,2.0855,2.0817,2.1082,0.0,0.0,0.0,0.0,0.0,0.0,0.0,0.0,0.0,0.0,2.2579,2.2893,2.2907,2.3215,2.3803,2.3456,2.3309,2.3309,0.0,0.0,0.0,0.0,0.0,0.0,0.0,0.0,0.0,0.0,0.0,0.0,0.0,0.0,0.0,0.0,0.0,0.0,0.0,2.0744,2.4911,1.7764,1.9607,2.3329,2.0289,2.275,2.5246,2.1467,1.9505,1.8273,1.7399,1.592,1.4595,1.4185,1.3946,1.3864,1.4063,1.4219,1.4299,1.4299,1.4701,1.5252,1.5999,1.672,1.7473,1.8233,1.8614,1.9165,2.0031,2.0648,2.0846,2.0528,2.0508,0.0,2.0508,2.0508,2.044,2.0298,2.0155,1.9963,1.9695,1.9359,1.9128,1.8993,1.8859,1.8635,1.8293,1.8293,1.8145,0.0,0.0,0.0,0.0,1.7704,1.7595,1.7561,1.7311,1.7195,1.7175,1.7059,1.7004,1.7004,0.0,0.0,0.0,0.0,0.0,0.0,0.0,1.9611,1.9958,2.0067,2.0239,2.0399,2.0479,2.0615,2.0724,2.0817,0.0,0.0,0.0,0.0,0.0,0.0,0.0,0.0,0.0,0.0,2.2442,2.2565,2.28,2.309,2.3443,2.3153,2.3126,2.3296,2.31,2.297,0.0,0.0,0.0,0.0,0.0,0.0,0.0,0.0,0.0,0.0,0.0,0.0,0.0,0.0,0.0,0.0,0.0,0.0,0.0,1.7558,1.9413,2.3141,2.3538,2.3428,2.2823,2.1292,2.0284,1.9061,1.681,1.5398,1.4493,1.4278,1.3999,1.3897,1.4183,1.4265,1.4367,1.4548,1.4808,1.5109,1.5442,1.6286,1.7182,1.8057,2.1459,2.3008,2.1168,2.2957,2.3292,2.1006,2.0629,0.0,2.0508,2.0508,2.0406,2.0155,2.0031,1.98,1.9501,1.9383,1.9207,1.8993,1.8968,1.8708,1.8293,1.8213,0.0,0.0,0.0,0.0,0.0,1.7643,1.75,1.7338,1.7318,1.7222,1.7066,1.7222,1.7216,1.7154,0.0,0.0,0.0,0.0,0.0,0.0,0.0,1.9492,1.98,1.98,1.9945,2.0145,2.0359,2.0468,2.0601,2.0831,0.0,0.0,0.0,0.0,0.0,0.0,0.0,0.0,0.0,2.2111,2.2258,2.2258,2.2693,2.3,2.3153,2.2987,2.2983,2.314,2.297,2.284,0.0,0.0,0.0,0.0,0.0,0.0,2.2716,0.0,0.0,0.0,0.0,0.0,0.0,0.0,0.0,0.0,0.0,0.0,0.0,0.0,1.9302,2.1677,2.2891,2.2354,2.1587,2.2117,2.1136,1.9537,1.7563,1.5717,1.4407,1.4319,1.4033,1.3889,1.4245,1.4299,1.436,1.4521,1.4746,1.4977,1.5228,1.6099,1.7564,1.9936,2.3474,2.4952,2.2996,2.5818,2.6385,2.3038,2.3698,0.0,2.2452,2.2381,2.1682,2.0167,2.001,1.9786,1.9404,1.9349,1.9203,1.8934,1.885,1.862,1.8233,1.8124,0.0,0.0,0.0,0.0,0.0,1.7595,1.744,1.7202,1.7297,1.7188,1.7032,1.7188,1.7229,1.7182,0.0,0.0,0.0,0.0,0.0,0.0,0.0,0.0,1.9773,1.9773,1.9773,1.9973,2.0552,2.0359,2.0439,2.0986,0.0,0.0,0.0,0.0,0.0,0.0,0.0,0.0,0.0,2.1836,2.1967,2.1967,2.2572,2.2867,2.2867,2.288,2.2893,2.2893,2.2893,2.2716,0.0,0.0,0.0,0.0,0.0,0.0,0.0,0.0,0.0,0.0,0.0,0.0,0.0,0.0,0.0,0.0,0.0,0.0,0.0,0.0,0.0,0.0,0.0,2.02,2.1419,2.3545,2.1967,1.9707,1.91,1.6514,0.0,1.4499,1.4135,1.3954,1.4458,1.4409,1.4306,1.4326,1.4548,1.4955,1.5594,1.6698,1.9011,2.3234,2.5112,2.5891,2.5455,2.9132,3.0014,2.6337,2.8822,0.0,2.6013,2.5821,2.4294,2.0899,2.0754,2.0315,1.9383,1.9257,1.9027,1.8771,1.8586,1.8347,1.8091,1.8105,0.0,0.0,0.0,0.0,0.0,1.7595,1.744,1.7195,1.7202,1.714,1.7011,1.7032,1.7087,1.7175,0.0,0.0,0.0,0.0,0.0,0.0,0.0,0.0,0.0,0.0,1.9495,1.9548,1.9682,1.9998,2.0264,0.0,0.0,0.0,0.0,0.0,0.0,0.0,0.0,0.0,0.0,2.1542,2.1689,2.1689,2.2248,2.2525,2.2508,2.2769,2.2893,2.2893,2.2893,2.2716,0.0,0.0,0.0,0.0,0.0,0.0,0.0,0.0,0.0,0.0,2.2867,2.2947,0.0,0.0,0.0,0.0,0.0,0.0,0.0,0.0,2.1259,0.0,2.1805,0.0,2.1314,2.3368,2.2192,2.0053,0.0,1.569,1.4448,1.6355,1.5189,1.4442,1.657,1.5513,1.4373,1.4575,1.4794,1.5757,1.82,2.2112,2.4585,2.4134,2.959,3.2122,2.8863,3.2343,3.3331,2.9777,3.0144,3.0149,2.9371,2.9113,2.8552,2.754,2.7111,2.4426,1.9287,1.9022,1.8782,1.8557,1.8415,1.8267,1.8091,1.7996,0.0,0.0,0.0,0.0,1.7595,1.7595,1.744,1.7202,1.7317,1.7209,1.7012,1.7236,1.7263,1.7188,0.0,0.0,0.0,0.0,0.0,0.0,0.0,0.0,0.0,0.0,0.0,0.0,0.0,0.0,0.0,0.0,0.0,0.0,0.0,0.0,0.0,0.0,0.0,2.1093,2.1093,2.1435,2.1598,2.1598,2.2021,2.2268,2.2402,2.2579,2.2676,2.2662,2.2412,2.2261,0.0,0.0,0.0,0.0,2.2462,0.0,0.0,0.0,0.0,0.0,2.2676,2.2769,0.0,2.3732,2.3986,2.4093,0.0,0.0,0.0,0.0,2.2487,2.2109,2.3452,2.3005,2.2701,2.4873,2.3874,2.2012,2.0661,1.8464,1.7087,1.8506,1.7671,1.7188,1.8875,1.8135,1.7413,1.7845,1.8294,1.9462,2.1942,2.4885,2.7335,2.8791,3.2781,3.4717,0.0,3.618,3.6873,3.3267,0.0,3.4418,3.2897,3.2525,3.1511,2.9683,2.913,2.6411,2.1319,2.1004,2.0,1.8321,1.8247,1.8124,1.8017,1.7928,1.7888,0.0,0.0,0.0,1.7521,1.7568,1.7406,1.7107,1.7256,1.7175,1.7025,1.7161,1.7209,1.7182,0.0,0.0,0.0,0.0,0.0,0.0,0.0,0.0,0.0,0.0,0.0,0.0,0.0,0.0,0.0,0.0,0.0,0.0,0.0,0.0,0.0,0.0,0.0,2.1093,2.1093,2.1379,2.1515,2.1515,2.1887,2.2151,2.2335,2.2468,2.2495,2.2375,2.1874,2.1756,0.0,0.0,0.0,0.0,2.2194,0.0,0.0,0.0,0.0,0.0,0.0,0.0,0.0,2.3794,2.411,2.4289,2.4802,0.0,0.0,0.0,0.0,0.0,2.4605,2.4725,2.4722,2.6634,2.5599,2.409,2.4043,2.1989,2.023,2.0754,2.0506,2.0433,2.1239,2.1222,2.1243,2.1749,2.2955,2.4342,2.5809,2.72,2.9683,3.4006,3.5234,3.605,3.6895,3.9564,3.9906,3.6674,0.0,3.9244,3.6357,3.5891,3.4209,3.0908,3.0334,2.8435,2.5043,2.4272,2.2386,1.9431,1.9416,1.9308,1.921,1.9168,1.8928,0.0,0.0,0.0,1.744,1.7541,1.7351,1.7052,1.7174,1.7133,1.7004,1.7004,1.7086,1.7141,0.0,0.0,0.0,0.0,0.0,0.0,0.0,0.0,0.0,0.0,0.0,0.0,0.0,0.0,0.0,0.0,0.0,0.0,0.0,0.0,0.0,2.1093,2.1093,2.1093,2.1093,2.1149,2.1176,2.1176,2.1964,2.2228,2.2087,2.2815,2.2895,2.2388,2.2087,2.1836,2.1679,0.0,0.0,0.0,0.0,0.0,0.0,0.0,0.0,0.0,0.0,0.0,0.0,2.3327,2.3777,2.4222,2.4315,0.0,0.0,0.0,0.0,0.0,2.5196,2.5871,2.6319,2.622,2.4944,2.3607,2.3323,2.1531,2.0599,2.2953,2.1889,2.1253,2.3655,2.3085,2.2276,2.236,2.5808,2.8339,2.7939,3.2598,3.5572,3.44,3.7651,3.9652,3.8797,4.0098,4.0628,3.9822,0.0,4.0162,3.9359,3.9053,3.8384,3.7302,3.6708,3.4633,3.094,2.805,2.6215,2.5466,2.5284,2.5205,2.5167,2.494,2.3647,0.0,0.0,1.9669,1.7548,1.7473,1.7338,1.7161,1.7182,1.7133,1.7004,1.7004,1.7018,1.7038,0.0,0.0,0.0,0.0,0.0,0.0,0.0,0.0,0.0,0.0,0.0,0.0,0.0,0.0,0.0,0.0,0.0,0.0,0.0,0.0,0.0,2.1093,2.1093,2.1093,2.1093,2.1285,2.1446,2.159,2.2121,2.2495,2.2695,2.2775,2.2588,2.2164,2.171,2.1459,2.1352,2.1807,0.0,0.0,0.0,0.0,0.0,0.0,0.0,0.0,0.0,0.0,0.0,0.0,2.3848,2.4235,2.4364,0.0,0.0,0.0,0.0,0.0,2.4951,2.5678,2.6353,2.6232,2.6148,2.6006,2.5653,2.4711,2.4266,2.5506,2.507,2.493,2.6522,2.6651,2.7015,2.8608,3.1076,3.2821,3.2924,3.5482,3.7216,0.0,0.0,3.997,4.0077,4.0575,4.0802,0.0,0.0,0.0,4.004,3.9746,3.9268,3.8504,3.7889,3.6541,3.4313,3.2598,3.0022,2.6626,2.6552,2.6502,2.6492,2.6216,2.4622,2.2068,0.0,1.9926,1.7372,1.7324,1.7209,1.708,1.708,1.7039,1.7004,1.7004,1.7004,1.7004,0.0,0.0,0.0,0.0,0.0,0.0,0.0,0.0,0.0,0.0,0.0,0.0,0.0,0.0,0.0,0.0,0.0,0.0,0.0,0.0,2.1042,2.1109,2.1093,2.1093,2.1093,2.1435,2.1729,2.2007,2.2402,2.2895,2.3403,2.2722,2.2258,2.1981,2.1443,2.1176,2.1149,2.1686,2.194,0.0,0.0,0.0,0.0,0.0,0.0,0.0,0.0,0.0,0.0,0.0,0.0,0.0,0.0,0.0,0.0,2.4871,2.4778,2.4751,2.4885,2.551,2.6172,2.6433,2.7181,2.7911,2.7989,2.7756,2.7617,2.7965,2.8184,2.8457,2.8938,2.99,3.1506,3.4282,3.5498,3.6446,3.738,3.7607,3.8075,3.9276,3.9423,3.9783,4.0722,4.0802,4.0695,0.0,0.0,0.0,3.9823,3.953,3.8985,3.8133,3.7555,3.6874,3.5979,3.5712,3.3206,2.8548,2.8548,2.8548,2.8548,2.8164,2.6554,2.3913,2.2823,2.0753,1.8104,1.742,1.708,1.7004,1.7004,1.7004,1.7004,1.7004,1.7004,1.7004,0.0,0.0,0.0,0.0,0.0,0.0,0.0,0.0,0.0,0.0,0.0,0.0,0.0,0.0,0.0,0.0,0.0,0.0,0.0,0.0,2.0844,2.108,2.1093,2.1093,2.1093,2.1435,2.1729,2.2007,2.2829,2.342,2.3732,2.2832,2.2258,2.1994,2.1689,2.1379,2.112,2.1475,2.177,2.2021,0.0,0.0,0.0,0.0,0.0,0.0,0.0,0.0,0.0,0.0,0.0,0.0,0.0,0.0,2.5149,2.5384,2.5264,2.5189,2.5757,2.6125,2.6446,2.67,2.6834,2.7248,2.8588,2.8519,2.8513,2.9905,3.0199,3.0226,3.0266,3.1647,3.3479,3.5631,3.6901,3.8034,3.9239,0.0,3.993,4.0364,4.0405,4.0431,4.0508,4.0538,0.0,0.0,0.0,0.0,3.9207,3.8916,3.8357,3.7489,3.7128,3.6513,3.5645,3.5618,3.5258,3.457,3.457,3.457,3.4544,3.3967,3.2279,2.961,2.6358,2.3451,2.0804,1.8111,1.7018,1.7004,1.7004,1.7004,1.7004,1.7004,1.7004,1.7004,0.0,0.0,0.0,0.0,0.0,0.0,0.0,0.0,0.0,0.0,0.0,0.0,0.0,0.0,0.0,0.0,0.0,0.0,0.0,2.0414,2.0737,2.0857,2.1015,2.1093,2.1093,2.1593,2.2074,2.2559,2.3264,2.3567,2.3474,2.2735,2.2164,2.1743,2.1652,2.1529,2.1448,2.19,2.2151,2.2285,2.2596,0.0,0.0,0.0,0.0,0.0,0.0,0.0,0.0,0.0,2.3505,2.4066,0.0,0.0,2.5331,0.0,2.5189,2.5149,2.5382,2.5797,2.6259,2.6687,2.6961,2.7516,2.8978,2.9441,2.9824,3.0715,3.1366,0.0,3.1981,3.3318,3.4857,3.6339,3.7742,3.8982,4.0,4.0254,4.0361,4.0468,4.0512,4.0512,4.0512,4.0512,0.0,0.0,0.0,0.0,3.8886,3.8582,3.8036,3.7128,3.6647,3.6153,3.5605,3.5418,3.5311,3.5191,3.5191,3.5191,3.5177,3.4589,3.2839,3.0188,2.8475,2.6215,2.3646,2.2546,2.1077,1.9383,1.768,1.7004,1.7004,1.7004,1.7004,1.7004,0.0,0.0,0.0,0.0,0.0,0.0,0.0,0.0,0.0,0.0,0.0,0.0,0.0,0.0,0.0,0.0,0.0,0.0,1.9786,2.0189,2.0456,2.0535,2.0815,2.1015,2.1109,2.1606,2.2154,2.2743,2.3344,2.3474,2.3149,2.2642,2.2205,2.185,2.1756,2.177,2.1877,2.2151,2.2321,2.2415,2.2662,2.2813,0.0,0.0,0.0,0.0,0.0,0.0,0.0,0.0,2.342,0.0,0.0,0.0,0.0,0.0,0.0,2.5216,2.5122,2.539,2.5864,2.64,2.6994,2.789,2.9633,3.0444,3.1126,3.2214,3.2812,3.3278,3.3746,3.4576,0.0,0.0,3.8288,3.9559,4.0361,4.0512,4.0512,4.0512,4.0512,4.0512,4.0512,4.0401,0.0,0.0,0.0,0.0,0.0,3.8103,3.7529,3.6806,3.6233,3.5738,3.5324,3.5164,3.5057,3.5057,3.4963,3.4977,3.507,3.4549,3.324,3.1284,2.9901,2.824,2.6367,2.4624,2.2286,1.9689,1.8686,1.7758,1.7004,1.7004,1.7004,1.7004,0.0,0.0,0.0,0.0,0.0,0.0,0.0,0.0,0.0,0.0,0.0,0.0,0.0,0.0,0.0,0.0,0.0,0.0,1.9773,1.98,1.9918,2.0184,2.0521,2.0831,2.108,2.1435,2.186,2.2402,2.3002,2.3153,2.288,2.2552,2.2402,2.2375,2.2124,2.2151,2.2388,2.2124,2.2164,2.2402,2.2415,2.2605,0.0,0.0,0.0,0.0,0.0,0.0,0.0,0.0,2.3323,0.0,0.0,0.0,0.0,2.5824,2.5764,2.5451,2.5176,2.5096,2.5243,2.5864,2.6861,2.8337,3.0679,3.1463,3.2369,3.4723,3.475,3.4577,3.5445,3.5404,0.0,3.7168,3.8653,3.9813,4.0431,4.0512,4.0512,4.0512,4.0512,4.0512,4.0512,4.0184,0.0,0.0,0.0,0.0,0.0,3.738,3.6766,3.65,3.5898,3.5311,3.4711,3.475,3.4815,3.4776,3.4456,3.4469,3.4776,3.4456,3.4162,3.3741,3.0668,2.9344,2.8913,2.344,1.9558,1.7346,2.0053,1.9436,1.7004,1.7004,1.7004,1.7004,0.0,0.0,0.0,0.0,0.0,0.0,0.0,0.0,0.0,0.0,0.0,0.0,0.0,0.0,0.0,0.0,0.0,0.0,1.9507,1.9708,1.984,1.992,2.043,2.0753,2.0817,2.1328,2.186,2.2402,2.2588,2.2539,2.2261,2.2365,2.2205,2.1877,2.2592,2.2722,2.2428,2.2762,2.2859,2.2769,2.2949,2.2979,2.292,0.0,0.0,0.0,0.0,0.0,0.0,0.0,0.0,0.0,0.0,0.0,0.0,2.5651,2.5585,2.5451,2.5176,2.5243,2.5625,2.6667,2.7762,2.9237,3.1647,3.2273,3.3038,3.5591,3.5979,3.5939,3.6193,3.6659,0.0,3.7607,3.8758,3.9813,4.0431,4.0512,4.0512,4.0512,4.0512,4.0401,4.0187,4.0067,0.0,0.0,0.0,0.0,0.0,3.6873,3.6393,3.5885,3.5324,3.4963,3.4763,3.4549,3.4456,3.4456,3.4362,3.4469,3.4776,3.4268,3.3975,3.3843,3.2678,3.2183,3.1894,2.8342,2.524,2.2674,2.1544,1.9436,1.7004,1.7004,1.7004,1.7004,0.0,0.0,0.0,0.0,0.0,0.0,0.0,0.0,0.0,0.0,1.8116,1.841,0.0,0.0,0.0,0.0,0.0,0.0,0.0,1.9547,1.9694,1.98,2.0254,2.0615,2.0857,2.1341,2.1686,2.1881,2.2121,2.2164,2.2007,2.2508,2.2659,2.2519,2.3554,2.367,2.3136,2.3496,2.35,2.3281,2.3554,2.3567,2.3438,0.0,0.0,0.0,0.0,0.0,0.0,0.0,0.0,0.0,2.4559,2.509,2.5617,2.5531,2.5424,2.5331,2.5264,2.5384,2.5852,2.7309,2.8612,3.0274,3.3011,3.4161,3.5217,3.7127,3.7354,3.7263,3.7354,3.7607,0.0,3.8261,3.9129,3.9933,4.0431,4.0512,4.0512,4.0512,4.0361,4.0214,4.004,3.9677,0.0,0.0,0.0,0.0,0.0,3.6433,3.5912,3.5471,3.503,3.4682,3.4441,3.4242,3.4148,3.4148,3.4015,3.4122,3.4428,3.408,3.3814,3.3681,3.3494,3.2774,3.1718,3.1164,2.8673,2.5035,2.3388,2.1051,1.8503,1.7391,1.7004,1.7004,0.0,0.0,0.0,0.0,0.0,0.0,0.0,0.0,0.0,0.0,1.7809,1.8089,0.0,0.0,0.0,0.0,0.0,0.0,0.0,0.0,1.9522,1.9786,2.0092,2.0504,2.108,2.1408,2.1408,2.1093,2.1686,2.1967,2.1981,2.2869,2.3487,2.3843,2.4708,2.4756,2.4209,2.4168,2.4013,2.3772,2.4075,2.4195,2.4168,2.4195,0.0,0.0,0.0,0.0,0.0,0.0,0.0,0.0,2.4564,2.4845,2.5149,2.5398,2.5291,2.5163,2.5438,2.5552,2.6066,2.7898,2.961,3.162,3.4656,3.6647,3.8076,3.8876,3.8691,3.8506,3.8769,3.8397,3.8288,3.906,3.9677,4.0147,4.0431,4.0468,4.0471,4.0431,4.0187,3.997,3.989,3.9169,0.0,0.0,0.0,0.0,0.0,3.6019,3.5431,3.5164,3.4869,3.4455,3.392,3.3855,3.3841,0.0,3.3547,3.3561,3.3841,3.3841,3.3681,3.3414,3.3414,3.1982,2.9876,3.2359,3.0306,2.5574,2.5574,2.3878,2.1129,1.8406,1.7372,1.7346,0.0,0.0,0.0,0.0,0.0,0.0,0.0,0.0,0.0,0.0,0.0,0.0,0.0,0.0,0.0,0.0,0.0,0.0,0.0,0.0,1.9522,1.9786,2.0307,2.0748,2.108,2.1176,2.1176,2.1093,2.1486,2.1692,2.1703,2.2792,2.3487,2.3843,2.4708,2.4756,2.4195,2.3986,2.3688,2.3443,2.3995,2.4062,2.3906,2.4115,2.3981,0.0,0.0,0.0,0.0,0.0,0.0,0.0,2.489,2.5042,2.5109,2.5176,2.5149,2.5163,2.5438,2.5993,2.7007,2.9032,3.1864,3.4576,3.6165,3.7382,3.8252,3.8426,3.8905,3.9383,3.9677,3.9813,3.9893,3.9823,4.0147,4.0334,4.0147,4.0334,4.0324,3.9853,3.992,3.9714,3.9062,3.8809,0.0,0.0,0.0,0.0,3.6286,3.5645,3.5151,3.4896,3.4375,3.404,3.3881,3.3641,3.3507,0.0,3.3415,3.3454,3.3507,3.3507,3.348,3.3414,3.3414,3.305,3.256,3.315,3.1441,2.8418,2.8418,2.6725,2.3981,2.1233,2.0227,1.9923,0.0,0.0,0.0,0.0,0.0,0.0,0.0,0.0,0.0,0.0,0.0,0.0,0.0,0.0,0.0,0.0,0.0,0.0,0.0,0.0,1.9574,1.9972,2.0456,2.0831,2.108,2.1093,2.1093,2.1093,2.1285,2.1515,2.181,2.2832,2.3616,2.4222,2.5122,2.5109,2.4377,2.423,2.4084,2.3959,2.4449,2.4609,2.4641,2.477,2.4476,2.3973,0.0,0.0,0.0,0.0,0.0,0.0,0.0,0.0,2.489,2.5056,2.5096,2.5216,2.5772,2.668,2.8171,3.1089,3.3627,3.5725,3.702,3.7702,3.8183,3.8582,3.9159,3.964,3.9786,4.0067,4.0254,4.0254,4.0254,4.0184,4.0007,4.004,3.9963,3.964,3.9463,3.9196,3.8729,3.833,0.0,0.0,0.0,3.6085,3.5672,3.5097,3.4643,3.4375,3.4042,3.3814,3.3654,3.3494,3.3414,3.3414,3.3414,3.3414,3.3414,3.3414,3.3414,3.3414,3.3414,3.3414,3.3414,3.3414,3.2573,3.1139,2.98,2.8418,2.6828,2.4084,2.3053,2.2855,0.0,0.0,0.0,0.0,0.0,0.0,0.0,0.0,0.0,0.0,0.0,0.0,0.0,0.0,0.0,0.0,0.0,0.0,0.0,0.0,0.0,2.0104,2.0494,2.0804,2.1029,2.1082,2.1093,2.1093,2.1093,2.1456,2.2168,2.2936,2.3812,2.4786,2.5524,2.5417,2.4684,2.4538,2.4426,2.4399,2.473,2.5042,2.5291,2.5291,2.4863,2.4257,0.0,0.0,0.0,0.0,0.0,0.0,0.0,0.0,2.4738,2.4943,2.4997,2.5184,2.6012,2.7409,2.949,3.3024,3.4803,3.6019,3.7354,3.7742,3.8036,3.8809,3.9265,3.9533,3.9599,3.9786,4.004,4.0294,4.0107,3.989,3.985,3.9637,3.9493,3.9386,3.8876,3.8515,3.8408,3.7702,0.0,0.0,0.0,3.5418,3.5204,3.4589,3.4135,3.392,3.3828,3.3681,3.3389,3.3414,3.3387,3.3334,3.3334,3.3334,3.3334,3.3334,3.336,3.3414,3.3414,3.3414,3.3414,3.3414,3.3414,3.3175,3.0899,3.0015,2.9674,2.693,2.5907,2.583,0.0,0.0,0.0,0.0,0.0,0.0,0.0,0.0,0.0,0.0,1.7595,0.0,0.0,0.0,0.0,0.0,0.0,0.0,0.0,0.0,0.0,1.9853,2.0403,2.0726,2.075,2.0975,2.1093,2.1093,2.1093,2.1686,2.2786,2.314,2.4044,2.5384,2.5283,2.5149,2.4989,2.4227,2.3741,2.3492,2.3839,2.4133,2.4382,2.4382,2.4444,0.0,0.0,0.0,0.0,0.0,2.5042,0.0,0.0,0.0,2.497,2.4738,2.4671,2.4818,2.5464,2.7989,3.1019,3.3307,3.499,3.6193,3.6873,3.742,3.7929,3.8319,3.8809,3.9276,3.9559,3.964,3.9666,3.9706,3.968,3.9559,3.9276,3.9196,3.8982,3.8533,3.8143,3.7714,3.7207,3.6834,3.6513,0.0,3.5605,3.5231,3.5204,3.4402,3.3921,3.3881,3.3614,3.3454,3.3414,3.3414,3.328,3.3064,3.3064,3.3064,3.3064,3.3064,3.3173,3.3414,3.3414,3.3414,3.3414,3.3414,3.3414,3.3364,3.3,3.2849,3.251,2.9775,2.876,2.8418,0.0,0.0,0.0,0.0,0.0,0.0,0.0,0.0,0.0,0.0,0.0,1.7595,0.0,0.0,0.0,0.0,0.0,0.0,0.0,0.0,0.0,1.9786,2.0054,2.0349,2.0684,2.0817,2.0949,2.1093,2.1093,2.1884,2.3415,2.3531,2.4374,2.5764,2.5451,2.5237,2.5042,2.4178,2.3719,2.3581,2.3732,2.4035,2.4431,2.4431,2.4511,0.0,0.0,0.0,0.0,0.0,0.0,2.4818,2.4818,0.0,0.0,0.0,2.4738,2.5264,2.6994,2.8956,3.1092,3.3534,3.499,3.6019,3.6726,3.7233,3.7676,3.7956,3.821,3.8515,3.9012,3.9089,3.9089,3.9089,3.8974,3.8827,3.8651,3.8475,3.8221,3.7851,3.7489,3.7127,3.6727,3.6433,3.6139,0.0,3.5311,3.4883,3.471,3.4015,3.3614,3.3614,3.348,3.3414,3.3414,3.3253,3.3051,3.2781,3.2781,3.2781,3.2781,3.2781,3.2917,3.3173,3.3173,3.3253,3.3414,3.3414,3.3414,3.3414,3.3414,3.3414,3.325,3.2033,3.1592,3.1416,0.0,0.0,0.0,0.0,0.0,0.0,0.0,0.0,0.0,0.0,0.0,0.0,0.0,0.0,0.0,0.0,0.0,0.0,0.0,0.0,0.0,1.9694,1.9826,2.012,2.0548,2.0724,2.0895,2.1093,2.1189,2.2138,2.3906,2.4071,2.4949,2.6406,2.5932,2.5571,2.527,2.4387,2.4053,2.4093,2.3799,2.4008,2.4511,2.4572,0.0,2.4613,0.0,0.0,0.0,0.0,0.0,0.0,0.0,2.4724,0.0,0.0,0.0,2.5464,2.7728,2.9135,3.0549,3.3015,3.451,3.5605,3.6473,3.698,3.7342,3.7635,3.7702,3.7809,3.8181,3.833,3.8368,3.8368,3.8145,3.7929,3.7929,3.7676,3.738,3.7195,3.6834,3.6473,3.6206,3.5939,3.5645,3.5298,3.4856,3.4468,3.4229,3.3708,3.3414,3.3414,3.3334,3.3307,3.3307,3.2957,3.2703,3.2594,3.2514,3.2463,3.2463,3.2463,3.257,3.2784,3.2931,3.3146,3.3414,3.3414,3.3414,3.3414,3.3414,3.3414,3.3414,3.3414,3.3414,3.3414,0.0,0.0,0.0,0.0,0.0,0.0,0.0,0.0,0.0,0.0,0.0,0.0,0.0,0.0,1.8597,1.8864,0.0,0.0,0.0,0.0,0.0,1.9415,1.992,0.0,2.0224,2.0786,2.1096,2.1093,2.1422,2.2479,2.4195,2.4756,2.5965,2.7575,2.672,2.6205,2.5891,2.497,2.4738,2.4935,2.3794,0.0,0.0,0.0,0.0,0.0,0.0,0.0,0.0,0.0,0.0,0.0,0.0,0.0,0.0,0.0,0.0,0.0,2.6186,2.7768,2.9517,3.138,3.3295,3.4978,3.5939,3.654,3.702,3.7342,3.7422,3.7342,3.706,3.7233,3.7477,3.7477,3.7195,3.698,3.698,3.6726,3.6553,3.654,3.6019,3.5551,3.5297,3.503,3.4736,3.439,3.4108,3.3921,3.3908,3.3587,3.3414,3.3414,3.3146,3.3024,3.3024,3.2438,3.2302,3.2594,3.2289,3.2131,3.2131,3.2131,3.2131,3.2185,3.2757,3.3146,3.3414,3.3414,3.3414,3.3414,3.3414,3.3414,3.3414,3.3414,3.3414,3.3414,0.0,0.0,0.0,0.0,0.0,0.0,0.0,0.0,0.0,0.0,0.0,0.0,0.0,1.8303,1.8611,1.889,1.9213,0.0,0.0,0.0,0.0,1.9654,2.0012,2.0306,2.0508,2.0737,2.0938,2.1093,2.1216,2.2194,2.3959,2.4529,2.5531,2.6841,2.6533,2.6353,2.6165,2.489,2.4404,0.0,0.0,0.0,0.0,0.0,0.0,0.0,0.0,0.0,0.0,0.0,0.0,0.0,0.0,0.0,0.0,2.4644,2.4866,2.5352,2.6172,2.7549,2.9077,3.0511,3.2262,3.3801,3.4509,3.5404,3.6099,3.6206,3.642,3.6541,3.6393,3.662,3.6767,3.658,3.646,3.638,3.638,3.6286,3.6086,3.5712,3.5485,3.5164,3.4683,3.4536,3.4429,3.4296,3.4055,3.3801,3.3587,3.3467,3.324,3.2891,3.2957,3.2824,3.2425,3.2211,3.2064,3.2032,3.1901,3.1848,3.1848,3.1848,3.1955,3.2118,3.2318,3.261,3.2891,3.3078,3.3133,3.3146,3.3334,3.3414,3.3414,3.3414,3.3414,3.3414,0.0,0.0,0.0,0.0,0.0,0.0,0.0,0.0,0.0,0.0,0.0,0.0,0.0,0.0,1.8758,1.9052,1.936,1.952,1.952,1.9786,1.9932,1.9932,2.0212,2.0468,2.0699,2.0712,2.0831,2.1093,2.1093,2.1924,2.3509,2.415,2.5045,2.6092,2.6092,2.6373,2.6747,0.0,0.0,2.5317,0.0,0.0,2.5205,0.0,0.0,0.0,0.0,0.0,0.0,0.0,0.0,0.0,0.0,0.0,0.0,0.0,2.4965,2.5451,2.5838,2.6961,2.8337,2.9749,3.1045,3.2265,3.3467,3.4336,3.4937,3.5244,3.5498,3.5725,3.5885,3.5845,3.5778,3.5805,3.5645,3.5511,3.5511,3.5511,3.5338,3.495,3.4897,3.471,3.4229,3.4175,3.4135,3.4028,0.0,0.0,3.3427,3.332,3.3,3.2436,3.261,3.2452,3.1957,3.1957,3.1888,3.1687,3.1687,3.1687,3.1687,3.1687,3.1794,3.1957,3.1957,3.2209,3.2621,3.2891,3.2998,3.3038,3.3293,3.3414,3.3414,3.3414,3.3414,3.3414,0.0,0.0,0.0,0.0,0.0,0.0,0.0,0.0,0.0,0.0,0.0,0.0,0.0,0.0,0.0,1.9401,1.9667,1.9813,1.9813,2.005,2.021,2.021,0.0,0.0,0.0,2.071,2.0844,2.1093,2.1093,2.1713,2.2893,2.3772,2.4618,2.5459,2.5504,2.6286,2.7602,0.0,2.7101,2.7575,0.0,2.5879,2.6513,0.0,0.0,0.0,2.7081,2.6914,0.0,0.0,0.0,0.0,0.0,0.0,0.0,0.0,0.0,2.5122,0.0,0.0,0.0,2.8965,2.9619,3.0438,3.2761,3.3282,3.3549,3.4444,3.4696,3.4909,3.5458,3.4857,3.447,3.507,3.4683,3.4296,3.4296,3.4296,3.4296,3.4283,3.4283,3.4163,3.3895,3.3893,3.3748,3.3402,3.3375,3.3362,3.3387,3.3106,3.2703,3.2118,3.2091,3.1957,3.1701,3.1687,3.1687,3.1687,3.1687,3.1687,3.1687,3.1687,3.1687,3.1687,3.1687,3.2021,3.2594,3.2864,3.2971,3.3011,3.3267,3.3387,3.34,3.34,3.3375,3.3414,0.0,0.0,0.0,0.0,0.0,0.0,0.0,0.0,0.0,0.0,0.0,0.0,0.0,1.9252,1.9679,1.9958,2.0052,2.0077,2.0077,2.0388,2.0548,2.0548,2.0828,2.0989,2.0989,2.0989,2.1029,2.1093,2.1093,2.1496,2.2261,2.3153,2.391,2.4609,2.547,2.5951,2.6079,2.5453,0.0,2.7549,2.5879,2.6072,0.0,0.0,0.0,0.0,0.0,2.6994,2.7021,0.0,2.6794,2.6633,0.0,0.0,0.0,0.0,0.0,0.0,2.5216,0.0,0.0,0.0,0.0,0.0,2.9944,3.0558,3.1316,3.2864,3.321,3.3517,3.447,3.4309,3.4055,3.4215,3.4282,3.4296,3.4296,3.4296,3.4242,3.4028,3.4002,3.3881,3.3574,3.3547,3.3507,0.0,3.3213,3.3038,3.2824,3.2329,3.2075,3.2104,3.1904,3.1781,3.1687,3.1687,3.1687,3.1687,3.1687,3.1687,3.1687,3.1687,3.1687,3.1687,3.1687,3.1781,3.1955,3.2249,3.2345,3.2372,3.269,3.2944,3.3118,3.3118,3.3227,3.3414,0.0,0.0,0.0,0.0,0.0,0.0,0.0,0.0,0.0,0.0,0.0,0.0,1.9211,1.9691,2.0039,2.0184,2.0332,2.0399,2.0399,2.0695,2.1183,2.1885,2.1393,2.1729,2.3108,2.1683,2.1652,0.0,0.0,0.0,0.0,0.0,0.0,0.0,2.535,2.5781,2.5098,0.0,0.0,0.0,2.646,0.0,0.0,2.7743,2.7816,0.0,0.0,0.0,2.8526,2.801,2.7596,0.0,0.0,0.0,0.0,0.0,0.0,0.0,0.0,0.0,0.0,2.7081,0.0,0.0,2.8729,2.9112,2.9628,3.1152,3.166,3.2155,3.32,3.3253,3.3227,3.3467,3.3654,3.3801,3.3896,3.3909,3.3881,3.3708,3.3694,3.3574,3.3253,3.3334,3.3307,3.3066,3.312,3.2998,3.2621,3.2128,3.1901,3.1917,3.1781,3.1687,3.1687,3.1687,3.1687,3.1687,3.1687,3.1687,3.1687,3.1687,3.1687,3.1687,3.1687,3.1687,3.1701,3.1874,3.1998,3.2131,3.2474,3.2768,3.2998,3.2998,3.316,3.3414,0.0,0.0,0.0,0.0,0.0,0.0,0.0,0.0,0.0,0.0,1.8904,1.9331,1.9933,2.0185,2.0317,2.0344,2.0758,2.0939,2.0753,2.1135,2.2041,2.3527,2.2168,2.2828,2.5939,2.2907,2.2845,0.0,0.0,0.0,0.0,0.0,0.0,0.0,0.0,2.5641,2.4417,0.0,0.0,2.6319,2.7241,2.8043,0.0,0.0,2.9918,0.0,3.0364,3.0457,3.0279,2.9085,2.8131,0.0,0.0,0.0,0.0,0.0,2.614,0.0,0.0,0.0,0.0,0.0,0.0,0.0,2.8356,2.8412,2.846,2.9539,3.0181,3.0835,3.1784,3.1984,3.2158,3.2637,3.2824,3.3024,3.332,3.336,3.3347,3.332,3.332,3.3213,3.2984,3.316,3.3106,3.2634,3.3011,3.3013,3.2474,3.2209,3.1928,3.1607,3.162,3.162,3.1594,3.162,3.1647,3.1647,3.1674,3.1687,3.1687,3.1687,3.1687,3.1687,3.1687,3.1687,3.1687,3.1687,3.1848,3.2078,3.2393,3.2701,3.2957,3.2957,3.3145,3.3374,1.9241,0.0,0.0,0.0,0.0,0.0,0.0,0.0,0.0,0.0,2.0,2.0577,2.1181,2.1042,2.1029,2.1301,2.2369,2.246,2.1108,2.2328,2.3263,2.3589,2.3279,2.4023,2.5969,2.5326,2.531,0.0,0.0,0.0,0.0,0.0,0.0,0.0,0.0,0.0,2.3322,0.0,0.0,2.5457,2.6547,0.0,2.9374,2.9766,3.006,3.0364,3.0862,3.0902,3.0591,0.0,2.8754,2.7898,0.0,0.0,0.0,0.0,0.0,0.0,0.0,0.0,0.0,0.0,0.0,0.0,2.6787,2.7208,2.7989,2.8711,2.8951,2.9446,3.0795,3.1236,3.1276,3.0952,3.1687,3.2465,3.2986,3.3091,3.2998,3.277,3.2768,3.2741,3.2688,3.2728,3.2714,3.2607,3.2449,3.2104,3.1493,3.1674,3.154,3.0982,3.1196,3.1196,3.0992,3.1196,3.1316,3.1293,3.158,3.1687,3.1687,3.1687,3.1687,3.1687,3.1687,3.1687,3.1687,3.1687,3.1727,3.1781,3.1848,3.2195,3.2674,3.2674,3.2837,3.3118,1.9172,0.0,0.0,0.0,0.0,0.0,0.0,0.0,1.9718,2.0189,2.0764,2.1315,2.1756,2.1526,2.1422,2.1585,2.2064,2.2341,2.2341,2.3123,2.4317,2.5925,2.5238,2.6053,2.8685,2.695,2.6887,2.8745,0.0,0.0,0.0,0.0,0.0,0.0,0.0,0.0,2.4547,0.0,2.6349,2.5243,2.6861,0.0,2.9588,3.0265,3.0849,3.1313,3.1754,3.162,3.1099,3.0047,2.9521,0.0,0.0,2.7395,2.7442,0.0,2.7168,2.7288,0.0,0.0,0.0,2.7535,0.0,0.0,0.0,2.6707,2.6867,2.777,2.7709,2.7856,2.9032,2.9366,2.9513,2.9673,3.0314,3.0996,3.1607,3.2195,3.257,3.2594,3.2436,3.2289,3.2166,3.242,3.2594,3.2594,3.1998,3.1573,3.145,3.145,3.1249,3.0808,3.0929,3.0942,3.0795,3.1076,3.1199,3.1199,3.153,3.1687,3.1687,3.1687,3.1687,3.1687,3.1687,3.1687,3.1687,3.1687,3.1687,3.1687,3.1687,3.2072,3.2594,3.2594,3.285,3.3213,1.9052,0.0,0.0,0.0,0.0,0.0,0.0,0.0,2.0452,2.0898,2.1712,2.2399,2.2739,0.0,0.0,2.3002,2.2716,2.3056,2.4329,2.4487,2.5681,2.8289,2.7149,2.7998,3.1312,2.8469,2.8391,3.1391,0.0,0.0,0.0,0.0,0.0,0.0,0.0,2.9142,2.6306,2.8479,0.0,2.6265,0.0,2.9334,2.9299,3.0665,3.1823,3.2736,3.3171,3.2748,3.1754,3.0501,0.0,3.023,2.8371,2.835,0.0,0.0,0.0,0.0,0.0,0.0,0.0,0.0,0.0,2.7541,0.0,0.0,0.0,2.6968,2.674,2.6627,2.7388,2.7535,2.7749,2.8396,2.8965,2.9481,2.9918,3.0912,3.173,3.2126,3.1888,3.161,3.146,3.1845,3.2112,3.2166,3.1463,3.1169,3.1457,3.1249,3.0959,3.0635,3.0675,3.0675,3.0621,3.0969,3.1119,3.1119,3.1436,3.1634,3.1687,3.158,3.1594,3.1687,3.1567,3.1594,3.1687,3.1634,3.1647,3.1687,3.1687,3.2021,3.2514,3.2567,3.2864,3.3253,1.9348,1.9105,0.0,0.0,0.0,0.0,0.0,0.0,2.0938,2.1753,2.3518,2.4926,0.0,0.0,0.0,0.0,0.0,0.0,2.7419,0.0,2.8021,2.8382,2.8215,2.9027,3.0928,3.0562,3.0547,3.0972,0.0,0.0,0.0,0.0,0.0,0.0,3.1067,2.9615,2.6875,2.9183,2.9937,0.0,3.2772,3.1534,0.0,3.0358,3.2669,3.4876,3.5673,3.4632,3.2637,0.0,3.0889,3.0932,0.0,2.933,2.905,0.0,0.0,0.0,0.0,0.0,0.0,0.0,2.9294,0.0,0.0,0.0,2.763,2.67,0.0,2.6493,2.6834,0.0,0.0,2.672,2.7829,2.8631,2.8473,2.9236,3.0016,3.0587,3.0341,3.0261,3.0511,3.0327,3.0327,3.0641,3.0537,3.052,3.0547,3.0738,3.0595,3.0011,3.0297,3.031,3.002,3.0568,3.0849,3.0849,3.1142,3.141,3.1674,3.1152,3.1193,3.166,3.1139,3.1206,3.1674,3.1383,3.1436,3.1687,3.1687,3.1888,3.2185,3.25,3.2634,3.2768,1.9735,1.9294,0.0,0.0,0.0,0.0,0.0,0.0,2.3892,2.437,2.6527,2.8264,0.0,0.0,0.0,0.0,0.0,2.8739,0.0,0.0,2.9693,3.0902,3.0721,3.1038,3.1977,3.1773,3.1655,3.1655,3.2051,0.0,0.0,0.0,0.0,0.0,3.2898,3.2171,3.0994,0.0,3.3076,0.0,0.0,0.0,0.0,3.5044,3.7149,3.8679,3.9053,3.7511,3.509,0.0,3.2719,0.0,0.0,0.0,0.0,0.0,0.0,0.0,0.0,0.0,0.0,0.0,0.0,0.0,2.7756,0.0,2.7048,0.0,0.0,0.0,0.0,0.0,0.0,0.0,2.6907,2.7335,2.7375,2.7696,2.847,2.9927,0.0,0.0,2.9842,2.9557,2.9504,2.9856,2.9869,2.9802,2.9606,3.0034,3.0087,2.9673,2.9953,3.0047,2.9891,3.0327,3.0564,3.0564,3.0835,3.1036,3.1179,3.0925,3.0952,3.1179,3.1076,3.1183,3.141,3.1463,3.158,3.1687,3.1687,3.1874,3.2118,3.2262,3.253,3.285,2.1219,0.0,0.0,0.0,0.0,0.0,0.0,0.0,0.0,0.0,0.0,0.0,3.2019,3.1652,0.0,0.0,3.1383,3.1,0.0,0.0,3.1533,0.0,0.0,0.0,0.0,3.2457,3.2316,3.2198,3.2613,3.2851,0.0,0.0,0.0,0.0,0.0,3.4463,3.436,0.0,3.6441,3.4903,3.797,3.8932,3.8688,4.0074,4.0774,4.111,4.1852,4.0299,3.7785,3.7047,3.5297,0.0,3.2246,0.0,0.0,0.0,0.0,0.0,2.9566,0.0,0.0,0.0,0.0,0.0,0.0,0.0,0.0,0.0,0.0,0.0,0.0,0.0,0.0,0.0,0.0,2.6587,2.6767,2.6727,2.7274,2.8863,0.0,0.0,0.0,2.8925,2.8885,2.912,2.9134,2.9058,2.8903,2.9304,2.9539,2.9508,2.9686,2.9833,2.9891,3.023,3.04,3.0413,3.0591,3.0738,3.0782,3.0621,3.0635,3.0795,3.0929,3.1052,3.1226,3.1463,3.162,3.1687,3.1687,3.1821,3.1998,3.2078,3.2449,3.2891,2.4364,2.4336,0.0,0.0,0.0,0.0,0.0,0.0,0.0,0.0,0.0,0.0,0.0,0.0,0.0,0.0,0.0,3.5765,3.5816,0.0,3.3855,0.0,0.0,3.3008,0.0,3.2593,3.2593,3.2198,3.2613,3.3008,0.0,0.0,0.0,0.0,3.555,3.5683,3.5441,3.8498,3.9694,3.9804,4.2454,4.4989,4.6927,0.0,4.2061,4.0872,4.3544,0.0,0.0,4.0196,3.8624,0.0,0.0,0.0,0.0,0.0,0.0,0.0,0.0,0.0,0.0,2.953,0.0,0.0,0.0,0.0,2.8457,0.0,0.0,0.0,0.0,0.0,0.0,0.0,0.0,0.0,0.0,2.6587,2.6533,2.686,0.0,0.0,0.0,2.8219,2.824,2.8253,2.8253,2.8353,2.8604,2.8644,2.8911,2.9481,2.9521,2.9633,2.9891,3.023,3.04,3.04,3.0413,3.0551,3.0768,3.0207,3.0261,3.0782,3.0524,3.0725,3.1199,3.1213,3.141,3.1687,3.1687,3.1701,3.1741,3.1998,3.2316,3.2648,2.8209,0.0,0.0,0.0,0.0,0.0,0.0,2.9274,0.0,0.0,0.0,0.0,0.0,3.964,4.0176,0.0,0.0,3.8732,3.8164,3.7307,0.0,0.0,0.0,3.5586,0.0,0.0,3.4434,3.3469,3.359,3.3727,3.3864,3.3539,0.0,0.0,0.0,3.6551,3.7624,0.0,0.0,0.0,0.0,4.6621,4.8353,0.0,0.0,4.6178,4.7122,4.574,0.0,4.3433,4.1619,3.9395,3.9179,3.8127,3.6559,3.4659,3.3883,0.0,0.0,0.0,3.154,3.0257,0.0,0.0,0.0,0.0,0.0,0.0,0.0,0.0,0.0,0.0,0.0,0.0,0.0,2.6694,0.0,2.5665,2.5459,2.6192,2.6954,2.7395,0.0,0.0,2.7443,2.7034,2.7008,2.7048,2.7134,2.7696,2.8211,2.8634,2.8978,2.9325,2.9633,2.9749,2.9896,3.0074,3.0074,3.0114,3.0207,2.9984,2.9998,3.0234,3.0515,3.0778,3.0969,3.1356,3.1607,3.1687,3.1687,3.1687,3.1701,3.1808,3.2155,3.2661,3.0464,0.0,0.0,0.0,0.0,0.0,0.0,0.0,0.0,0.0,3.8761,0.0,4.2558,0.0,4.2656,0.0,4.2207,4.1074,3.9766,3.9415,0.0,3.7363,3.7734,0.0,0.0,3.6448,3.5918,3.4313,0.0,3.4782,3.4746,3.416,3.459,3.5896,3.6428,3.748,3.8964,4.1152,4.2578,0.0,0.0,4.7637,0.0,0.0,4.8913,4.8913,0.0,4.7718,4.6155,4.6327,4.4522,4.2225,4.2112,4.1127,3.9446,3.6642,3.5643,3.4849,3.2238,3.1767,0.0,3.0912,3.0528,0.0,2.9195,0.0,0.0,0.0,0.0,0.0,0.0,0.0,0.0,2.793,2.7281,2.6487,0.0,2.509,0.0,2.561,2.6372,2.6821,2.6794,2.6907,2.678,2.6286,2.6152,2.6119,0.0,0.0,2.7575,2.8018,2.8577,2.9063,2.9508,2.9508,2.9633,2.9891,2.9891,2.9891,2.9891,2.9891,2.9891,2.9931,3.0541,3.0765,3.0711,3.1406,3.1634,3.1517,3.1647,3.1687,3.1687,3.1687,3.2086,3.2674,3.1128,0.0,0.0,0.0,3.2012,0.0,0.0,0.0,3.84,0.0,4.1465,4.3046,4.4375,4.4141,4.4082,4.4512,4.4141,0.0,4.0918,4.1504,0.0,0.0,3.875,3.8398,3.6272,3.7424,0.0,0.0,0.0,3.6057,3.6018,3.5159,3.543,3.6697,3.7541,3.838,3.9375,4.2402,4.4217,4.5291,4.7402,4.8262,4.832,4.8734,0.0,4.8933,4.8913,4.8617,4.8301,4.8714,4.7241,4.5124,4.486,4.3064,4.0396,3.6963,3.6335,3.6006,3.261,3.2324,3.2781,3.1867,0.0,0.0,0.0,0.0,3.1469,0.0,0.0,0.0,0.0,0.0,0.0,2.8334,2.7369,2.6246,2.4813,0.0,2.5082,0.0,2.5623,2.6152,2.6687,2.6507,2.6246,2.5971,2.5638,2.5598,2.5931,0.0,2.7047,2.7642,2.827,2.8885,2.9481,2.9495,2.9633,2.9891,2.9891,2.9891,2.9891,2.9904,2.9918,2.9944,3.0555,3.0684,3.052,3.134,3.1503,3.1253,3.158,3.1701,3.1714,3.1727,3.2112,3.2674,3.1905,3.2344,3.2871,0.0,3.3023,3.3379,0.0,0.0,0.0,0.0,4.3086,4.4822,4.6111,4.6465,4.6663,4.678,4.6367,0.0,0.0,0.0,0.0,4.1699,4.1934,4.123,3.9395,3.9669,0.0,3.7596,0.0,0.0,3.6502,3.5937,3.5842,3.625,3.7734,3.8553,3.8944,4.1973,4.4473,4.656,4.8109,4.8887,0.0,0.0,4.9086,4.9316,4.9007,4.8812,4.8675,4.846,4.8184,4.783,4.7408,4.6819,4.576,4.3039,4.2139,4.1426,3.8945,3.8427,3.8505,3.8079,3.7627,3.7205,0.0,0.0,0.0,0.0,0.0,0.0,0.0,0.0,0.0,0.0,2.6707,0.0,0.0,0.0,0.0,2.5344,2.5363,2.547,2.5792,2.5766,2.5611,2.535,2.5024,2.4978,2.531,0.0,0.0,2.7007,2.8035,2.877,2.913,2.9379,2.9633,2.9891,2.9891,2.9891,2.9904,3.0163,3.027,3.0297,3.0862,3.1076,3.1036,3.1513,3.1647,3.158,3.166,3.1821,3.2035,3.2286,3.246,3.2674,3.3078,0.0,0.0,3.5388,0.0,0.0,3.6953,0.0,0.0,4.209,4.4082,0.0,4.654,4.7363,4.7851,4.7851,4.7461,0.0,4.6348,0.0,0.0,4.3711,4.3828,4.2949,4.0859,4.0996,0.0,3.8592,0.0,0.0,3.7498,3.6484,3.6194,3.6641,3.7987,3.8592,3.8827,4.2227,4.5039,4.7285,4.8226,4.8851,0.0,4.8991,4.9046,4.9199,4.8968,4.8776,4.8578,4.8538,4.8558,4.8578,4.8538,4.8519,4.8018,4.5518,4.4591,4.3864,4.1561,4.0921,4.0888,4.072,4.0333,3.9938,3.9784,3.9439,3.8751,0.0,0.0,0.0,0.0,0.0,0.0,0.0,0.0,0.0,0.0,0.0,0.0,0.0,2.5211,2.5237,2.5125,2.5579,2.5611,2.4943,2.5211,0.0,0.0,0.0,0.0,2.6627,2.8022,2.885,2.9001,2.9593,2.9909,2.9891,2.9891,2.9891,2.9904,3.0087,3.0257,3.0426,3.0835,3.1036,3.1076,3.1513,3.162,3.1503,3.1781,3.2062,3.2356,3.265,3.2781,3.2824,3.4567,0.0,0.0,0.0,0.0,0.0,0.0,4.0254,0.0,4.3302,0.0,4.635,4.668,4.7715,4.8379,4.8379,0.0,4.7444,4.668,4.6911,4.6384,4.4883,4.5037,4.4082,4.1758,4.1895,0.0,0.0,0.0,0.0,3.8397,3.6894,3.6506,3.7168,3.8221,3.8807,3.9257,4.2851,4.5527,4.7405,4.7969,4.8499,4.8913,4.8913,4.8913,4.8913,4.8913,4.8636,4.834,4.8695,4.8578,4.834,4.8695,4.8855,4.8435,4.6195,4.5502,4.5031,4.2816,4.2195,4.2195,4.2195,4.2005,4.1751,4.1751,4.1226,4.0625,4.0251,3.9305,0.0,0.0,0.0,0.0,0.0,0.0,0.0,0.0,0.0,0.0,0.0,0.0,0.0,2.4706,2.5651,2.5825,2.4679,2.5565,0.0,0.0,0.0,0.0,2.6406,2.8009,2.897,2.9108,0.0,3.023,3.0034,2.9971,2.998,2.998,3.0038,3.0234,3.0511,3.0805,3.0925,3.0965,3.1487,3.154,3.1319,3.1891,3.2302,3.2634,3.2891,3.3024,3.3091,3.6697,0.0,0.0,0.0,0.0,4.1582,4.2637,4.332,4.4199,4.5566,4.7558,4.8864,4.8942,4.9137,4.9273,4.9273,4.891,0.0,0.0,0.0,0.0,4.7073,4.6406,4.5547,4.4354,4.3359,4.2344,0.0,0.0,0.0,3.7519,3.7226,3.6777,3.6311,3.8242,3.9883,4.1367,4.3496,0.0,4.6154,4.7617,4.8499,4.8913,4.8913,4.8913,4.8913,4.8913,4.8855,4.8714,4.8441,4.8538,4.8714,4.8418,4.8597,4.8801,4.8343,4.8227,4.8134,4.7674,4.7539,4.7539,4.7539,4.7524,4.7467,4.7467,4.7044,4.6021,4.362,4.2481,4.1019,3.8017,0.0,0.0,0.0,0.0,0.0,0.0,0.0,0.0,0.0,0.0,2.569,0.0,2.5411,2.5365,2.4653,0.0,0.0,0.0,0.0,0.0,0.0,2.7649,0.0,0.0,0.0,3.0207,3.0635,3.0417,3.031,3.0323,3.0782,3.0999,3.1089,3.1406,3.154,3.1554,3.1647,3.166,3.1647,3.1971,3.2302,3.2634,3.2891,3.3133,3.3347,3.8516,0.0,0.0,0.0,0.0,0.0,0.0,4.6306,0.0,4.6074,4.7243,4.8161,4.8161,4.918,4.9863,4.9863,4.9691,4.9476,4.9219,4.9004,4.8594,4.793,4.7519,0.0,4.5681,4.418,4.3086,4.2461,0.0,0.0,0.0,3.7303,3.6641,3.6057,3.7559,3.9668,4.2167,0.0,0.0,4.6113,4.7383,4.8304,4.8913,4.8913,4.8913,4.8913,4.8913,4.8913,4.8874,4.8636,4.8558,4.8538,4.8558,4.8714,4.8913,4.8913,4.8913,4.8913,4.8913,4.8913,4.8913,4.8913,4.8913,4.8855,4.8597,4.8359,4.769,4.5845,4.502,4.3477,3.9727,3.7235,0.0,0.0,0.0,0.0,0.0,0.0,0.0,0.0,0.0,0.0,0.0,0.0,0.0,0.0,0.0,0.0,0.0,0.0,0.0,0.0,0.0,0.0,0.0,0.0,0.0,3.0341,3.0194,3.023,3.0413,3.0671,3.0942,3.1213,3.1383,3.1554,3.1687,3.1687,3.1874,3.2179,3.2302,3.2623,3.3038,3.3146,3.3293,3.3414,0.0,4.084,0.0,0.0,4.4452,0.0,4.7009,4.859,4.8926,4.6917,4.7285,4.7731,4.7731,4.9277,5.0336,5.0336,5.0258,5.0039,4.9664,4.9566,4.9195,4.8516,4.8301,4.7734,4.6738,4.5019,4.3828,0.0,0.0,0.0,0.0,0.0,3.6758,0.0,0.0,0.0,0.0,0.0,4.412,4.625,4.7327,4.8187,4.8913,4.8913,4.8913,4.8913,4.8913,4.8913,4.8913,4.8913,4.8656,4.8398,4.8773,4.8913,4.8913,4.8913,4.8913,4.8913,4.8913,4.8913,4.8913,4.8913,4.8913,4.8792,4.8418,4.8281,4.7966,4.7204,4.6582,4.5076,4.144,3.964,0.0,0.0,0.0,0.0,0.0,0.0,0.0,0.0,0.0,0.0,2.4706,0.0,0.0,0.0,0.0,0.0,0.0,0.0,0.0,0.0,0.0,2.8596,2.9197,0.0,3.0408,0.0,3.0105,3.0261,3.0564,3.0631,3.0912,3.1316,3.1316,3.145,3.1701,3.1754,3.2062,3.2514,3.2634,3.2944,3.3334,3.3387,3.3414,3.3414,0.0,0.0,0.0,0.0,0.0,0.0,4.8008,4.9238,5.0063,4.9809,5.0156,5.0449,5.0449,5.0625,5.0742,5.0742,5.0391,5.018,5.0141,4.9746,4.9469,4.9391,4.861,4.8144,4.8005,4.6367,4.4904,0.0,0.0,0.0,0.0,0.0,0.0,0.0,0.0,0.0,0.0,4.3223,4.4805,4.59,4.75,4.846,4.8913,4.8913,4.8913,4.8913,4.8913,4.8913,4.8913,4.8913,4.8874,4.8855,4.8894,4.8913,4.8913,4.8913,4.8913,4.8913,4.8913,4.8913,4.8913,4.8913,4.8913,4.8894,4.8855,4.8519,4.8066,4.764,4.6584,4.4902,4.2182,4.2174,4.1591,0.0,0.0,0.0,0.0,0.0,0.0,2.8977,0.0,0.0,0.0,2.5152,0.0,0.0,2.6413,0.0,0.0,0.0,0.0,2.6419,0.0,2.8198,2.9797,2.9686,3.0114,3.1079,3.0835,3.0862,3.1132,3.1447,3.1607,3.1647,3.1647,3.166,3.1714,3.1957,3.2091,3.2198,3.2757,3.2998,3.3078,3.332,3.3414,3.3414,0.0,0.0,0.0,0.0,0.0,0.0,0.0,5.082,5.143,5.166,5.1172,5.0801,5.0801,5.1011,5.1148,5.1148,5.1011,5.082,5.0566,5.0156,4.9805,4.9508,4.8926,4.8617,4.8617,4.7168,4.5918,0.0,0.0,0.0,0.0,0.0,0.0,0.0,0.0,4.0605,4.2168,4.373,4.5176,4.6523,4.7734,4.8499,4.8913,4.8913,4.8913,4.8913,4.8913,4.8913,4.8913,4.8913,4.8913,4.8913,4.8913,4.8913,4.8913,4.8913,4.8913,4.8913,4.8913,4.8913,4.8913,4.8913,4.8913,4.8835,4.8558,4.8558,4.8363,4.7383,4.6387,4.5368,4.4314,4.3559,4.2783,0.0,0.0,0.0,0.0,0.0,0.0,0.0,0.0,2.7162,0.0,0.0,0.0,0.0,0.0,0.0,0.0,0.0,0.0,2.6393,0.0,2.8123,2.9357,2.9806,3.027,3.0725,3.0768,3.0942,3.1199,3.1343,3.1503,3.1687,3.1687,3.1794,3.1944,3.2051,3.2305,3.2652,3.2917,3.3118,3.3253,3.3374,3.3414,3.3414,4.5681,0.0,4.6897,0.0,4.9046,4.9945,5.1406,5.1894,5.2226,5.2656,5.1933,5.1367,5.1367,5.1523,5.1597,5.1597,5.1479,5.1284,5.1016,5.0488,5.0039,4.9703,4.9183,0.0,4.8913,4.7832,4.6894,4.6055,4.4258,0.0,0.0,0.0,0.0,0.0,4.0312,4.168,4.336,4.4609,4.5898,4.7165,4.8047,4.8597,4.8913,4.8913,4.8913,4.8913,4.8913,4.8913,4.8913,4.8913,4.8913,4.8913,4.8913,4.8913,4.8913,4.8913,4.8913,4.8913,4.8913,4.8913,4.8913,4.8913,4.8913,4.8815,4.8499,4.8558,4.8363,4.7146,4.6367,4.5881,4.5881,4.4767,4.3868,4.3906,0.0,0.0,0.0,0.0,0.0,0.0,2.9678,2.8035,2.5278,2.4925,0.0,0.0,0.0,0.0,0.0,0.0,0.0,0.0,0.0,0.0,0.0,2.9833,3.0337,3.0511,3.0782,3.1076,3.1356,3.1356,3.1517,3.1821,3.1821,3.1981,3.2238,3.2318,3.2637,3.3011,3.3091,3.3227,3.3414,3.3414,3.3414,3.3414,4.7327,4.7891,4.873,5.0469,5.0781,5.1074,5.1978,5.2095,5.2226,5.2656,5.2695,5.2695,5.2695,5.2324,5.2095,5.2095,5.168,5.1401,5.1401,5.0644,5.0199,0.0,0.0,4.8913,4.8913,4.8418,4.7751,4.6892,0.0,0.0,4.1172,0.0,4.0723,4.125,4.3399,4.4101,4.3828,4.5955,4.7168,4.7679,4.8542,4.8894,4.8913,4.8913,4.8913,4.8913,4.8913,4.8913,4.8913,4.8913,4.8913,4.8913,4.8913,4.8913,4.8913,4.8913,4.8913,4.8913,4.8913,4.8913,4.8913,4.8913,4.8913,4.8913,4.8894,4.8538,4.7969,4.7087,4.6579,4.6289,4.6289,4.5959,4.5392,4.4531,0.0,0.0,0.0,0.0,0.0,0.0,3.1706,2.914,2.6259,2.5678,0.0,0.0,0.0,0.0,0.0,0.0,0.0,2.6807,2.7368,0.0,2.8988,2.9611,3.0207,3.0795,3.1076,3.1383,3.1687,3.1687,3.1848,3.2104,3.2104,3.2289,3.2607,3.2877,3.2998,3.3038,3.3293,3.3414,3.3414,3.3414,3.3414,3.3414,4.9301,4.9687,5.0156,5.0703,5.1289,5.1777,5.2075,5.2603,5.3033,5.317,5.3418,5.3471,5.3209,5.2544,5.2114,0.0,5.1655,5.1401,0.0,5.0894,5.0488,5.0219,4.9629,4.918,4.8913,4.8753,4.8245,4.7383,0.0,0.0,0.0,4.3086,4.3066,4.2969,4.4572,4.5508,4.5955,4.7243,4.8047,4.8522,4.8796,4.8913,4.8913,4.8913,4.8913,4.8913,4.8913,4.8913,4.8913,4.8913,4.8913,4.8913,4.8913,4.8913,4.8913,4.8913,4.8913,4.8913,4.8913,4.8913,4.8913,4.8913,4.8913,4.8913,4.8913,4.8538,4.8047,4.748,4.7031,4.6618,4.6348,4.5723,4.5039,4.4492,0.0,0.0,0.0,0.0,0.0,0.0,3.4196,3.2036,0.0,2.785,0.0,0.0,0.0,0.0,0.0,0.0,0.0,0.0,2.7768,0.0,2.9339,3.0127,3.0702,3.1066,3.1383,3.1607,3.1701,3.1901,3.2011,3.2118,3.2342,3.2621,3.2877,3.2957,3.3118,3.328,3.3374,3.3414,3.3414,3.3414,3.3414,3.3414,5.0434,5.0762,5.1094,5.125,5.1738,5.2212,5.2544,5.3033,5.3443,5.3619,5.3822,5.39,5.3652,5.3013,0.0,5.2134,5.1655,5.1401,5.1401,5.1011,5.0683,5.0453,5.0,4.9648,4.9379,0.0,0.0,4.832,4.736,4.6209,4.4901,4.5058,4.5039,4.494,4.6113,4.6914,4.7438,4.8144,4.8636,4.8913,4.8913,4.8913,4.8913,4.8913,4.8913,4.8913,4.8913,4.8913,4.8913,4.8913,4.8913,4.8913,4.8913,4.8913,4.8913,4.8913,4.8913,4.8913,4.8913,4.8913,4.8913,4.8913,4.8913,4.8913,4.8913,4.8538,4.8125,4.7871,4.7321,4.6833,4.656,4.5818,4.5078,4.4492,0.0,4.2324,4.1328,0.0,0.0,0.0,0.0,0.0,0.0,2.9815,0.0,0.0,0.0,0.0,0.0,0.0,0.0,2.7134,2.8182,0.0,2.9633,3.0515,3.1026,3.1213,3.1637,3.1915,3.2035,3.2209,3.2332,3.2438,3.265,3.2904,3.3146,3.3146,3.3253,3.3414,3.3414,3.3414,3.3414,3.3414,3.3414,3.3414,5.0879,5.1187,0.0,0.0,5.2173,0.0,5.3228,5.3384,5.358,5.39,5.3978,5.3998,5.3959,5.3613,5.3052,5.2232,0.0,0.0,0.0,5.1069,5.084,5.0801,5.043,5.0219,5.016,4.9703,4.9488,4.9469,4.7829,4.7048,4.7028,4.666,4.668,4.7067,4.7891,4.8262,4.8281,4.8714,4.8913,4.8913,4.8913,4.8913,4.8913,4.8913,4.8913,4.8913,4.8913,4.8913,4.8913,4.8913,4.8913,4.8913,4.8913,4.8913,4.8913,4.8913,4.8913,4.8913,4.8913,4.8913,4.8913,4.8913,4.8913,4.8913,4.8913,4.8558,4.8242,4.8223,4.7556,4.697,4.6911,4.623,4.5412,4.4492,4.3595,4.2559,4.1289,0.0,0.0,0.0,0.0,0.0,0.0,3.1739,3.0445,0.0,0.0,0.0,0.0,0.0,2.7194,2.7749,2.8609,2.9357,2.9944,3.0785,3.1226,3.1266,3.1864,3.2302,3.2594,3.2621,3.2768,3.2998,3.3024,3.316,3.3414,3.3414,3.3414,3.3414,3.3414,3.3414,3.3414,3.3414,3.3414,3.3414,0.0,0.0,5.207,5.248,5.2857,5.3033,5.2891,5.3437,5.3789,5.358,5.3808,5.3881,5.358,5.3443,5.317,5.2617,5.2168,5.1933,5.1933,5.1499,5.1109,5.082,5.0703,5.0351,4.9664,4.9566,4.9355,4.9046,4.8636,4.8421,4.8421,4.8323,4.8323,4.8441,4.8636,4.8734,4.8734,4.8855,4.8913,4.8913,4.8913,4.8913,4.8913,4.8913,4.8913,4.8913,4.8913,4.8913,4.8913,4.8913,4.8913,4.8913,4.8913,4.8913,4.8913,4.8913,4.8913,4.8913,4.8913,4.8913,4.8913,4.8913,4.8913,4.8913,4.8913,4.8815,4.8636,4.8281,4.8047,4.7692,4.7028,4.623,4.5295,4.4062,4.2871,4.166,4.039,4.0019,0.0,0.0,3.9165,3.8611,3.6116,3.456,3.2855,0.0,0.0,0.0,0.0,2.8115,2.8449,2.839,2.9223,2.9993,3.0581,3.0986,3.1426,3.1891,3.2289,3.2527,3.2607,3.2797,3.2944,3.3011,3.3213,3.3347,3.3414,3.3414,3.3414,3.3414,3.3414,3.3414,3.3414,3.3414,3.3414,3.3414,5.2324,5.2363,5.25,5.293,5.3379,5.3652,5.3613,5.4023,5.4238,5.4029,5.4004,5.392,5.3691,5.3873,5.3814,5.3334,5.2558,5.2114,5.2114,5.1655,5.1304,5.1069,5.1069,5.0855,5.0386,4.9996,4.9535,4.8913,4.8913,4.8913,4.8913,4.8913,4.8913,4.8913,4.8913,4.8913,4.8913,4.8913,4.8913,4.8913,4.8913,4.8913,4.8913,4.8913,4.8913,4.8913,4.8913,4.8913,4.8913,4.8913,4.8913,4.8913,4.8913,4.8913,4.8913,4.8913,4.8913,4.8913,4.8913,4.8913,4.8913,4.8913,4.8913,4.8913,4.8913,4.8913,4.8835,4.8578,4.834,4.8008,4.7344,4.6409,4.5197,4.3652,4.25,4.1289,3.9785,3.9766,0.0,3.9551,4.0293,4.0357,3.9214,3.6716,3.4486,3.2908,0.0,0.0,2.8136,2.8943,2.9223,2.8796,2.9793,3.0595,3.1206,3.1634,3.2075,3.2505,3.269,3.2837,3.2971,3.3131,3.3173,3.3187,3.3347,3.3414,3.3414,3.3414,3.3414,3.3414,3.3414,3.3414,3.3414,3.3414,3.3414,3.3414,5.2793,5.2812,5.2949,5.3404,5.3828,5.4232,5.4655,5.4752,5.4785,5.4785,5.4453,5.4173,5.4115,5.4453,5.4512,5.4037,5.2949,5.2271,5.2212,5.1753,5.1479,5.1401,5.1401,5.1382,5.1323,5.0586,4.9828,4.9109,4.905,4.8988,4.8988,4.8933,4.8913,4.8913,4.8913,4.8913,4.8913,4.8913,4.8913,4.8913,4.8913,4.8913,4.8913,4.8913,4.8913,4.8913,4.8913,4.8913,4.8913,4.8913,4.8913,4.8913,4.8913,4.8913,4.8913,4.8913,4.8913,4.8913,4.8913,4.8913,4.8913,4.8913,4.8913,4.8913,4.8913,4.8913,4.8913,4.8913,4.8578,4.8164,4.7698,4.6604,4.5236,4.3575,4.2383,4.1172,3.9609,0.0,3.9941,4.0078,4.0918,4.1641,4.2051,3.8714,3.6346,3.5956,3.2395,3.0056,0.0,3.0264,3.028,2.9424,3.0408,3.1233,3.1821,3.2393,3.2781,3.2998,3.3051,3.3173,3.3414,3.3414,3.3414,3.3414,3.3414,3.3414,3.3414,3.3414,3.3414,3.3414,3.3414,3.3414,3.3414,3.3414,3.3414,3.3414,5.3209,5.3287,5.3424,5.3822,5.4297,5.4635,5.4694,5.498,5.5215,5.5215,5.5156,5.498,5.4629,5.4674,5.4512,5.4037,5.3496,5.3033,5.2637,5.2207,5.1816,5.1421,5.1401,5.1245,5.0898,5.043,5.0141,5.0004,4.9609,4.9391,4.9391,4.9066,4.8913,4.8913,4.8913,4.8913,4.8913,4.8913,4.8913,4.8913,4.8913,4.8913,4.8913,4.8913,4.8913,4.8913,4.8913,4.8913,4.8913,4.8913,4.8913,4.8913,4.8913,4.8913,4.8913,4.8913,4.8913,4.8913,4.8913,4.8913,4.8913,4.8913,4.8913,4.8913,4.8913,4.8913,4.8913,4.8913,4.8855,4.8561,4.7757,4.6858,4.5762,4.4414,4.2559,4.1074,4.0391,0.0,4.0156,4.0918,4.2071,4.2969,4.3379,4.1502,4.0332,4.0547,3.7679,3.5391,3.4171,3.4113,3.3257,3.1343,3.146,3.1834,3.2447,3.277,3.2957,3.3011,3.3227,3.3374,3.3414,3.3414,3.3414,3.3414,3.3414,3.3414,3.3414,3.3414,3.3414,3.3414,3.3414,3.3414,3.3414,3.3414,3.3414,3.3414,5.6061,5.6217,5.6364,5.6802,5.8437,5.9211,5.7766,5.7692,5.731,5.5828,5.5423,5.5234,5.5039,5.5215,5.515,5.474,5.4531,5.4049,5.315,5.2466,5.1894,5.1421,5.1401,5.1206,5.082,5.0414,5.0082,4.9824,4.9375,4.9183,4.916,4.8991,4.8913,4.8913,4.8913,4.8913,4.8913,4.8913,4.8913,4.8913,4.8913,4.8913,4.8913,4.8913,4.8913,4.8913,4.8913,4.8913,4.8913,4.8913,4.8913,4.8913,4.8913,4.8913,4.8913,4.8913,4.8913,4.8913,4.8913,4.8913,4.8913,4.8913,4.8913,4.8913,4.8913,4.8913,4.8913,4.8913,4.8913,4.8718,4.8027,4.7031,4.5957,4.4902,4.2734,0.0,0.0,4.0508,4.0644,4.1719,4.2988,4.4141,4.5019,4.3217,4.2119,4.2385,3.9895,3.7484,3.5415,3.5441,3.4492,3.2251,3.2316,3.253,3.2797,3.3091,3.3213,3.3213,3.3347,3.3414,3.3414,3.3414,3.3414,3.3414,3.3414,3.3414,3.3414,3.3414,3.3414,3.3414,3.3414,3.3414,3.3414,3.3414,3.3414,3.3414,5.9173,5.9336,5.9538,6.0005,6.2138,6.294,6.0382,6.0612,5.9874,5.6504,5.6334,5.626,5.5521,5.5716,5.5696,5.5195,5.5156,5.4609,5.3326,5.2622,5.1992,5.1421,5.1401,5.1265,5.0957,5.0644,5.0312,4.9957,4.9531,4.934,4.932,4.9125,4.9046,4.9027,4.8952,4.8913,4.8913,4.8913,4.8913,4.8913,4.8913,4.8913,4.8913,4.8913,4.8913,4.8913,4.8913,4.8913,4.8913,4.8913,4.8913,4.8913,4.8913,4.8913,4.8913,4.8913,4.8972,4.9007,4.8933,4.8913,4.8913,4.8913,4.8913,4.8913,4.8913,4.8913,4.8913,4.8913,4.8913,4.8776,4.8281,4.7324,4.6289,4.5332,0.0,0.0,0.0,4.123,4.1465,4.2851,4.4023,4.5195,4.6484,4.4977,4.4018,4.4264,4.2428,4.0247,3.7826,3.7304,3.5728,3.2879,3.2931,3.3038,3.308,3.3293,3.3414,3.3414,3.3414,3.3414,3.3414,3.3414,3.3414,3.3414,3.3414,3.3414,3.3414,3.3414,3.3414,3.3414,3.3414,3.3414,3.3414,3.3414,3.3414,3.3427,6.1456,6.1481,6.1661,6.2251,6.2863,6.2512,6.0314,6.248,6.2478,5.7223,5.8682,5.9106,5.6182,5.5891,5.5579,5.4805,5.4752,5.4186,5.2851,5.2695,5.2285,5.144,5.1401,5.1382,5.1362,5.1343,5.1304,5.1265,5.0859,5.0664,5.0644,4.982,4.9449,4.943,4.9066,4.8913,4.8913,4.8913,4.8913,4.8913,4.8913,4.8913,4.8913,4.8913,4.8913,4.8913,4.8913,4.8913,4.8913,4.8913,4.8913,4.8913,4.8913,4.8913,4.8913,4.8913,4.916,4.9371,4.8988,4.8913,4.8913,4.8913,4.8913,4.8913,4.8913,4.8913,4.8913,4.8913,4.8913,4.8776,4.8281,4.7812,4.7092,4.5861,0.0,0.0,4.3008,4.2558,4.289,4.4608,4.5273,4.6096,4.7386,4.7346,4.7411,4.78,4.7312,4.6212,4.4416,4.1673,3.8058,3.3483,3.3106,3.3106,3.3374,3.34,3.3414,3.3414,3.3414,3.3414,3.3414,3.3414,3.3414,3.3414,3.3414,3.3414,3.3414,3.3414,3.3414,3.3414,3.3414,3.3414,3.3414,3.3414,3.3414,3.3429,6.4431,6.4548,6.4783,6.5294,6.7153,6.7773,6.5261,6.6212,6.5838,6.2111,6.2522,6.2687,6.149,5.959,5.8313,5.8012,5.5976,5.4264,5.3209,5.2851,5.2299,5.144,5.1401,5.1401,5.1401,5.1148,5.1011,5.1011,5.0625,5.041,5.041,4.9781,4.9668,4.9902,4.9203,4.9046,4.9258,4.9007,4.8913,4.8913,4.8913,4.8913,4.8913,4.8913,4.8913,4.8913,4.8913,4.8913,4.8913,4.8913,4.8913,4.8913,4.8913,4.8913,4.8913,4.8913,4.918,4.941,4.9007,4.9086,4.9277,4.9277,4.9086,4.8913,4.8913,4.8913,4.8913,4.8913,4.8913,4.8855,4.8656,4.8069,4.7522,4.7285,0.0,4.4627,4.5019,4.4473,4.4471,4.5662,4.6426,4.7171,4.7891,4.8245,4.846,4.8617,4.848,4.74,4.5108,4.0887,3.6942,3.35,3.3307,3.3293,3.3414,3.3414,3.3414,3.3414,3.3414,3.3414,3.3414,3.3414,3.3414,3.3414,3.3414,3.3414,3.3414,3.3414,3.3414,3.3414,3.3414,3.3414,3.3414,3.3414,3.3414,3.3427,6.7136,6.7278,6.7566,6.8245,7.0168,7.0868,6.8492,6.9189,6.87,6.5159,6.5413,6.5567,6.4533,6.2509,6.1066,6.0766,5.8522,5.637,5.4514,5.3069,5.2026,5.144,5.1401,5.1401,5.1401,5.1128,5.0972,5.0972,5.0723,5.0566,5.0566,5.0,4.9902,5.016,4.9304,4.9046,4.9297,4.9007,4.8913,4.8913,4.8913,4.8913,4.8913,4.8913,4.8913,4.8913,4.8913,4.8913,4.8913,4.8913,4.8913,4.8913,4.8913,4.8913,4.8913,4.8913,4.918,4.943,4.916,4.9297,4.9469,4.9332,4.9105,4.8913,4.8913,4.8913,4.8913,4.8913,4.8913,4.8913,4.8913,4.8402,4.8011,4.8008,4.6777,4.5955,4.6445,4.5974,4.5916,4.6797,4.7422,4.7949,4.8382,4.8695,4.8913,4.8913,4.8913,4.7767,4.5126,4.085,3.7306,3.472,3.3825,3.3414,3.3414,3.3414,3.3414,3.3414,3.3414,3.3414,3.3414,3.3414,3.3414,3.3414,3.3414,3.3414,3.3414,3.3414,3.3414,3.3414,3.3414,3.3414,3.3414,3.3414,3.3414,3.344,6.9406,6.9406,6.978,7.0905,7.1106,7.0546,6.8971,7.0974,7.0782,6.546,6.7079,6.7484,6.4214,6.387,6.3467,6.2529,6.2415,6.0772,5.6899,5.3371,5.1426,5.1426,5.1401,5.1401,5.1401,5.1401,5.1401,5.1401,5.1401,5.1401,5.1382,5.0566,5.0199,5.018,4.9304,4.8913,4.8913,4.8913,4.8913,4.8913,4.8913,4.8913,4.8913,4.8913,4.8913,4.8913,4.8913,4.8913,4.8913,4.8913,4.8913,4.8913,4.8913,4.8913,4.8913,4.8913,4.918,4.9508,4.9508,4.9508,4.9391,4.8988,4.8913,4.8913,4.8913,4.8913,4.8913,4.8913,4.8913,4.8913,4.8913,4.8913,4.864,4.7757,4.762,4.7441,4.6989,4.6931,4.7243,4.8105,4.8223,4.8379,4.8855,4.8913,4.8913,4.8913,4.8913,4.7767,4.5126,4.2523,3.9924,3.738,3.477,3.3414,3.3414,3.3414,3.3414,3.3414,3.3414,3.3414,3.3414,3.3414,3.3414,3.3414,3.3414,3.3414,3.3414,3.3414,3.3414,3.3414,3.3414,3.3414,3.3414,3.3414,3.3414,3.3494,6.9953,6.9679,6.9654,7.0403,7.0529,7.0627,7.0902,7.1619,7.1698,7.0468,7.1022,7.1116,7.0153,6.8105,6.6519,6.5817,6.3785,6.1573,5.9343,5.5928,5.3998,5.3998,5.233,5.1401,5.1401,5.1401,5.1401,5.1401,5.1401,5.1401,5.1382,5.0566,5.0488,5.0972,4.9535,4.9246,4.9769,4.9167,4.8913,4.8913,4.8913,4.8913,4.8913,4.8913,4.8913,4.8913,4.8913,4.8913,4.8913,4.8913,4.8913,4.8913,4.8913,4.8913,4.8913,4.8913,4.918,4.943,4.9164,4.9297,4.9469,4.9355,4.9125,4.8968,4.9258,4.9336,4.9414,4.975,4.9809,4.9711,4.9394,4.9336,4.9141,4.8597,4.8522,4.846,4.8323,4.8304,4.8402,4.8656,4.8695,4.8734,4.8894,4.8913,4.8913,4.8913,4.8913,4.7767,4.5126,4.2553,3.9981,3.738,3.477,3.3414,3.3414,3.3414,3.3414,3.3414,3.3414,3.3414,3.3414,3.3414,3.3414,3.3414,3.3414,3.3414,3.3414,3.3414,3.3414,3.3414,3.3414,3.3414,3.3414,3.3414,3.3414,3.344,7.0227,7.0179,7.0232,7.083,7.093,7.1232,7.2064,7.2215,7.2315,7.2666,7.2717,7.2616,7.2415,7.0718,6.9277,6.8499,6.5424,6.3097,6.2177,5.9029,5.6648,5.5483,5.3975,5.263,5.1426,5.1401,5.1401,5.1401,5.1401,5.1401,5.1382,5.0742,5.0605,5.0855,4.9668,4.9414,4.9883,4.9183,4.8988,4.9125,4.8949,4.8913,4.8913,4.8913,4.8913,4.8913,4.8913,4.8913,4.8913,4.8913,4.8913,4.8913,4.8913,4.8913,4.8913,4.8913,4.9066,4.9238,4.9164,4.9316,4.9547,4.9746,4.9453,4.9238,4.9687,4.9785,4.9863,5.0141,5.0199,5.0121,4.9844,4.9785,4.9648,4.9222,4.9144,4.9086,4.8933,4.8913,4.8913,4.8913,4.8913,4.8913,4.8913,4.8913,4.8913,4.8913,4.8913,4.8204,4.6635,4.4092,4.1524,3.8929,3.6312,3.446,3.3414,3.3414,3.3414,3.3414,3.3414,3.3414,3.3414,3.3414,3.3414,3.3414,3.3414,3.3414,3.3414,3.3414,3.3414,3.3414,3.3414,3.3414,3.3414,3.3414,3.3414,3.3427,7.0376,7.0755,7.1282,7.1811,7.1861,7.2037,7.2616,7.2616,7.2566,7.2616,7.2641,7.2441,7.1962,7.1937,7.1535,7.0476,6.7221,6.5212,6.5212,6.2365,5.944,5.6667,5.6292,5.4864,5.2133,5.1644,5.1401,5.1401,5.1401,5.1401,5.1401,5.0972,5.0605,5.0238,4.9746,4.9508,4.9469,4.9066,4.9125,4.941,4.9046,4.8913,4.8913,4.8913,4.8913,4.8913,4.8913,4.8913,4.8913,4.8913,4.8913,4.8913,4.8913,4.8913,4.8913,4.8913,4.8913,4.8988,4.9391,4.9508,4.9625,5.0141,4.9941,4.9722,5.018,5.0258,5.0278,5.0297,5.0317,5.0297,5.0258,5.0258,5.0078,4.9586,4.9508,4.9352,4.9007,4.8933,4.8913,4.8952,4.8933,4.8913,4.8913,4.8913,4.8913,4.8913,4.8913,4.8913,4.8913,4.6429,4.395,4.162,3.8782,3.6154,3.3775,3.3514,3.3414,3.3414,3.3414,3.3414,3.3414,3.3414,3.3414,3.3414,3.3414,3.3414,3.3414,3.3414,3.3414,3.3414,3.3414,3.3414,3.3414,3.3414,3.3414,3.3454,7.083,7.1031,7.1282,7.1811,7.156,7.1585,7.2566,7.1987,7.1585,7.2037,7.2064,7.2037,7.1912,7.2265,7.2089,7.1031,6.9024,6.7812,6.7812,6.4578,6.2376,6.1714,5.9449,5.7866,5.72,5.3395,5.1401,5.1401,5.1401,5.1401,5.1401,5.0972,5.0762,5.0644,4.984,4.9508,4.9469,4.9066,4.8952,4.9007,4.8952,4.8913,4.8913,4.8913,4.8913,4.8913,4.8913,4.8913,4.8913,4.8913,4.8913,4.8913,4.8913,4.8913,4.8913,4.8913,4.8913,4.8988,4.9391,4.9508,4.9683,5.0469,5.0605,5.0547,5.0644,5.0664,5.0762,5.1069,5.1128,5.103,5.0723,5.0664,5.041,4.9625,4.9508,4.9469,4.9371,4.9105,4.9007,4.9336,4.9086,4.8913,4.8913,4.8913,4.8913,4.8913,4.8913,4.8913,4.8913,4.6429,4.4748,4.4187,3.969,3.7011,3.646,3.4435,3.3414,3.3414,3.3414,3.3414,3.3414,3.3414,3.3414,3.3414,3.3414,3.3414,3.3414,3.3414,3.3414,3.3414,3.3414,3.3414,3.3414,3.3414,3.3414,3.3454,7.1056,7.151,7.1962,7.2215,7.2039,7.2039,7.2616,7.2012,7.1585,7.1861,7.1686,7.151,7.151,7.1786,7.161,7.078,6.9629,6.8979,6.8979,6.7234,6.5453,6.3771,6.2428,6.0799,5.8837,5.6506,5.461,5.318,5.1988,5.1401,5.1401,5.1187,5.0898,5.0488,5.0254,4.9879,4.9508,4.9492,4.9398,4.9203,4.9203,4.9066,4.8913,4.8913,4.8913,4.8913,4.8913,4.8913,4.8913,4.8913,4.8913,4.8913,4.8913,4.8913,4.8913,4.8913,4.8913,4.905,4.9668,4.9844,5.0039,5.0874,5.1069,5.1069,5.1069,5.1069,5.1148,5.1362,5.1401,5.1343,5.1128,5.0937,5.0664,5.0191,4.9961,4.9844,4.9844,4.9453,4.9258,4.9469,4.9121,4.8913,4.8913,4.8913,4.8913,4.8913,4.8913,4.8913,4.8913,4.7586,4.6289,4.5031,4.2386,4.0392,3.9172,3.6559,3.5253,3.5253,3.3987,3.3414,3.3414,3.3414,3.3414,3.3414,3.3414,3.3414,3.3414,3.3414,3.3414,3.3414,3.3414,3.3414,3.3414,3.3414,3.3414,3.344,7.1081,7.1887,7.2591,7.2692,7.2717,7.2666,7.2591,7.2113,7.1736,7.1636,7.1257,7.0956,7.0956,7.0956,7.078,7.035,6.973,6.9406,6.9406,6.9306,6.7949,6.5002,6.5199,6.3811,6.041,6.0364,5.8842,5.5729,5.3661,5.2451,5.2036,5.2036,5.1405,5.0317,5.0644,5.0371,4.9644,5.0019,4.9922,4.9508,4.9508,4.9258,4.8913,4.8913,4.8913,4.8913,4.8913,4.8913,4.8913,4.8913,4.8913,4.8913,4.8913,4.8913,4.8913,4.8913,4.8913,4.9089,4.9867,5.0082,5.0254,5.1011,5.1245,5.1304,5.1304,5.1362,5.1401,5.1401,5.1401,5.1401,5.1401,5.1128,5.0898,5.082,5.0508,5.0278,5.0219,4.9805,4.9527,4.9605,4.9238,4.8991,4.8913,4.8913,4.8913,4.8913,4.8913,4.8913,4.8913,4.8913,4.7907,4.5732,4.522,4.3998,4.186,3.9253,3.7748,3.7282,3.5104,3.3825,3.3414,3.3414,3.3414,3.3414,3.3414,3.3414,3.3414,3.3414,3.3414,3.3414,3.3414,3.3414,3.3414,3.3414,3.3414,3.3414,7.1006,7.1585,7.2139,7.2616,7.2717,7.2541,7.2087,7.156,7.1056,7.0579,7.0428,7.0426,7.0426,7.0426,7.0401,7.0325,6.973,6.9406,6.9406,6.8977,6.8491,6.8003,6.7629,6.715,6.6592,6.453,6.1785,5.8309,5.7963,5.6712,5.4595,5.4595,5.3206,5.0723,5.0781,5.0527,5.0121,5.018,4.9922,4.9508,4.9508,4.9258,4.8913,4.8913,4.8913,4.8913,4.8913,4.8913,4.8913,4.8913,4.8913,4.8913,4.8913,4.8913,4.8913,4.8913,4.8913,4.8988,4.9473,4.9586,4.9703,5.0234,5.0625,5.0898,5.0898,5.1148,5.1401,5.1401,5.1401,5.1401,5.1401,5.1362,5.1206,5.0859,5.0762,5.0586,5.0258,4.9805,4.9644,5.0039,4.9707,4.9277,4.891,4.8913,4.8913,4.8913,4.8913,4.8913,4.8913,4.8913,4.8732,4.8366,4.619,4.4837,4.4494,4.1955,3.9545,3.7306,3.6953,3.5585,3.3414,3.3414,3.3414,3.3414,3.3414,3.3414,3.3414,3.3414,3.3414,3.3414,3.3414,3.3414,3.3414,3.3414,3.3414,3.3414,7.1485,7.1987,7.2415,7.2666,7.2717,7.2616,7.2365,7.1636,7.1031,7.078,7.0179,6.9803,6.9803,6.9803,6.9928,7.0275,6.973,6.9554,6.9878,6.9378,6.8926,6.8625,6.8675,6.8399,6.7819,6.7022,6.5551,6.3367,6.0616,5.8686,5.7595,5.7309,5.6359,5.4841,5.3705,5.2823,5.2142,5.1008,5.0293,4.9863,4.9605,4.9391,4.9199,4.8991,4.8913,4.8913,4.8913,4.8913,4.8913,4.8913,4.8913,4.8913,4.8913,4.8913,4.8913,4.8913,4.8913,4.8988,4.9391,4.9508,4.9664,5.0371,5.0664,5.0859,5.1069,5.1284,5.1401,5.1401,5.1401,5.1401,5.1401,5.1206,5.1069,5.1128,5.0957,5.082,5.0855,5.0508,5.0113,4.9844,4.9625,4.943,4.9258,4.9476,4.9515,4.9258,4.9238,4.9144,4.8913,4.8913,4.8913,4.8913,4.7787,4.7167,4.7171,4.4607,4.2744,4.1596,4.015,3.8099,3.5525,3.4061,3.4211,3.55,3.4037,3.3414,3.3414,3.3414,3.3414,3.3414,3.3414,3.3414,3.3414,3.3414,3.3414,3.3414]}]]